Date StartTime U_cm/s V_cm/s W_cm/s Ustd_cm/s Vstd_cm/s Wstd_cm/s Uvar_(cm/s)^2 Vvar_(cm/s)^2 Wvar_(cm/s)^2 KE_(m/s)^2 TurbulentKE_(m/s)^2 HorizWindSpeed_cm/s FrictionSpeec_cm/s DragCoef SpeedOfSound_m/s SonicTemperature_C Pressure_mb 
06/14/2013  00:00:00     -162.890      186.929      -29.953       98.300       85.107       50.312     9662.866     7243.149     2531.325        4.090        0.972      247.943       44.820        0.033      340.698       14.895      864.837
06/14/2013  00:01:00     -170.184      224.382      -39.097       81.320       74.872       46.041     6612.977     5605.869     2119.781        4.759        0.717      281.620       39.634        0.020      340.699       14.895      864.821
06/14/2013  00:02:00     -164.467      198.243      -35.623       64.859       95.957       47.187     4206.732     9207.730     2226.629        4.163        0.782      257.584       44.460        0.030      340.674       14.854      864.815
06/14/2013  00:03:00     -153.192      142.375      -20.119       80.836       85.195       55.684     6534.456     7258.175     3100.715        3.051        0.845      209.137       44.723        0.046      340.672       14.851      864.815
06/14/2013  00:04:00     -122.591      212.381      -30.933      101.095      102.290       57.487    10220.131    10463.158     3304.774        4.253        1.199      245.222       61.091        0.062      340.676       14.857      864.801
06/14/2013  00:05:00     -166.235      224.829      -39.162       81.288       79.727       45.485     6607.680     6356.387     2068.878        4.737        0.752      279.611       40.437        0.021      340.666       14.841      864.821
06/14/2013  00:06:00      -77.910      197.271      -23.826       61.582       80.128       36.193     3792.373     6420.437     1309.924        2.854        0.576      212.098       38.172        0.032      340.613       14.752      864.830
06/14/2013  00:07:00      -67.986      244.045      -35.047       54.215       87.109       37.563     2939.253     7588.015     1410.999        3.867        0.597      253.338       33.958        0.018      340.600       14.728      864.853
06/14/2013  00:08:00      -71.645      244.676      -27.516       92.462       88.231       49.732     8549.145     7784.699     2473.224        4.228        0.940      254.950       51.373        0.041      340.614       14.752      864.863
06/14/2013  00:09:00      -36.832      200.520      -21.404       77.853       77.438       42.997     6061.064     5996.692     1848.714        2.796        0.695      203.874       43.650        0.046      340.583       14.701      864.880
06/14/2013  00:10:00      -34.310      290.722      -30.710       71.537      111.959       47.777     5117.525    12534.850     2282.688        5.328        0.997      292.740       46.045        0.025      340.617       14.759      864.908
06/14/2013  00:11:00      -20.374      182.883      -23.836       65.914       83.466       47.611     4344.675     6966.495     2266.836        2.400        0.679      184.014       45.076        0.060      340.572       14.684      864.916
06/14/2013  00:12:00       -8.006      273.578      -29.206       55.581      105.502       45.513     3089.209    11130.644     2071.413        4.602        0.815      273.695       47.821        0.031      340.589       14.709      864.935
06/14/2013  00:13:00      -18.172      273.471      -31.455       64.590       73.551       41.598     4171.820     5409.797     1730.409        4.371        0.566      274.074       39.205        0.020      340.566       14.670      864.925
06/14/2013  00:14:00       -9.169      225.596      -24.283       70.930       88.376       52.725     5031.042     7810.361     2779.970        3.359        0.781      225.783       52.509        0.054      340.543       14.631      864.910
06/14/2013  00:15:00      -51.837      257.251      -20.422       73.173       65.156       38.877     5354.293     4245.364     1511.443        4.019        0.556      262.421       38.312        0.021      340.528       14.607      864.884
06/14/2013  00:16:00      -59.890      269.429      -28.614       57.789       61.666       36.514     3339.561     3802.690     1333.274        4.273        0.424      276.005       31.591        0.013      340.557       14.655      864.850
06/14/2013  00:17:00      -62.032      106.375      -21.807       48.107       75.731       29.342     2314.301     5735.167      860.932        1.227        0.446      123.140       23.816        0.037      340.522       14.601      864.829
06/14/2013  00:18:00      -61.770      169.052      -20.921       56.588       77.486       31.240     3202.227     6004.084      975.957        2.150        0.509      179.984       29.340        0.027      340.490       14.544      864.802
06/14/2013  00:19:00      -51.995      145.157      -11.724       56.057       74.992       38.365     3142.430     5623.814     1471.856        1.707        0.512      154.189       39.963        0.067      340.452       14.482      864.782
06/14/2013  00:20:00      -37.696      262.437      -23.524       55.349       93.270       49.777     3063.560     8699.290     2477.713        4.254        0.712      265.131       51.436        0.038      340.426       14.437      864.789
06/14/2013  00:21:00      -43.747      270.985      -31.614       69.179       53.556       41.425     4785.702     2868.264     1716.056        4.286        0.469      274.493       35.600        0.017      340.423       14.427      864.800
06/14/2013  00:22:00       -2.962      224.829      -31.305       51.963       65.613       32.678     2700.120     4305.101     1067.874        2.980        0.404      224.848       24.861        0.012      340.379       14.355      864.821
06/14/2013  00:23:00       25.836      193.395      -16.092       62.388       75.940       41.247     3892.306     5766.829     1701.348        2.484        0.568      195.113       35.398        0.033      340.360       14.325      864.849
06/14/2013  00:24:00       23.500      118.825        4.093       50.830      102.017       47.779     2583.660    10407.386     2282.878        1.498        0.764      121.127       56.914        0.221      340.298       14.221      864.879
06/14/2013  00:25:00       20.028      186.405      -10.590       49.329       93.324       56.630     2433.324     8709.292     3206.945        2.480        0.717      187.478       63.477        0.115      340.316       14.250      864.898
06/14/2013  00:26:00      -55.759      176.005       -7.521       70.763       87.433       44.130     5007.361     7644.460     1947.427        2.437        0.730      184.626       50.595        0.075      340.293       14.211      864.909
06/14/2013  00:27:00      -27.659      194.802      -16.506       39.066      108.568       34.297     1526.181    11787.074     1176.278        2.673        0.724      196.756       45.854        0.054      340.309       14.238      864.925
06/14/2013  00:28:00        6.312      168.334        4.999       63.191      118.975       54.535     3993.048    14155.125     2974.020        2.476        1.056      168.452       65.729        0.152      340.289       14.204      864.908
06/14/2013  00:29:00      -36.044      330.538      -34.581       70.457       76.948       41.199     4964.212     5921.026     1697.363        6.216        0.629      332.497       40.090        0.015      340.353       14.310      864.901
06/14/2013  00:30:00      -72.115      334.256      -29.085       74.280      118.963       43.221     5517.549    14152.176     1868.092        6.965        1.077      341.947       49.201        0.021      340.381       14.358      864.885
06/14/2013  00:31:00     -107.659      206.990      -26.077       56.047       84.707       30.667     3141.308     7175.247      940.442        3.318        0.563      233.314       27.927        0.014      340.373       14.345      864.893
06/14/2013  00:32:00      -51.617      187.063      -20.381       44.379       68.643       38.910     1969.520     4711.857     1513.956        2.313        0.410      194.054       35.977        0.034      340.381       14.359      864.900
06/14/2013  00:33:00       -9.471      271.416      -37.078       50.147       63.775       26.395     2514.723     4067.238      696.692        4.120        0.364      271.581       26.840        0.010      340.401       14.389      864.912
06/14/2013  00:34:00       -7.179      189.445      -16.680       46.316       76.684       43.759     2145.193     5880.476     1914.864        2.308        0.497      189.581       47.873        0.064      340.330       14.274      864.929
06/14/2013  00:35:00        9.182      252.626      -33.763       56.183       66.281       33.787     3156.480     4393.227     1141.539        3.687        0.435      252.793       33.588        0.018      340.329       14.271      864.946
06/14/2013  00:36:00      -15.276      287.543      -41.235       66.013      108.528       38.784     4357.778    11778.423     1504.192        5.112        0.882      287.948       49.159        0.029      340.341       14.291      864.962
06/14/2013  00:37:00      -50.748      226.602      -25.166       50.917       95.661       35.906     2592.493     9151.081     1289.245        3.379        0.652      232.215       42.033        0.033      340.326       14.267      864.972
06/14/2013  00:38:00      -74.850      167.310      -15.495       52.560       56.942       33.536     2762.574     3242.346     1124.680        2.048        0.356      183.290       27.519        0.023      340.294       14.214      864.971
06/14/2013  00:39:00      -11.863      202.392      -25.766       54.809       71.580       34.887     3004.021     5123.752     1217.106        2.555        0.467      202.739       36.058        0.032      340.298       14.219      864.965
06/14/2013  00:40:00      -84.057      143.313      -25.091       43.462       69.791       31.683     1888.915     4870.764     1003.798        1.800        0.388      166.145       28.161        0.029      340.299       14.221      864.950
06/14/2013  00:41:00      -85.845       96.754      -18.129       51.005       65.637       25.503     2601.548     4308.186      650.387        1.231        0.378      129.347       25.317        0.038      340.262       14.161      864.923
06/14/2013  00:42:00      -99.340      115.542      -29.538       42.394       70.370       31.872     1797.226     4951.882     1015.805        1.593        0.388      152.376       28.563        0.035      340.250       14.140      864.919
06/14/2013  00:43:00     -120.376       56.569      -20.920       41.413       54.433       27.398     1715.051     2962.934      750.649        1.178        0.271      133.005       17.358        0.017      340.247       14.134      864.904
06/14/2013  00:44:00     -128.036      107.856      -15.803       50.832       93.559       30.641     2583.879     8753.274      938.870        2.027        0.614      167.410       32.698        0.038      340.225       14.098      864.888
06/14/2013  00:45:00     -140.799      174.223      -21.640       83.824      110.586       49.991     7026.457    12229.223     2499.147        3.620        1.088      224.005       54.267        0.059      340.225       14.096      864.886
06/14/2013  00:46:00     -151.443      153.418      -27.447       63.806       66.277       41.134     4071.258     4392.618     1691.998        2.869        0.508      215.574       32.114        0.022      340.222       14.091      864.899
06/14/2013  00:47:00     -114.097      145.920      -22.941       57.180       69.212       31.165     3269.567     4790.298      971.261        2.193        0.452      185.232       19.776        0.011      340.189       14.036      864.903
06/14/2013  00:48:00     -139.016      229.996      -41.459       70.636      100.160       46.027     4989.374    10032.050     2118.499        4.554        0.857      268.744       46.133        0.029      340.188       14.033      864.907
06/14/2013  00:49:00      -38.519      124.838      -16.960       31.383       71.899       23.528      984.868     5169.456      553.557        1.203        0.335      130.646       28.301        0.047      340.164       13.995      864.898
06/14/2013  00:50:00      -92.124      134.971      -14.446       56.646       80.493       35.136     3208.789     6479.176     1234.523        1.892        0.546      163.414       37.403        0.052      340.141       13.955      864.894
06/14/2013  00:51:00      -87.796      117.477      -17.994       70.613       70.018       29.823     4986.253     4902.541      889.408        1.630        0.539      146.660       27.633        0.036      340.131       13.937      864.897
06/14/2013  00:52:00     -156.770      141.542      -39.492       64.040       72.239       39.585     4101.059     5218.449     1566.973        2.853        0.544      211.213       41.696        0.039      340.120       13.918      864.894
06/14/2013  00:53:00     -171.647      149.957      -35.649       76.704       77.363       39.089     5883.545     5985.098     1527.974        3.331        0.670      227.925       42.145        0.034      340.102       13.888      864.888
06/14/2013  00:54:00     -122.129      108.030      -26.289       50.806       66.237       29.843     2581.285     4387.353      890.632        1.757        0.393      163.052       27.443        0.028      340.090       13.870      864.881
06/14/2013  00:55:00      -64.542       90.678       -9.452       66.468       58.883       34.271     4418.010     3467.217     1174.519        1.077        0.453      111.302       34.672        0.097      340.065       13.827      864.878
06/14/2013  00:56:00     -134.593      136.059      -29.606       54.030       68.523       37.304     2919.284     4695.362     1391.569        2.325        0.450      191.383       28.835        0.023      340.078       13.848      864.870
06/14/2013  00:57:00     -182.604      156.944      -40.137      115.999       64.806       50.200    13455.874     4199.870     2520.026        3.988        1.009      240.781       55.300        0.053      340.009       13.731      864.862
06/14/2013  00:58:00     -117.353       74.081       -7.568       64.728       70.656       41.742     4189.709     4992.305     1742.399        1.512        0.546      138.779       35.529        0.066      339.997       13.713      864.863
06/14/2013  00:59:00     -131.182      131.547       -7.037      103.786       83.380       54.312    10771.608     6952.217     2949.746        2.761        1.034      185.778       51.454        0.077      340.022       13.753      864.872
06/14/2013  01:00:00     -173.623      102.809      -27.348       88.596       86.065       47.833     7849.239     7407.262     2288.031        2.950        0.877      201.779       36.627        0.033      340.018       13.747      864.871
06/14/2013  01:01:00     -105.276      126.630       -5.037       81.038       94.185       55.086     6567.182     8870.854     3034.495        2.280        0.924      164.676       48.152        0.085      339.974       13.673      864.853
06/14/2013  01:02:00     -208.509      220.259      -53.187      111.551      107.451       65.862    12443.573    11545.710     4337.797        6.157        1.416      303.298       70.733        0.054      339.992       13.701      864.853
06/14/2013  01:03:00     -116.688      175.695      -25.152       78.715       83.252       41.452     6196.129     6930.865     1718.267        2.998        0.742      210.914       43.900        0.043      339.971       13.667      864.857
06/14/2013  01:04:00     -216.419      193.841      -37.310      109.520      131.972       58.594    11994.630    17416.617     3433.270        5.932        1.642      290.537       38.111        0.017      340.002       13.718      864.846
06/14/2013  01:05:00     -193.968      225.668      -50.022      120.140       91.768       69.543    14433.652     8421.339     4836.202        5.937        1.385      297.573       74.894        0.063      339.948       13.628      864.838
06/14/2013  01:06:00     -195.033      154.066      -23.062      100.640      117.444       57.041    10128.340    13793.164     3253.628        4.473        1.359      248.544       47.261        0.036      339.955       13.639      864.842
06/14/2013  01:07:00     -204.067      203.318      -36.201      114.275      122.181       66.658    13058.774    14928.139     4443.257        5.835        1.622      288.066       53.761        0.035      340.010       13.732      864.831
06/14/2013  01:08:00     -139.550      202.284      -23.146       77.128       98.646       48.558     5948.696     9731.047     2357.900        3.948        0.902      245.750       46.896        0.036      339.946       13.624      864.802
06/14/2013  01:09:00     -132.604      137.457      -16.155       69.675      131.687       43.391     4854.619    17341.370     1882.796        3.040        1.204      190.993       41.860        0.048      340.022       13.754      864.786
06/14/2013  01:10:00     -157.244       83.840      -21.763      116.237       84.374       63.748    13511.110     7118.936     4063.805        2.846        1.235      178.198       70.624        0.157      340.085       13.860      864.765
06/14/2013  01:11:00     -173.135      196.421      -39.566       92.228       87.195       48.939     8505.936     7602.940     2395.022        4.431        0.925      261.834       40.212        0.024      340.001       13.715      864.746
06/14/2013  01:12:00     -195.350      187.302      -24.986       94.768       87.934       59.962     8980.929     7732.390     3595.474        4.708        1.015      270.635       47.173        0.030      340.002       13.717      864.729
06/14/2013  01:13:00     -112.118       37.843       -2.668       70.404       88.902       48.049     4956.661     7903.540     2308.688        1.459        0.758      118.332       50.640        0.183      340.020       13.751      864.697
06/14/2013  01:14:00     -100.451       25.534      -20.264       64.892       91.764       45.213     4210.909     8420.564     2044.186        1.291        0.734      103.646       32.639        0.099      340.049       13.801      864.666
06/14/2013  01:15:00     -119.511       57.979      -10.989       71.677       78.506       44.437     5137.649     6163.121     1974.665        1.552        0.664      132.832       38.741        0.085      340.005       13.725      864.643
06/14/2013  01:16:00     -122.821       77.605      -16.963       73.433       65.935       46.133     5392.457     4347.426     2128.264        1.663        0.593      145.284       31.489        0.047      340.031       13.769      864.620
06/14/2013  01:17:00      -91.072       83.322        2.478       56.425       58.576       45.987     3183.837     3431.152     2114.818        1.198        0.436      123.437       34.884        0.080      339.933       13.606      864.604
06/14/2013  01:18:00     -115.447       -5.730      -15.622       60.299       57.059       35.734     3636.000     3255.692     1276.920        1.089        0.408      115.589       28.392        0.060      340.005       13.728      864.575
06/14/2013  01:19:00      -79.678      -12.498       11.306       99.849       87.243       63.391     9969.865     7611.353     4018.447        1.411        1.080       80.652       61.993        0.591      339.989       13.700      864.583
06/14/2013  01:20:00      -67.874      -13.190       -9.256       73.753       67.676       54.971     5439.535     4580.002     3021.757        0.895        0.652       69.144       47.825        0.478      339.996       13.712      864.588
06/14/2013  01:21:00      -48.236        6.905       17.962       53.330       48.682       44.448     2844.111     2369.969     1975.622        0.494        0.359       48.728       40.772        0.700      339.934       13.607      864.601
06/14/2013  01:22:00     -109.249       60.074      -15.620       64.253       54.283       37.600     4128.460     2946.649     1413.770        1.214        0.424      124.677       31.038        0.062      339.981       13.686      864.618
06/14/2013  01:23:00     -123.194        5.963       -6.696       67.565       76.891       46.115     4565.039     5912.202     2126.567        1.393        0.630      123.338       37.494        0.092      339.984       13.691      864.627
06/14/2013  01:24:00     -131.640       65.943      -21.496      102.029       69.028       37.604    10409.822     4764.904     1414.031        1.936        0.829      147.233       48.294        0.108      339.969       13.664      864.639
06/14/2013  01:25:00     -140.611       79.773      -20.833       90.189       66.525       47.189     8134.067     4425.624     2226.844        2.067        0.739      161.664       32.440        0.040      339.936       13.610      864.658
06/14/2013  01:26:00     -209.934      101.525      -25.007       77.000       85.906       50.603     5928.967     7379.803     2560.686        3.543        0.793      233.194       40.584        0.030      339.943       13.619      864.654
06/14/2013  01:27:00      -69.740      117.171      -21.526       51.066       71.701       33.357     2607.746     5141.059     1112.718        1.396        0.443      136.355       20.812        0.023      339.859       13.480      864.637
06/14/2013  01:28:00     -124.692      129.798      -18.002       91.938       85.139       45.714     8452.574     7248.707     2089.730        2.525        0.890      179.988       52.042        0.084      339.867       13.492      864.630
06/14/2013  01:29:00      -91.022       81.345      -30.162       63.999       77.824       35.922     4095.815     6056.623     1290.378        1.362        0.572      122.074       21.207        0.030      339.903       13.555      864.613
06/14/2013  01:30:00      -71.087       79.522       -0.552       54.233       47.681       31.776     2941.219     2273.514     1009.685        0.880        0.311      106.663       22.875        0.046      339.833       13.438      864.590
06/14/2013  01:31:00     -119.600       -1.285      -16.085       68.937       79.348       45.377     4752.327     6296.134     2059.047        1.383        0.655      119.607       35.238        0.087      339.876       13.509      864.567
06/14/2013  01:32:00     -178.349       66.991      -27.796       96.078      103.981       49.065     9230.892    10812.077     2407.375        2.976        1.123      190.516       48.880        0.066      339.863       13.485      864.560
06/14/2013  01:33:00     -109.844      106.144      -16.701       68.050       64.188       45.323     4630.814     4120.142     2054.179        1.721        0.540      152.749       48.300        0.100      339.808       13.394      864.567
06/14/2013  01:34:00     -146.740      217.466      -52.745       77.124       86.405       46.359     5948.130     7465.761     2149.147        4.358        0.778      262.344       43.158        0.027      339.796       13.371      864.566
06/14/2013  01:35:00     -156.257      179.078      -32.693      104.855       87.251       59.498    10994.529     7612.727     3540.014        3.985        1.107      237.666       55.017        0.054      339.766       13.320      864.582
06/14/2013  01:36:00      -92.751      135.734      -17.649       46.767       86.269       40.360     2187.121     7442.268     1628.917        1.930        0.563      164.397       39.719        0.058      339.735       13.271      864.587
06/14/2013  01:37:00     -165.681      176.925      -20.538      135.645      111.350       66.787    18399.475    12398.812     4460.534        4.721        1.763      242.390       67.625        0.078      339.763       13.316      864.607
06/14/2013  01:38:00     -186.066      191.694      -33.116       98.836       96.114       59.926     9768.627     9237.895     3591.166        4.753        1.130      267.146       55.370        0.043      339.741       13.279      864.603
06/14/2013  01:39:00     -183.687      218.665      -36.880       96.346      117.066       51.795     9282.609    13704.481     2682.696        5.429        1.283      285.578       57.146        0.040      339.767       13.323      864.589
06/14/2013  01:40:00     -165.044      209.766      -41.157       76.869       74.999       42.381     5908.785     5624.860     1796.137        4.313        0.666      266.910       37.607        0.020      339.719       13.243      864.576
06/14/2013  01:41:00     -169.429      196.482      -38.125      112.710      105.716       70.311    12703.625    11175.899     4943.631        4.879        1.441      259.444       62.181        0.057      339.737       13.274      864.559
06/14/2013  01:42:00     -189.414      162.018      -33.788       89.331       98.498       54.221     7980.056     9701.926     2939.945        4.194        1.031      249.254       46.139        0.034      339.724       13.252      864.529
06/14/2013  01:43:00     -153.003      197.584      -21.029       91.983       88.982       52.180     8460.934     7917.735     2722.770        4.099        0.955      249.898       35.003        0.020      339.721       13.245      864.495
06/14/2013  01:44:00     -165.430      209.544      -26.410       94.189      114.851       54.043     8871.485    13190.744     2920.675        4.847        1.249      266.975       47.822        0.032      339.693       13.197      864.478
06/14/2013  01:45:00     -243.374      186.232      -43.517      127.432      137.023       67.776    16238.960    18775.428     4593.542        6.770        1.980      306.453       69.113        0.051      339.728       13.257      864.473
06/14/2013  01:46:00     -211.745      201.799      -41.116      107.578      128.676       64.986    11572.937    16557.450     4223.151        5.979        1.618      292.504       70.768        0.059      339.711       13.229      864.467
06/14/2013  01:47:00     -220.033      205.731      -50.378       87.882       82.915       52.159     7723.184     6874.952     2720.597        5.529        0.866      301.230       52.829        0.031      339.719       13.242      864.468
06/14/2013  01:48:00     -120.547      143.499      -15.411       69.897       84.824       42.358     4885.561     7195.161     1794.205        2.462        0.694      187.413       39.537        0.045      339.673       13.166      864.491
06/14/2013  01:49:00     -174.446      238.673      -31.731      100.150      110.155       59.619    10029.956    12134.149     3554.473        5.706        1.286      295.628       60.002        0.041      339.665       13.152      864.511
06/14/2013  01:50:00     -152.910      109.890      -27.558       61.737       76.842       38.980     3811.433     5904.682     1519.417        2.372        0.562      188.301       37.493        0.040      339.695       13.203      864.529
06/14/2013  01:51:00      -90.622      137.320      -19.300       51.649       63.787       43.711     2667.584     4068.842     1910.611        1.804        0.432      164.527       38.690        0.055      339.640       13.110      864.557
06/14/2013  01:52:00     -121.360      131.053      -29.347       58.425       65.511       36.860     3413.502     4291.696     1358.653        2.091        0.453      178.614       39.246        0.048      339.662       13.148      864.588
06/14/2013  01:53:00      -84.938      141.218       -8.715       69.552       85.106       44.626     4837.458     7243.000     1991.499        2.065        0.704      164.794       46.763        0.081      339.653       13.131      864.615
06/14/2013  01:54:00      -85.811      167.086      -14.703       48.597       60.757       41.219     2361.672     3691.451     1698.982        2.162        0.388      187.833       36.996        0.039      339.593       13.031      864.632
06/14/2013  01:55:00     -112.851      140.241      -19.129       77.404       76.812       45.357     5991.326     5900.124     2057.244        2.336        0.697      180.008       49.484        0.076      339.628       13.090      864.662
06/14/2013  01:56:00      -83.082      157.724      -14.002       71.823       75.437       35.604     5158.475     5690.713     1267.639        2.204        0.606      178.268       34.084        0.037      339.639       13.108      864.669
06/14/2013  01:57:00     -100.087      206.821      -20.855       79.822       97.540       57.074     6371.631     9514.023     3257.423        3.618        0.957      229.765       52.955        0.053      339.613       13.064      864.672
06/14/2013  01:58:00     -135.985      161.016      -25.920       58.658       68.832       38.693     3440.711     4737.885     1497.180        2.738        0.484      210.756       29.742        0.020      339.635       13.100      864.672
06/14/2013  01:59:00      -85.968      146.423      -16.481       53.753       79.142       33.522     2889.392     6263.496     1123.706        1.969        0.514      169.794       27.839        0.027      339.607       13.054      864.659
06/14/2013  02:00:00      -85.790      104.869      -12.821       51.226       61.528       33.613     2624.094     3785.678     1129.863        1.303        0.377      135.489       36.448        0.072      339.633       13.101      864.649
06/14/2013  02:01:00     -133.056      157.962      -36.813       91.223       98.093       43.265     8321.647     9622.304     1871.885        3.191        0.991      206.533       53.770        0.068      339.664       13.151      864.636
06/14/2013  02:02:00     -140.400      165.728      -40.918       65.543       62.513       38.436     4295.874     3907.843     1477.352        2.926        0.484      217.205       35.071        0.026      339.631       13.094      864.622
06/14/2013  02:03:00     -172.287      162.408      -32.394       85.793       77.644       44.233     7360.414     6028.617     1956.523        3.622        0.767      236.768       46.732        0.039      339.626       13.086      864.610
06/14/2013  02:04:00     -190.320      262.360      -48.874       61.468       93.999       45.463     3778.353     8835.832     2066.898        6.106        0.734      324.121       38.948        0.014      339.641       13.111      864.608
06/14/2013  02:05:00     -180.819      187.009      -41.506       67.746       77.706       42.249     4589.502     6038.299     1785.020        4.090        0.621      260.131       40.912        0.025      339.630       13.091      864.603
06/14/2013  02:06:00     -176.654      165.711      -45.607       70.666       67.738       38.194     4993.746     4588.445     1458.754        3.589        0.552      242.212       42.139        0.030      339.668       13.155      864.585
06/14/2013  02:07:00     -153.288      120.877      -30.517       63.572       60.976       33.672     4041.408     3718.133     1133.833        2.396        0.445      195.213       28.405        0.021      339.601       13.044      864.574
06/14/2013  02:08:00     -126.811      105.455      -14.334       94.160       68.892       45.319     8866.194     4746.148     2053.847        2.153        0.783      164.930       43.860        0.071      339.576       13.004      864.559
06/14/2013  02:09:00     -141.953      167.446      -31.553       70.180       63.832       44.074     4925.268     4074.480     1942.521        3.006        0.547      219.520       40.886        0.035      339.569       12.988      864.537
06/14/2013  02:10:00      -95.768       15.098        5.289       64.347       92.680       39.038     4140.555     8589.570     1523.996        1.184        0.713       96.951       35.776        0.136      339.601       13.046      864.513
06/14/2013  02:11:00     -168.790      158.449      -45.712       70.493       65.375       35.710     4969.266     4273.942     1275.195        3.310        0.526      231.508       38.332        0.027      339.576       13.002      864.519
06/14/2013  02:12:00     -151.222      108.039      -32.444       62.477       57.023       30.322     3903.372     3251.568      919.397        2.183        0.404      185.851       29.928        0.026      339.560       12.976      864.516
06/14/2013  02:13:00     -101.401      103.809      -10.615       59.140       61.367       40.124     3497.516     3765.920     1609.912        1.502        0.444      145.115       37.828        0.068      339.480       12.841      864.510
06/14/2013  02:14:00     -109.885      166.305      -24.922       52.301       51.590       33.191     2735.446     2661.524     1101.656        2.342        0.325      199.330       32.928        0.027      339.469       12.820      864.517
06/14/2013  02:15:00     -167.457      182.224      -43.382       62.034       85.119       33.730     3848.240     7245.286     1137.737        3.768        0.612      247.482       28.608        0.013      339.519       12.906      864.534
06/14/2013  02:16:00     -123.354      114.305      -29.655       50.017       61.913       27.970     2501.712     3833.238      782.339        1.814        0.356      168.172       32.498        0.037      339.485       12.848      864.544
06/14/2013  02:17:00     -126.879      142.936      -20.340       56.584       74.997       42.029     3201.711     5624.564     1766.451        2.377        0.530      191.126       46.335        0.059      339.504       12.881      864.553
06/14/2013  02:18:00     -106.517      102.808      -21.641       69.541       50.522       36.406     4836.011     2552.490     1325.380        1.555        0.436      148.039       26.967        0.033      339.489       12.856      864.573
06/14/2013  02:19:00      -87.541      102.692      -14.257       47.670       41.705       30.190     2272.444     1739.271      911.410        1.167        0.246      134.941       27.614        0.042      339.472       12.830      864.593
06/14/2013  02:20:00      -95.988       88.423       -7.793       49.156       72.058       35.875     2416.277     5192.296     1287.026        1.299        0.445      130.508       33.731        0.067      339.488       12.855      864.592
06/14/2013  02:21:00     -134.500      105.202      -14.391       72.359       77.609       48.425     5235.755     6023.180     2345.017        2.148        0.680      170.756       23.269        0.019      339.512       12.895      864.598
06/14/2013  02:22:00     -122.457      174.678      -32.146       65.986       71.031       46.631     4354.096     5045.407     2174.416        2.906        0.579      213.327       45.270        0.045      339.520       12.906      864.614
06/14/2013  02:23:00     -161.239      194.522      -36.985       62.635       93.428       50.976     3923.204     8728.723     2598.546        4.022        0.763      252.659       46.327        0.034      339.533       12.928      864.622
06/14/2013  02:24:00     -146.352      107.310      -27.301       57.997       55.104       31.031     3363.694     3036.468      962.905        2.052        0.368      181.478       29.473        0.026      339.527       12.918      864.621
06/14/2013  02:25:00     -131.316       97.629      -23.339       54.601       62.968       42.142     2981.302     3964.988     1775.977        1.802        0.436      163.632       36.467        0.050      339.540       12.941      864.618
06/14/2013  02:26:00     -108.570      105.926      -12.295       54.156       92.629       30.882     2932.868     8580.050      953.717        1.781        0.623      151.683       32.948        0.047      339.511       12.893      864.626
06/14/2013  02:27:00     -145.181      130.901      -25.827       61.563       70.425       41.325     3790.046     4959.673     1707.778        2.467        0.523      195.480       35.678        0.033      339.509       12.889      864.624
06/14/2013  02:28:00     -127.339       87.098      -23.041       47.843       41.344       28.528     2288.970     1709.364      813.859        1.457        0.241      154.276       21.374        0.019      339.503       12.880      864.613
06/14/2013  02:29:00     -100.839      113.878      -12.632       51.530       64.202       31.641     2655.352     4121.928     1001.173        1.554        0.389      152.107       21.490        0.020      339.430       12.757      864.611
06/14/2013  02:30:00      -71.474      140.467      -12.032       45.864       79.269       28.881     2103.503     6283.534      834.140        1.710        0.461      157.605       29.138        0.034      339.433       12.761      864.616
06/14/2013  02:31:00      -50.376      108.628      -11.453       37.967       45.101       23.102     1441.524     2034.121      533.722        0.924        0.200      119.740       14.331        0.014      339.459       12.804      864.626
06/14/2013  02:32:00      -80.389       78.292       -7.974       43.101       49.512       26.462     1857.661     2451.399      700.214        0.883        0.250      112.214       23.823        0.045      339.425       12.750      864.620
06/14/2013  02:33:00      -93.250      116.673      -24.271       39.719       47.311       26.908     1577.586     2238.290      724.016        1.372        0.227      149.359       24.873        0.028      339.413       12.729      864.617
06/14/2013  02:34:00     -107.814      107.238      -26.072       74.080       45.788       32.578     5487.834     2096.579     1061.356        1.622        0.432      152.065       20.586        0.018      339.430       12.755      864.635
06/14/2013  02:35:00      -93.460      119.803      -31.468       44.869       37.299       25.571     2013.240     1391.218      653.896        1.407        0.203      151.946       22.598        0.022      339.405       12.716      864.649
06/14/2013  02:36:00     -122.605      132.556      -28.922       51.296       48.442       27.892     2631.243     2346.586      777.972        1.960        0.288      180.563       29.218        0.026      339.385       12.680      864.661
06/14/2013  02:37:00     -114.278      104.799      -20.038       52.052       53.810       30.095     2709.374     2895.474      905.715        1.548        0.326      155.056       28.302        0.033      339.365       12.648      864.674
06/14/2013  02:38:00      -59.059       72.697       -4.521       41.532       43.472       38.199     1724.909     1889.796     1459.128        0.693        0.254       93.663       35.860        0.147      339.306       12.550      864.698
06/14/2013  02:39:00      -60.931       39.810      -16.002       29.053       30.498       15.803      844.051      930.128      249.747        0.379        0.101       72.784       13.055        0.032      339.358       12.638      864.701
06/14/2013  02:40:00     -114.756       89.173      -27.638       38.064       58.948       22.279     1448.846     3474.843      496.360        1.365        0.271      145.330       25.798        0.032      339.373       12.661      864.703
06/14/2013  02:41:00     -127.446      135.667      -35.438       40.724       79.053       35.377     1658.441     6249.339     1251.523        2.253        0.458      186.140       35.865        0.037      339.351       12.622      864.699
06/14/2013  02:42:00     -110.040       73.840      -16.713       48.853       45.654       32.012     2386.657     2084.314     1024.764        1.167        0.275      132.519       31.706        0.057      339.276       12.498      864.685
06/14/2013  02:43:00     -105.233      135.749      -32.677       60.957       50.186       29.701     3715.801     2518.638      882.155        1.884        0.356      171.761       31.353        0.033      339.335       12.596      864.676
06/14/2013  02:44:00     -128.824       99.526      -27.127       54.701       38.878       28.534     2992.183     1511.488      814.178        1.628        0.266      162.791       23.047        0.020      339.343       12.610      864.669
06/14/2013  02:45:00     -125.637      118.014      -19.209       52.600       62.924       33.344     2766.788     3959.411     1111.848        1.896        0.392      172.372       22.006        0.016      339.302       12.542      864.667
06/14/2013  02:46:00     -155.057      183.301      -37.757       50.528       67.336       39.885     2553.096     4534.170     1590.822        3.387        0.434      240.088       39.876        0.028      339.340       12.603      864.679
06/14/2013  02:47:00     -198.577      170.566      -46.596       57.881       68.327       36.962     3350.258     4668.643     1366.177        4.004        0.469      261.774       37.548        0.021      339.353       12.624      864.694
06/14/2013  02:48:00      -71.551       84.527       -0.042       53.208       42.408       37.431     2831.138     1798.418     1401.101        0.915        0.302      110.745       25.866        0.055      339.246       12.446      864.701
06/14/2013  02:49:00      -89.237      129.231      -15.596       47.941       78.915       37.427     2298.310     6227.582     1400.743        1.741        0.496      157.048       32.578        0.043      339.266       12.480      864.722
06/14/2013  02:50:00     -122.065      116.813      -30.075       58.768       59.323       34.380     3453.682     3519.181     1181.981        1.880        0.408      168.953       29.813        0.031      339.312       12.558      864.721
06/14/2013  02:51:00      -60.088       96.781      -11.297       44.887       53.634       31.107     2014.807     2876.598      967.647        0.948        0.293      113.917       22.762        0.040      339.247       12.449      864.713
06/14/2013  02:52:00     -125.637       45.876      -15.645       59.947       47.271       34.479     3593.642     2234.553     1188.814        1.257        0.351      133.751       30.163        0.051      339.245       12.444      864.696
06/14/2013  02:53:00      -86.325      140.745      -23.155       45.975       55.247       31.360     2113.725     3052.184      983.457        1.697        0.307      165.109       23.667        0.021      339.174       12.325      864.694
06/14/2013  02:54:00     -104.208      172.073      -33.640       72.542       73.673       28.738     5262.304     5427.777      825.897        2.656        0.576      201.168       33.256        0.027      339.198       12.364      864.675
06/14/2013  02:55:00     -105.655      126.226      -16.352       44.420       78.292       40.051     1973.118     6129.633     1604.120        1.853        0.485      164.609       28.133        0.029      339.153       12.290      864.676
06/14/2013  02:56:00     -108.810      110.541      -12.849       80.985       57.888       37.215     6558.531     3350.963     1384.975        1.776        0.565      155.110       33.394        0.046      339.140       12.270      864.695
06/14/2013  02:57:00     -104.283       68.799      -14.953       43.429       72.776       25.660     1886.115     5296.281      658.422        1.183        0.392      124.933       24.556        0.039      339.139       12.268      864.702
06/14/2013  02:58:00      -72.460       74.574      -12.960       38.591       45.181       28.814     1489.259     2041.351      830.246        0.767        0.218      103.980       25.117        0.058      339.101       12.203      864.723
06/14/2013  02:59:00     -105.961       74.925      -16.415       70.947       46.169       24.703     5033.437     2131.547      610.217        1.244        0.389      129.775       18.360        0.020      339.090       12.185      864.741
06/14/2013  03:00:00     -121.542       82.657      -19.606       55.044       46.698       28.362     3029.832     2180.716      804.380        1.400        0.301      146.986       18.237        0.015      339.056       12.128      864.758
06/14/2013  03:01:00     -116.378      168.145      -29.921       58.273       67.070       29.506     3395.796     4498.337      870.609        2.574        0.438      204.492       25.311        0.015      339.137       12.262      864.767
06/14/2013  03:02:00     -157.275       90.912      -29.169       44.721       74.463       32.404     1999.943     5544.797     1050.043        2.122        0.430      181.660       28.705        0.025      339.115       12.224      864.771
06/14/2013  03:03:00     -131.738      185.205      -45.022       43.408       55.038       27.385     1884.297     3029.227      749.940        2.967        0.283      227.279       22.584        0.010      339.118       12.228      864.764
06/14/2013  03:04:00     -127.076      104.460      -24.977       34.882       58.035       27.142     1216.727     3368.108      736.697        1.650        0.266      164.500       22.898        0.019      339.092       12.187      864.737
06/14/2013  03:05:00     -137.802      101.346      -22.461       57.899       47.275       27.174     3352.245     2234.954      738.403        1.804        0.316      171.057       23.689        0.019      339.067       12.146      864.689
06/14/2013  03:06:00     -160.620       89.882      -18.564       80.098       57.897       37.572     6415.762     3352.097     1411.626        2.270        0.559      184.058       38.359        0.043      339.064       12.139      864.644
06/14/2013  03:07:00     -144.576      144.101      -30.795       45.804       52.815       30.244     2098.039     2789.376      914.700        2.421        0.290      204.126       26.702        0.017      339.055       12.124      864.591
06/14/2013  03:08:00     -123.858       94.057      -28.885       37.157       35.579       28.392     1380.678     1265.843      806.086        1.424        0.173      155.523       21.095        0.018      339.075       12.160      864.560
06/14/2013  03:09:00     -107.955      118.026      -22.070       46.633       65.894       30.422     2174.617     4342.016      925.498        1.676        0.372      159.952       32.692        0.042      339.059       12.131      864.551
06/14/2013  03:10:00      -61.801       84.839      -10.288       22.783       36.992       25.333      519.048     1368.422      641.752        0.683        0.126      104.962       17.276        0.027      339.104       12.209      864.553
06/14/2013  03:11:00      -68.811       56.266       -7.342       27.733       33.937       24.695      769.136     1151.737      609.829        0.524        0.127       88.886       14.169        0.025      339.105       12.211      864.580
06/14/2013  03:12:00      -16.662       16.824        0.289       25.907       16.811       14.423      671.173      282.613      208.034        0.086        0.058       23.678       10.121        0.183      339.091       12.185      864.622
06/14/2013  03:13:00        7.246       26.946       -4.676       30.642       34.753       20.156      938.946     1207.772      406.248        0.168        0.128       27.903       23.046        0.682      339.080       12.168      864.670
06/14/2013  03:14:00        1.413       89.695       -5.986       34.822       35.392       27.100     1212.599     1252.612      734.419        0.564        0.160       89.706       23.518        0.069      339.032       12.088      864.701
06/14/2013  03:15:00      -69.171      139.756      -16.321       29.612       43.447       26.846      876.854     1887.624      720.697        1.403        0.174      155.937       19.605        0.016      339.020       12.067      864.730
06/14/2013  03:16:00      -33.193       95.656      -16.622       23.702       31.691       19.189      561.774     1004.331      368.216        0.623        0.097      101.251       10.961        0.012      339.046       12.111      864.743
06/14/2013  03:17:00      -97.647       85.437      -26.451       37.037       47.143       18.898     1371.708     2222.470      357.147        1.074        0.198      129.747       20.377        0.025      339.069       12.149      864.733
06/14/2013  03:18:00     -107.923       62.568      -14.581       44.165       26.023       24.707     1950.507      677.201      610.442        0.951        0.162      124.748       15.298        0.015      339.010       12.050      864.719
06/14/2013  03:19:00     -140.922       79.181      -24.364       54.008       43.838       31.616     2916.914     1921.750      999.579        1.628        0.292      161.644       23.805        0.022      339.031       12.086      864.696
06/14/2013  03:20:00      -89.346      111.206      -18.874       56.362       96.082       36.589     3176.703     9231.777     1338.787        1.722        0.687      142.652       43.066        0.091      338.980       12.000      864.662
06/14/2013  03:21:00     -146.932      129.118      -30.348       34.523       53.368       27.100     1191.868     2848.193      734.424        2.198        0.239      195.602       21.485        0.012      338.971       11.984      864.622
06/14/2013  03:22:00     -113.848      118.392      -22.995       31.946       54.131       26.321     1020.574     2930.190      692.791        1.607        0.232      164.250       18.854        0.013      338.929       11.914      864.595
06/14/2013  03:23:00     -106.654      104.772      -16.369       63.825       67.419       38.010     4073.569     4545.293     1444.753        1.634        0.503      149.507       30.901        0.043      338.957       11.960      864.591
06/14/2013  03:24:00      -75.404       62.318      -12.353       55.986       45.241       29.645     3134.424     2046.725      878.838        0.789        0.303       97.823       28.234        0.083      338.966       11.977      864.613
06/14/2013  03:25:00      -95.854      198.619      -16.965       56.969       86.374       36.569     3245.428     7460.529     1337.309        3.048        0.602      220.539       39.558        0.032      338.934       11.920      864.645
06/14/2013  03:26:00      -92.909      168.790      -12.795       49.330       51.631       32.907     2433.475     2665.750     1082.889        2.173        0.309      192.671       23.794        0.015      338.938       11.928      864.677
06/14/2013  03:27:00      -38.081       72.065       -2.094       30.612       36.953       19.183      937.118     1365.490      367.994        0.466        0.134       81.508       13.394        0.027      338.897       11.861      864.704
06/14/2013  03:28:00      -48.027       92.892      -10.253       28.078       36.704       24.551      788.383     1347.155      602.751        0.689        0.137      104.573       17.168        0.027      338.891       11.851      864.720
06/14/2013  03:29:00       -7.865        2.344        1.141       24.150       23.081       13.458      583.233      532.744      181.120        0.068        0.065        8.207        6.281        0.586      338.853       11.786      864.725
06/14/2013  03:30:00       -7.130       21.859       -2.490       23.963       17.939       12.100      574.208      321.795      146.412        0.079        0.052       22.993        8.301        0.130      338.956       11.961      864.726
06/14/2013  03:31:00      -48.155       -3.414       -8.737       25.044       15.738       14.372      627.201      247.700      206.549        0.174        0.054       48.276       13.178        0.075      339.021       12.068      864.706
06/14/2013  03:32:00      -61.280      -18.487       -6.235       20.382       23.591        9.862      415.417      556.516       97.260        0.260        0.053       64.008        6.895        0.012      339.077       12.164      864.688
06/14/2013  03:33:00      -22.273      -21.837       -1.556       23.398       16.367        9.715      547.443      267.881       94.375        0.094        0.045       31.192        9.329        0.089      339.073       12.155      864.677
06/14/2013  03:34:00       17.611        5.693       17.485       12.919       11.002       13.195      166.911      121.044      174.113        0.056        0.023       18.508        8.292        0.201      338.859       11.797      864.682
06/14/2013  03:35:00       26.984       24.231       14.859       22.734       25.872       15.536      516.839      669.364      241.362        0.148        0.071       36.267       14.380        0.157      338.909       11.881      864.704
06/14/2013  03:36:00      -38.700       21.198       13.725       37.656       46.678       21.094     1417.992     2178.855      444.954        0.309        0.202       44.125       22.704        0.265      338.934       11.923      864.717
06/14/2013  03:37:00        5.253       -8.323       25.543       21.175       25.982       21.482      448.377      675.055      461.460        0.117        0.079        9.842       20.084        4.164      338.821       11.733      864.724
06/14/2013  03:38:00        2.272       41.669        3.761       21.322       18.939       11.229      454.637      358.676      126.084        0.135        0.047       41.730        7.461        0.032      338.821       11.734      864.734
06/14/2013  03:39:00       -5.921       28.655       -5.636       36.794       61.745       33.799     1353.787     3812.483     1142.366        0.360        0.315       29.260       25.574        0.764      338.897       11.861      864.733
06/14/2013  03:40:00      -80.961       16.985       -8.411       30.476       44.272       19.472      928.762     1960.034      379.167        0.509        0.163       82.723       18.666        0.051      338.869       11.815      864.733
06/14/2013  03:41:00      -50.392       40.445       -8.567       29.518       26.206       18.059      871.329      686.729      326.119        0.307        0.094       64.616       15.837        0.060      338.866       11.810      864.736
06/14/2013  03:42:00      -59.326      -13.053       -8.902       36.781       20.460       17.922     1352.850      418.623      321.183        0.293        0.105       60.745       18.217        0.090      338.868       11.811      864.741
06/14/2013  03:43:00      -44.172       28.637      -14.494       29.647       26.332        8.676      878.952      693.382       75.268        0.231        0.082       52.643        7.555        0.021      338.843       11.770      864.747
06/14/2013  03:44:00       -9.576       63.427      -11.295       31.894       40.871       13.343     1017.235     1670.463      178.029        0.355        0.143       64.146       18.213        0.081      338.841       11.766      864.758
06/14/2013  03:45:00       13.073       23.279       11.383       17.596       19.906       18.720      309.630      396.239      350.454        0.095        0.053       26.698       14.052        0.277      338.731       11.581      864.768
06/14/2013  03:46:00        2.049       -1.846       -4.334       23.263       18.285       10.555      541.154      334.343      111.403        0.051        0.049        2.758        6.615        5.753      338.792       11.684      864.777
06/14/2013  03:47:00       10.677        5.980       18.206       30.150       23.315       23.528      908.995      543.584      553.571        0.124        0.100       12.237       24.075        3.870      338.648       11.442      864.774
06/14/2013  03:48:00        4.132       10.954       22.551       16.741       27.672       15.886      280.274      765.732      252.373        0.097        0.065       11.707       16.168        1.907      338.593       11.349      864.777
06/14/2013  03:49:00       17.616       26.515        3.068       12.351       11.301        8.310      152.537      127.722       69.050        0.069        0.017       31.833        3.468        0.012      338.647       11.440      864.771
06/14/2013  03:50:00        5.827        2.526       -1.679        6.626        6.319        5.282       43.903       39.935       27.903        0.008        0.006        6.351        3.087        0.236      338.599       11.358      864.773
06/14/2013  03:51:00      -12.355        5.696       -3.014       11.081       10.281        9.978      122.781      105.704       99.558        0.026        0.016       13.605        8.560        0.396      338.722       11.567      864.762
06/14/2013  03:52:00      -18.332       16.206       -0.661       13.959        9.998       12.133      194.866       99.967      147.203        0.052        0.022       24.468        6.082        0.062      338.818       11.728      864.757
06/14/2013  03:53:00        0.834       17.644        5.373       14.439       10.870       16.559      208.483      118.149      274.216        0.047        0.030       17.664       13.291        0.566      338.817       11.725      864.762
06/14/2013  03:54:00       18.888       25.115       14.233       13.586       13.653       10.081      184.587      186.400      101.618        0.083        0.024       31.425        4.599        0.021      338.754       11.621      864.766
06/14/2013  03:55:00        9.289        9.380       21.073       19.637       13.850        8.931      385.598      191.814       79.754        0.064        0.033       13.201        7.607        0.332      338.610       11.378      864.775
06/14/2013  03:56:00      -37.406       37.479       -3.027       17.424       24.923        9.185      303.584      621.155       84.359        0.191        0.050       52.952       10.397        0.039      338.682       11.499      864.778
06/14/2013  03:57:00      -33.877       23.346       -7.769       11.774       13.786        5.838      138.625      190.054       34.077        0.106        0.018       41.142        4.599        0.012      338.731       11.583      864.792
06/14/2013  03:58:00       -5.508        7.101        8.030       14.005        6.693        6.959      196.149       44.800       48.428        0.022        0.014        8.987        5.074        0.319      338.632       11.416      864.805
06/14/2013  03:59:00       47.288       28.028        2.122       11.282       19.692        8.697      127.283      387.768       75.634        0.181        0.030       54.970        8.091        0.022      338.719       11.562      864.830
06/14/2013  04:00:00       72.342       37.611       -0.944       31.799       17.951       13.690     1011.168      322.233      187.409        0.408        0.076       81.535        4.796        0.003      338.561       11.296      864.859
06/14/2013  04:01:00      101.157       38.863        3.934       15.914       15.357       19.129      253.253      235.824      365.910        0.631        0.043      108.366       12.480        0.013      338.679       11.494      864.882
06/14/2013  04:02:00       60.395       28.071        5.553       24.073       26.194       15.871      579.525      686.122      251.900        0.299        0.076       66.599        8.123        0.015      338.628       11.409      864.884
06/14/2013  04:03:00       10.883       41.235       16.419       16.706       31.462       18.777      279.080      989.869      352.584        0.185        0.081       42.647       18.582        0.190      338.577       11.322      864.888
06/14/2013  04:04:00        7.368       74.348       -3.284        7.967       25.081       10.478       63.468      629.037      109.779        0.320        0.040       74.713       10.145        0.018      338.602       11.366      864.885
06/14/2013  04:05:00        2.283       44.833        7.112       19.002       23.253       14.944      361.086      540.703      223.327        0.160        0.056       44.891        7.421        0.027      338.537       11.256      864.867
06/14/2013  04:06:00      -41.659       38.227      -11.913       13.287       22.884       12.866      176.543      523.683      165.522        0.210        0.043       56.540       10.560        0.035      338.561       11.297      864.838
06/14/2013  04:07:00      -72.930       55.058      -13.264       31.729       25.929       15.960     1006.698      672.304      254.707        0.523        0.097       91.379       14.774        0.026      338.588       11.342      864.813
06/14/2013  04:08:00      -62.146       30.897       -9.832       17.390       28.425       17.091      302.412      807.991      292.104        0.316        0.070       69.403        9.510        0.019      338.519       11.224      864.797
06/14/2013  04:09:00      -90.054      -20.522       -9.369       13.145       16.768        8.745      172.793      281.173       76.471        0.457        0.027       92.362        6.492        0.005      338.506       11.204      864.781
06/14/2013  04:10:00      -30.825      -36.320        6.494       31.632       16.042       15.236     1000.557      257.350      232.140        0.190        0.075       47.637       16.907        0.126      338.532       11.247      864.786
06/14/2013  04:11:00      -11.642      -19.839        7.193       19.098       14.236       10.826      364.733      202.654      117.213        0.063        0.034       23.003        8.683        0.143      338.558       11.292      864.797
06/14/2013  04:12:00       12.873       11.301        8.828        5.217        7.850        6.813       27.217       61.620       46.424        0.025        0.007       17.130        3.740        0.048      338.412       11.045      864.813
06/14/2013  04:13:00       22.260       16.985        4.814        7.808        9.700        7.230       60.960       94.084       52.269        0.051        0.010       28.000        2.191        0.006      338.457       11.119      864.838
06/14/2013  04:14:00       24.649       29.261        1.379        9.260        7.518        5.514       85.754       56.519       30.409        0.082        0.009       38.260        3.438        0.008      338.461       11.127      864.858
06/14/2013  04:15:00        7.773       10.915       -5.025        8.138       14.289        3.761       66.220      204.164       14.143        0.024        0.014       13.400        4.593        0.117      338.501       11.195      864.864
06/14/2013  04:16:00        2.960      -45.286      -15.036       16.608       17.384       10.108      275.825      302.210      102.179        0.148        0.034       45.382        7.526        0.028      338.604       11.369      864.857
06/14/2013  04:17:00       -6.290      -50.774       -5.387       14.764       24.150       13.601      217.965      583.227      184.991        0.182        0.049       51.162        5.124        0.010      338.592       11.348      864.848
06/14/2013  04:18:00       -5.919      -35.662       -3.121       15.723       23.878       14.559      247.209      570.140      211.978        0.117        0.051       36.150       11.379        0.099      338.579       11.326      864.837
06/14/2013  04:19:00       -1.991       -9.946       13.634       17.427       16.611       13.257      303.698      275.913      175.754        0.052        0.038       10.143       11.172        1.213      338.421       11.061      864.823
06/14/2013  04:20:00       -3.734      -10.851        3.780        9.873       12.310       10.513       97.480      151.532      110.516        0.025        0.018       11.475        7.356        0.411      338.421       11.062      864.826
06/14/2013  04:21:00       -3.994      -13.836        5.646        9.377       10.368       12.212       87.921      107.486      149.136        0.029        0.017       14.401        8.726        0.367      338.409       11.041      864.829
06/14/2013  04:22:00       -0.600      -20.880       -3.045        7.813       13.765        7.314       61.043      189.487       53.496        0.037        0.015       20.888        8.745        0.175      338.409       11.042      864.842
06/14/2013  04:23:00       -6.915      -16.435      -11.113       10.595       15.103        7.452      112.255      228.106       55.534        0.042        0.020       17.830        3.181        0.032      338.342       10.929      864.858
06/14/2013  04:24:00      -20.077       -3.248        2.921       17.635       16.236        9.805      310.987      263.598       96.141        0.055        0.034       20.338       12.431        0.374      338.350       10.942      864.877
06/14/2013  04:25:00      -42.941      -26.591       -2.397       29.552       18.760       10.226      873.314      351.936      104.573        0.194        0.066       50.507       10.534        0.043      338.352       10.944      864.886
06/14/2013  04:26:00      -52.877      -30.380        1.178       26.932       12.236       10.093      725.339      149.728      101.862        0.235        0.049       60.983        9.528        0.024      338.269       10.806      864.885
06/14/2013  04:27:00      -61.129       -6.490       -4.932       11.832       13.312        8.865      140.005      177.206       78.580        0.210        0.020       61.473        5.011        0.007      338.315       10.883      864.879
06/14/2013  04:28:00      -58.630      -19.920       -8.061        8.454       10.888        6.932       71.466      118.551       48.054        0.207        0.012       61.922        4.288        0.005      338.380       10.991      864.862
06/14/2013  04:29:00      -35.947       -6.968      -12.056       18.597        9.187        6.434      345.848       84.395       41.393        0.098        0.024       36.616        4.691        0.016      338.391       11.010      864.863
06/14/2013  04:30:00       10.122      -10.850        9.197       13.208       23.582       15.088      174.440      556.125      227.662        0.063        0.048       14.839       16.069        1.173      338.409       11.040      864.868
06/14/2013  04:31:00      -43.955       32.349       -9.681       17.097       21.239       12.840      292.323      451.099      164.871        0.199        0.045       54.576       14.538        0.071      338.351       10.943      864.879
06/14/2013  04:32:00       19.733       24.729       -3.010       25.084       11.101       12.343      629.209      123.235      152.344        0.096        0.045       31.637       11.557        0.133      338.347       10.937      864.888
06/14/2013  04:33:00       24.203       15.313       -1.404       26.213       19.507       16.815      687.130      380.538      282.748        0.109        0.068       28.640       15.403        0.289      338.415       11.052      864.894
06/14/2013  04:34:00       25.180       25.766        0.984       17.190       19.449        9.282      295.489      378.268       86.159        0.103        0.038       36.027       11.447        0.101      338.285       10.832      864.897
06/14/2013  04:35:00       17.088       22.612        0.172       12.923       13.459        9.433      167.006      181.131       88.974        0.062        0.022       28.343        7.981        0.079      338.148       10.602      864.896
06/14/2013  04:36:00        7.628       58.432       -9.908       11.841       24.684       13.301      140.204      609.282      176.925        0.225        0.046       58.928       14.919        0.064      338.104       10.529      864.891
06/14/2013  04:37:00       -4.451      115.331      -15.446        9.472       20.474        7.274       89.726      419.190       52.905        0.706        0.028      115.416        5.278        0.002      338.350       10.942      864.882
06/14/2013  04:38:00       -1.038      108.845      -16.971       14.589       14.034        6.441      212.849      196.961       41.489        0.629        0.023      108.850        2.999        0.001      338.342       10.928      864.877
06/14/2013  04:39:00       -7.556       93.982      -11.927       19.493       16.196       12.566      379.989      262.324      157.907        0.492        0.040       94.286        1.247        0.000      338.321       10.893      864.867
06/14/2013  04:40:00      -30.326       67.556       -6.926       28.441       26.316       13.745      808.917      692.547      188.938        0.361        0.085       74.050       11.641        0.025      338.339       10.924      864.860
06/14/2013  04:41:00       -3.946       85.892      -11.401       12.330       21.140       10.533      152.024      446.886      110.942        0.412        0.035       85.982        5.750        0.004      338.297       10.853      864.861
06/14/2013  04:42:00      -21.442       50.222       -0.400       24.570       27.916       16.577      603.702      779.280      274.810        0.232        0.083       54.608        8.271        0.023      338.160       10.622      864.864
06/14/2013  04:43:00      -20.251       -2.592       -4.539       11.968       20.141        9.944      143.243      405.653       98.875        0.054        0.032       20.416       10.549        0.267      338.198       10.685      864.866
06/14/2013  04:44:00       -7.862      -15.946       -3.650       27.411       17.254       10.049      751.343      297.705      100.992        0.074        0.058       17.779        7.642        0.185      338.271       10.809      864.870
06/14/2013  04:45:00       -1.104      -14.140       -3.771       11.104       13.562       11.227      123.297      183.919      126.042        0.032        0.022       14.183       10.268        0.524      338.240       10.756      864.877
06/14/2013  04:46:00        5.142      -13.289       -3.083        8.041       11.502        6.911       64.659      132.291       47.761        0.023        0.012       14.249        3.878        0.074      338.287       10.835      864.884
06/14/2013  04:47:00       -9.890      -25.307       -3.896       13.210       14.837        9.548      174.511      220.137       91.172        0.062        0.024       27.171        2.667        0.010      338.290       10.841      864.889
06/14/2013  04:48:00      -40.466      -23.920        0.009       25.299       15.548       12.752      640.052      241.751      162.621        0.163        0.052       47.007        4.912        0.011      338.302       10.862      864.892
06/14/2013  04:49:00      -37.166      -26.184        7.247       36.793       15.374       14.654     1353.750      236.355      214.726        0.196        0.090       45.464       15.646        0.118      338.293       10.846      864.891
06/14/2013  04:50:00      -58.549      -58.381       -1.436       45.444       34.019       21.034     2065.190     1157.321      442.420        0.525        0.183       82.682       16.607        0.040      338.131       10.574      864.898
06/14/2013  04:51:00      -69.230      -43.858       -8.517       39.266       25.198       21.036     1541.823      634.940      442.534        0.470        0.131       81.953       17.076        0.043      337.993       10.344      864.905
06/14/2013  04:52:00     -123.868      -65.647       -0.751       50.705       34.171       22.778     2570.948     1167.638      518.858        1.195        0.213      140.189       24.060        0.029      337.859       10.117      864.903
06/14/2013  04:53:00      -96.177      -56.937        3.089       46.927       33.205       24.791     2202.121     1102.569      614.618        0.821        0.196      111.766       24.674        0.049      337.790       10.002      864.891
06/14/2013  04:54:00      -74.872      -75.132       -4.326       39.423       36.803       22.278     1554.175     1354.452      496.305        0.734        0.170      106.069       20.251        0.036      337.825       10.060      864.868
06/14/2013  04:55:00      -74.362      -44.738       -7.133       23.046       22.872       13.496      531.134      523.146      182.140        0.441        0.062       86.783        8.774        0.010      337.874       10.143      864.841
06/14/2013  04:56:00      -64.803      -35.974      -11.406       17.143       18.163       10.638      293.875      329.887      113.157        0.318        0.037       74.119        5.509        0.006      337.922       10.223      864.808
06/14/2013  04:57:00      -65.510      -33.774       -8.685       34.528       14.323        8.702     1192.150      205.139       75.727        0.349        0.074       73.704        7.759        0.011      337.941       10.257      864.787
06/14/2013  04:58:00      -28.185      -39.542       -3.481       14.013       16.505       13.582      196.375      272.417      184.463        0.151        0.033       48.559        7.435        0.023      337.949       10.269      864.796
06/14/2013  04:59:00        3.721      -13.643        5.182       14.462       11.588       11.680      209.147      134.271      136.415        0.035        0.024       14.141        7.576        0.287      337.984       10.329      864.813
06/14/2013  05:00:00      -23.107       15.765        1.275       18.921       14.160       10.081      358.007      200.494      101.619        0.072        0.033       27.973       11.019        0.155      337.900       10.188      864.840
06/14/2013  05:01:00      -55.187       13.010       -6.000       17.561       14.165       12.127      308.394      200.642      147.055        0.195        0.033       56.700        8.506        0.023      337.741        9.918      864.856
06/14/2013  05:02:00      -89.539       -6.474       -7.775       16.473       12.527        8.778      271.375      156.937       77.053        0.431        0.025       89.773        4.886        0.003      337.838       10.084      864.860
06/14/2013  05:03:00      -76.353      -17.233       -8.092       12.044        9.474        8.046      145.067       89.755       64.734        0.325        0.015       78.273        2.875        0.001      338.024       10.395      864.857
06/14/2013  05:04:00      -58.803      -31.531        3.283       31.797       17.756       13.536     1011.020      315.264      183.212        0.299        0.075       66.723       10.852        0.026      337.971       10.306      864.857
06/14/2013  05:05:00      -81.965      -38.273       -2.786       35.695       15.999        9.659     1274.099      255.957       93.287        0.491        0.081       90.460       12.350        0.019      337.916       10.213      864.838
06/14/2013  05:06:00      -37.402       -7.661       -4.234       41.796       17.835       14.853     1746.892      318.096      220.618        0.188        0.114       38.178       22.443        0.346      337.846       10.096      864.820
06/14/2013  05:07:00      -90.400      -29.676       -9.357       42.951       33.132       13.946     1844.781     1097.699      194.479        0.614        0.157       95.146        6.443        0.005      337.785        9.993      864.821
06/14/2013  05:08:00      -12.032      -30.662        4.456       20.543       24.207       16.537      422.005      585.996      273.483        0.119        0.064       32.938       15.676        0.226      337.827       10.064      864.832
06/14/2013  05:09:00      -40.974      -13.188       -1.021       20.889       24.381       12.982      436.354      594.455      168.521        0.153        0.060       43.044        9.431        0.048      337.925       10.229      864.844
06/14/2013  05:10:00      -33.474      -12.139       -2.429       14.759       13.183       11.388      217.827      173.786      129.681        0.090        0.026       35.607       10.448        0.086      337.788        9.998      864.858
06/14/2013  05:11:00      -13.036       -6.771       -3.812        5.579        8.486        4.979       31.124       72.007       24.795        0.018        0.006       14.689        2.688        0.033      337.754        9.939      864.885
06/14/2013  05:12:00       -6.084      -11.181       -4.656        7.511        7.618        4.983       56.421       58.039       24.830        0.016        0.007       12.729        1.670        0.017      337.857       10.115      864.901
06/14/2013  05:13:00       -0.932      -17.042       -0.384        5.268        6.805        5.862       27.756       46.302       34.364        0.020        0.005       17.067        3.830        0.050      337.997       10.351      864.915
06/14/2013  05:14:00      -34.317      -12.640        0.400       20.805       13.448        8.225      432.863      180.849       67.652        0.101        0.034       36.571        7.842        0.046      337.949       10.270      864.922
06/14/2013  05:15:00      -52.323      -19.213      -10.872       12.708       17.875        9.259      161.498      319.522       85.735        0.190        0.028       55.739        7.007        0.016      337.908       10.199      864.921
06/14/2013  05:16:00       -1.903      -19.699       14.948       30.554       12.737       13.278      933.520      162.239      176.315        0.094        0.064       19.791       17.654        0.796      337.845       10.094      864.901
06/14/2013  05:17:00      -12.285      -17.896       -4.057       20.966       12.934       11.887      439.567      167.286      141.296        0.062        0.037       21.707        8.978        0.171      337.814       10.043      864.886
06/14/2013  05:18:00      -10.935      -27.689        1.095       15.037       14.473       14.149      226.098      209.468      200.191        0.076        0.032       29.770        8.496        0.081      337.862       10.124      864.890
06/14/2013  05:19:00       -3.628      -44.466        9.810       26.870       43.235       23.396      721.976     1869.305      547.370        0.261        0.157       44.614        6.647        0.022      337.872       10.139      864.898
06/14/2013  05:20:00        6.988      -51.643       -7.754       20.104       35.892       27.283      404.186     1288.262      744.378        0.261        0.122       52.114       14.796        0.081      337.999       10.353      864.891
06/14/2013  05:21:00      -14.838      -23.129       11.982       16.622       25.406       13.095      276.302      645.459      171.468        0.100        0.055       27.479        9.355        0.116      337.966       10.297      864.892
06/14/2013  05:22:00      -47.287       -7.265       -4.689       16.691       12.716        8.356      278.593      161.698       69.818        0.141        0.026       47.842        7.321        0.023      337.929       10.236      864.901
06/14/2013  05:23:00      -48.243       -7.863       -5.284        9.445       11.176        8.014       89.216      124.901       64.217        0.135        0.014       48.879        5.577        0.013      337.878       10.149      864.905
06/14/2013  05:24:00      -42.551       -5.387       -2.413       10.756       10.705        9.078      115.686      114.596       82.414        0.108        0.016       42.890        7.056        0.027      337.881       10.155      864.925
06/14/2013  05:25:00      -35.690        5.963       -6.101        9.412        7.688        4.686       88.581       59.109       21.960        0.076        0.008       36.184        2.494        0.005      337.883       10.157      864.949
06/14/2013  05:26:00      -46.690       -4.235       -9.721        8.179        6.878        6.878       66.896       47.307       47.304        0.123        0.008       46.882        1.602        0.001      337.929       10.237      864.953
06/14/2013  05:27:00      -45.241       -0.368       -8.409       10.003        7.236        6.685      100.068       52.362       44.693        0.116        0.010       45.243        4.522        0.010      337.921       10.220      864.952
06/14/2013  05:28:00      -54.556      -11.592       -8.596       12.036        7.901        6.973      144.870       62.431       48.620        0.172        0.013       55.774        4.207        0.006      337.932       10.240      864.936
06/14/2013  05:29:00      -70.272      -14.310       -8.134        8.340       11.293        8.605       69.560      127.524       74.053        0.274        0.014       71.714        5.049        0.005      337.869       10.134      864.918
06/14/2013  05:30:00      -82.002       -4.881      -11.685       13.541       11.189        7.425      183.362      125.185       55.131        0.362        0.018       82.147        5.194        0.004      337.807       10.030      864.916
06/14/2013  05:31:00      -81.295       -7.369       -9.337       21.151       12.674       11.044      447.359      160.640      121.979        0.374        0.036       81.629        9.369        0.013      337.688        9.830      864.918
06/14/2013  05:32:00      -47.508       -9.824      -11.415       21.732       10.413        9.167      472.296      108.433       84.034        0.157        0.033       48.513       11.174        0.053      337.649        9.764      864.916
06/14/2013  05:33:00      -27.349      -19.010       -8.557       17.049       14.137       10.798      290.665      199.866      116.588        0.089        0.030       33.307        5.942        0.032      337.814       10.042      864.919
06/14/2013  05:34:00      -51.771      -16.992      -11.650       14.671        9.997       10.041      215.232       99.947      100.817        0.176        0.021       54.489        6.609        0.015      337.770        9.968      864.919
06/14/2013  05:35:00      -43.389      -21.854       -2.979       16.679       16.273        8.902      278.180      264.821       79.245        0.150        0.031       48.582        4.561        0.009      337.843       10.091      864.919
06/14/2013  05:36:00      -22.874      -20.459       -4.628       16.856       19.466       11.752      284.130      378.934      138.102        0.088        0.040       30.688        8.010        0.068      337.849       10.100      864.919
06/14/2013  05:37:00      -16.408      -14.377       -3.083       18.792       20.241       10.550      353.138      409.692      111.309        0.068        0.044       21.815        9.398        0.186      337.909       10.202      864.922
06/14/2013  05:38:00      -24.648       -5.096       -5.900       18.432       23.102       11.078      339.722      533.716      122.712        0.083        0.050       25.170       13.497        0.288      337.955       10.279      864.913
06/14/2013  05:39:00      -39.259       11.726       -5.883       23.985       28.493       21.496      575.288      811.863      462.069        0.178        0.092       40.973       16.506        0.162      338.106       10.533      864.909
06/14/2013  05:40:00      -39.285       27.643       -3.209       26.593       27.641       17.680      707.208      764.047      312.591        0.205        0.089       48.036       15.249        0.101      338.078       10.484      864.921
06/14/2013  05:41:00      -41.381       29.731        0.274       20.157       31.780       19.123      406.315     1009.992      365.693        0.219        0.089       50.954       14.082        0.076      338.077       10.483      864.938
06/14/2013  05:42:00      -15.347       37.864       -0.569       25.671       15.800       16.319      658.997      249.635      266.301        0.142        0.059       40.856       16.091        0.155      338.251       10.776      864.957
06/14/2013  05:43:00       -9.506       11.307       12.378       16.025       10.146       15.957      256.794      102.933      254.623        0.049        0.031       14.771        6.622        0.201      338.088       10.502      864.969
06/14/2013  05:44:00       17.009       16.610       13.565       11.030       10.675       10.333      121.651      113.961      106.770        0.055        0.017       23.774        4.801        0.041      338.074       10.478      864.974
06/14/2013  05:45:00        8.069       12.632        1.648        8.197       14.353       10.996       67.188      206.009      120.911        0.031        0.020       14.989        5.458        0.133      338.095       10.514      864.973
06/14/2013  05:46:00      -18.559      -12.499       -8.942       15.712       14.124       14.632      246.858      199.488      214.089        0.062        0.033       22.376       12.777        0.326      337.926       10.231      864.955
06/14/2013  05:47:00       -8.498      -15.745        1.022       18.961       20.218       13.288      359.516      408.773      176.569        0.063        0.047       17.892        8.066        0.203      337.882       10.156      864.941
06/14/2013  05:48:00      -31.794      -43.093        5.683       26.063       15.005       11.690      679.303      225.138      136.653        0.197        0.052       53.552        7.510        0.020      337.703        9.856      864.948
06/14/2013  05:49:00      -67.816      -48.696       -4.333       21.539       19.286       16.161      463.914      371.935      261.178        0.404        0.055       83.488        9.212        0.012      337.699        9.850      864.967
06/14/2013  05:50:00      -98.261      -45.122       -4.815       21.049       21.196       16.243      443.080      449.252      263.832        0.644        0.058      108.126       11.657        0.012      337.639        9.748      864.983
06/14/2013  05:51:00      -70.091      -51.544       -0.788       22.567       13.323       14.506      509.260      177.505      210.424        0.423        0.045       87.003       14.996        0.030      337.602        9.687      865.011
06/14/2013  05:52:00      -31.723      -32.672        2.313       25.818       23.320       18.994      666.573      543.799      360.776        0.182        0.079       45.539       10.438        0.053      337.710        9.868      865.041
06/14/2013  05:53:00      -15.697      -33.155       -4.886       22.947       16.254       15.156      526.578      264.189      229.689        0.119        0.051       36.683       10.260        0.078      337.728        9.898      865.050
06/14/2013  05:54:00      -27.583      -23.670       -1.116       32.685       19.005       15.404     1068.290      361.197      237.275        0.149        0.083       36.347        2.535        0.005      337.904       10.194      865.042
06/14/2013  05:55:00      -89.254      -30.371       -6.681       27.994       29.523       12.164      783.674      871.624      147.951        0.537        0.090       94.280       11.011        0.014      337.744        9.926      865.024
06/14/2013  05:56:00      -58.534      -41.803       -0.839       36.416       16.162       15.112     1326.109      261.225      228.365        0.349        0.091       71.929       13.040        0.033      337.736        9.911      865.015
06/14/2013  05:57:00      -50.349      -50.405        1.396       17.156       13.665       12.119      294.317      186.740      146.869        0.285        0.031       71.244        8.197        0.013      337.738        9.916      865.017
06/14/2013  05:58:00      -67.486      -51.177       -7.605       23.281       21.576       12.236      542.007      465.517      149.721        0.419        0.058       84.696        9.050        0.011      337.703        9.856      865.019
06/14/2013  05:59:00      -72.929      -46.262      -13.996       11.362       11.654        9.619      129.106      135.826       92.523        0.401        0.018       86.364        5.252        0.004      337.757        9.947      865.033
06/14/2013  06:00:00      -44.047      -31.443       -5.954       26.512       12.089       14.756      702.887      146.144      217.745        0.202        0.053       54.118       15.363        0.081      337.815       10.044      865.060
06/14/2013  06:01:00      -43.965      -19.070        4.946       18.391       13.693       13.141      338.232      187.499      172.698        0.151        0.035       47.923        8.171        0.029      337.841       10.087      865.081
06/14/2013  06:02:00      -32.182      -28.780        1.378       17.918       18.807       11.197      321.069      353.721      125.379        0.133        0.040       43.174        6.579        0.023      337.898       10.183      865.105
06/14/2013  06:03:00       25.492       18.188        7.192       11.548       12.667        7.938      133.345      160.461       63.008        0.069        0.018       31.315        7.227        0.053      337.922       10.222      865.125
06/14/2013  06:04:00       29.392       30.495       16.104       14.052        9.738       12.371      197.453       94.834      153.038        0.125        0.022       42.354        7.173        0.029      338.008       10.368      865.138
06/14/2013  06:05:00       45.021       27.785       30.489       17.570       13.287       14.611      308.689      176.542      213.485        0.221        0.035       52.905        6.930        0.017      337.973       10.310      865.131
06/14/2013  06:06:00       16.388      -13.167        8.117       13.153       19.700       18.077      172.994      388.094      326.761        0.070        0.044       21.022       11.809        0.316      338.063       10.460      865.121
06/14/2013  06:07:00       -9.781      -12.715        8.281       14.215        8.837        9.611      202.080       78.101       92.373        0.035        0.019       16.042        3.901        0.059      337.981       10.323      865.102
06/14/2013  06:08:00      -16.820      -18.980        4.626       14.406        9.823        8.919      207.543       96.486       79.551        0.052        0.019       25.360        6.831        0.073      337.996       10.348      865.090
06/14/2013  06:09:00      -31.760      -32.950       -0.116       18.332       14.015       11.988      336.075      196.407      143.703        0.139        0.034       45.765       10.362        0.051      337.939       10.252      865.081
06/14/2013  06:10:00      -54.914      -21.718       -5.937       17.314       17.933       11.649      299.780      321.590      135.688        0.214        0.038       59.053        8.416        0.020      337.935       10.245      865.081
06/14/2013  06:11:00      -52.137      -19.006        1.942       14.911       10.139        9.717      222.341      102.792       94.413        0.175        0.021       55.493        4.848        0.008      337.883       10.158      865.080
06/14/2013  06:12:00      -40.140      -10.816        1.482       14.100        8.965       11.776      198.800       80.363      138.684        0.107        0.021       41.572       10.672        0.066      337.880       10.154      865.086
06/14/2013  06:13:00      -27.172       11.507       -2.593       15.211       18.036       12.769      231.389      325.293      163.038        0.080        0.036       29.508        9.517        0.104      337.841       10.086      865.102
06/14/2013  06:14:00      -33.928       16.054       -0.241       11.518        5.914        6.705      132.662       34.979       44.962        0.081        0.011       37.535        5.312        0.020      337.853       10.107      865.111
06/14/2013  06:15:00      -35.072        8.436        1.907       12.975        7.997        7.645      168.358       63.948       58.447        0.080        0.015       36.072        4.584        0.016      337.952       10.272      865.125
06/14/2013  06:16:00      -20.570       10.008        1.110       16.915       14.056       11.717      286.117      197.570      137.295        0.057        0.031       22.876        8.141        0.127      337.961       10.289      865.116
06/14/2013  06:17:00      -14.420       34.478       -1.381       21.037       15.244        8.806      442.564      232.371       77.539        0.108        0.038       37.372        8.844        0.056      337.882       10.156      865.119
06/14/2013  06:18:00       17.298       33.760       -4.245        6.988       15.050        8.047       48.836      226.497       64.755        0.090        0.017       37.934        8.857        0.055      337.880       10.153      865.112
06/14/2013  06:19:00       19.525       19.976        1.476       12.541       11.930        9.995      157.275      142.322       99.894        0.059        0.020       27.934        7.438        0.071      337.948       10.268      865.103
06/14/2013  06:20:00       40.672       20.066        2.215       14.999       10.355        8.432      224.980      107.226       71.092        0.123        0.020       45.353        3.812        0.007      337.918       10.219      865.096
06/14/2013  06:21:00       54.839       46.113       17.730       15.365       15.176       14.557      236.086      230.299      211.910        0.306        0.034       71.650        7.180        0.010      337.940       10.255      865.094
06/14/2013  06:22:00       66.445       54.345       23.692       24.530       20.927       17.880      601.735      437.952      319.680        0.464        0.068       85.839        9.068        0.011      337.902       10.189      865.109
06/14/2013  06:23:00       67.394       61.143       22.917       21.130       14.350       19.800      446.495      205.915      392.059        0.492        0.052       90.996       11.103        0.015      337.838       10.081      865.107
06/14/2013  06:24:00       75.060       57.890       11.485       21.890       18.517       16.127      479.190      342.874      260.066        0.510        0.054       94.791       10.164        0.011      337.795       10.011      865.114
06/14/2013  06:25:00       90.265       52.989        8.829       10.831       10.721       15.275      117.307      114.943      233.337        0.575        0.023      104.669        6.307        0.004      337.822       10.056      865.124
06/14/2013  06:26:00       66.886       40.247       19.297       18.918       14.531       21.977      357.890      211.153      482.989        0.376        0.053       78.061       15.220        0.038      337.854       10.110      865.129
06/14/2013  06:27:00       46.916       46.550       28.260       14.024       14.061       15.247      196.663      197.714      232.469        0.290        0.031       66.091        6.474        0.010      337.880       10.153      865.122
06/14/2013  06:28:00       46.135       36.281       21.495       16.229       13.961       13.968      263.377      194.911      195.112        0.228        0.033       58.692        8.287        0.020      337.902       10.189      865.119
06/14/2013  06:29:00       30.207       24.617       12.397       15.471       10.789       11.144      239.359      116.411      124.183        0.108        0.024       38.967        4.004        0.011      337.861       10.120      865.109
06/14/2013  06:30:00       40.814       44.785        6.948       16.924       12.550        9.258      286.413      157.499       85.713        0.212        0.026       60.593        6.737        0.012      337.877       10.148      865.102
06/14/2013  06:31:00       64.229       52.233        1.982       30.235       25.193       23.544      914.184      634.676      554.330        0.448        0.105       82.787       19.598        0.056      337.787        9.996      865.112
06/14/2013  06:32:00       45.015       42.222        3.851       26.809       22.480       19.281      718.699      505.372      371.769        0.271        0.080       61.717       14.028        0.052      337.752        9.939      865.115
06/14/2013  06:33:00       46.720       32.764        0.262       24.608       27.823       15.920      605.568      774.124      253.457        0.244        0.082       57.064       13.989        0.060      337.771        9.971      865.118
06/14/2013  06:34:00       44.501       40.698        6.431       26.292       17.394       17.594      691.255      302.545      309.547        0.249        0.065       60.305       13.937        0.053      337.834       10.075      865.126
06/14/2013  06:35:00       51.576       39.742       10.883       25.378       17.282       15.503      644.050      298.683      240.336        0.277        0.059       65.112       10.675        0.027      337.848       10.098      865.131
06/14/2013  06:36:00       42.581       39.383       -2.746       15.588       14.231       17.048      242.972      202.521      290.619        0.205        0.037       58.001       12.296        0.045      337.839       10.084      865.119
06/14/2013  06:37:00       45.058       41.594        0.252       25.716       23.377       16.271      661.294      546.464      264.734        0.262        0.074       61.321       12.729        0.043      337.855       10.111      865.111
06/14/2013  06:38:00       21.330       54.644       -3.335       13.135       23.709       10.977      172.536      562.138      120.493        0.215        0.043       58.659        8.998        0.024      337.893       10.174      865.098
06/14/2013  06:39:00       26.392       52.904       -1.730       29.307       32.479       22.278      858.927     1054.909      496.296        0.295        0.121       59.121       17.243        0.085      337.917       10.215      865.090
06/14/2013  06:40:00       40.106       30.971        5.485       21.719       24.256       18.810      471.704      588.374      353.832        0.201        0.071       50.673       13.300        0.069      337.920       10.220      865.079
06/14/2013  06:41:00       47.851       44.602        0.621       30.613       24.718       17.142      937.185      610.962      293.860        0.306        0.092       65.414       13.881        0.045      337.865       10.127      865.048
06/14/2013  06:42:00       28.947       38.500       -2.094       20.732       19.824       17.428      429.800      392.982      303.722        0.173        0.056       48.168       14.067        0.085      337.909       10.202      865.033
06/14/2013  06:43:00       14.985       30.179        4.570       16.416       21.005       14.290      269.482      441.219      204.205        0.104        0.046       33.695       13.239        0.154      337.994       10.344      865.031
06/14/2013  06:44:00       12.645       18.668        5.263        9.525       14.017        9.023       90.718      196.483       81.421        0.045        0.018       22.548        3.714        0.027      338.017       10.381      865.042
06/14/2013  06:45:00        8.757       61.865       -9.604       18.820       14.082       10.525      354.198      198.291      110.773        0.233        0.033       62.482        9.885        0.025      338.000       10.354      865.059
06/14/2013  06:46:00        6.276       75.411       -8.356       12.802       21.860        9.853      163.888      477.850       97.081        0.327        0.037       75.672        5.363        0.005      338.037       10.415      865.077
06/14/2013  06:47:00       10.209       51.964       -5.586       22.062       24.179       12.454      486.732      584.605      155.090        0.203        0.061       52.957       12.431        0.055      338.111       10.540      865.081
06/14/2013  06:48:00        3.684       81.794       -4.660       14.320       20.720       17.244      205.071      429.315      297.357        0.383        0.047       81.877       15.160        0.034      338.130       10.574      865.080
06/14/2013  06:49:00        2.517       57.636       -1.067       17.449       17.494       16.349      304.462      306.034      267.290        0.210        0.044       57.691        9.987        0.030      338.184       10.663      865.073
06/14/2013  06:50:00       -0.066       31.733        9.531       13.893       28.769       16.589      193.019      827.681      275.189        0.120        0.065       31.733       17.251        0.296      338.503       11.199      865.051
06/14/2013  06:51:00        2.685       16.507       14.686       13.178       16.252       12.197      173.658      264.141      148.770        0.054        0.029       16.724        9.727        0.338      338.631       11.415      865.038
06/14/2013  06:52:00      -30.390        3.187       -2.272       23.026       10.093       15.144      530.211      101.876      229.347        0.090        0.043       30.557       14.007        0.210      338.339       10.924      865.021
06/14/2013  06:53:00      -58.002        6.219       -2.152       15.859       12.340       13.458      251.521      152.276      181.117        0.200        0.029       58.334        6.116        0.011      338.315       10.883      865.017
06/14/2013  06:54:00      -13.430       22.288       -0.697       11.570       14.848       17.646      133.859      220.475      311.392        0.067        0.033       26.021        4.561        0.031      338.526       11.237      865.017
06/14/2013  06:55:00       -3.109        6.051       16.630       13.263       12.635       10.863      175.908      159.653      117.995        0.039        0.023        6.803        8.100        1.418      338.694       11.521      865.029
06/14/2013  06:56:00       22.640       20.713       21.763       19.372       14.154       17.001      375.278      200.324      289.022        0.114        0.043       30.686       12.277        0.160      338.372       10.978      865.038
06/14/2013  06:57:00       21.093       10.607       15.359       13.988       10.033       10.164      195.675      100.657      103.308        0.060        0.020       23.610        6.752        0.082      338.391       11.012      865.053
06/14/2013  06:58:00       11.787        9.730        6.108        9.111        9.037       11.172       83.006       81.672      124.812        0.028        0.014       15.284        6.316        0.171      338.427       11.073      865.057
06/14/2013  06:59:00       -8.146        7.170        4.797       10.385        8.426        8.492      107.850       70.992       72.117        0.020        0.013       10.852        6.567        0.366      338.481       11.162      865.061
06/14/2013  07:00:00      -19.230        4.505       -5.313        9.624        5.490        6.797       92.623       30.142       46.204        0.029        0.008       19.751        4.066        0.042      338.425       11.068      865.071
06/14/2013  07:01:00      -35.074       15.480        5.892       20.858       15.554       12.467      435.045      241.913      155.430        0.117        0.042       38.338       10.003        0.068      338.500       11.193      865.074
06/14/2013  07:02:00        8.966       30.574       -4.107       13.576       13.598       13.391      184.318      184.910      179.307        0.079        0.027       31.862        7.217        0.051      338.506       11.203      865.055
06/14/2013  07:03:00       10.392       38.026       -7.869       11.432       18.699        9.862      130.684      349.668       97.264        0.110        0.029       39.420        6.015        0.023      338.499       11.191      865.041
06/14/2013  07:04:00        5.089       31.315       -3.005       16.022       25.794       15.543      256.694      665.313      241.574        0.109        0.058       31.726       10.651        0.113      338.624       11.402      865.023
06/14/2013  07:05:00       -5.275       41.554        3.424       14.320       18.328       16.178      205.061      335.924      261.724        0.128        0.040       41.887        6.724        0.026      338.759       11.629      864.996
06/14/2013  07:06:00       -7.917       42.894        3.537        9.023       16.098       14.970       81.408      259.142      224.087        0.124        0.028       43.619        3.862        0.008      338.845       11.772      864.991
06/14/2013  07:07:00       21.564       24.652        9.310       21.855       17.436       14.512      477.652      303.999      210.610        0.108        0.050       32.752       11.130        0.115      338.982       12.003      864.981
06/14/2013  07:08:00       59.874       41.183       11.072       16.805       19.693       19.871      282.395      387.808      394.844        0.323        0.053       72.670       10.324        0.020      338.669       11.480      864.983
06/14/2013  07:09:00       62.865       28.964        2.437       13.316       14.161       16.302      177.304      200.541      265.754        0.272        0.032       69.217       10.200        0.022      338.629       11.409      864.992
06/14/2013  07:10:00       49.621       28.723       12.186       29.949       28.668       16.799      896.953      821.865      282.195        0.272        0.100       57.334        9.784        0.029      338.756       11.624      864.997
06/14/2013  07:11:00       50.676       51.515       -1.976       26.635       28.527       20.636      709.445      813.777      425.839        0.359        0.097       72.262       17.636        0.060      338.735       11.588      864.996
06/14/2013  07:12:00       47.927       48.832        2.638       24.737       18.549       16.722      611.896      344.067      279.619        0.296        0.062       68.422       13.118        0.037      338.861       11.799      864.987
06/14/2013  07:13:00       62.864       34.095        0.128       24.686       20.179       15.677      609.387      407.181      245.760        0.319        0.063       71.514        6.149        0.007      338.773       11.652      864.982
06/14/2013  07:14:00       38.856       49.451        2.888       21.860       19.626       23.785      477.852      385.190      565.728        0.270        0.071       62.890       14.439        0.053      338.883       11.839      864.976
06/14/2013  07:15:00       12.571       -1.934       -4.026       21.031       24.035       19.647      442.312      577.700      385.986        0.079        0.070       12.719       13.305        1.094      339.032       12.087      864.964
06/14/2013  07:16:00       14.550       14.836       25.354       31.508       22.410       18.728      992.769      502.203      350.739        0.146        0.092       20.781       16.761        0.651      339.124       12.242      864.949
06/14/2013  07:17:00       42.543       18.538        7.924       36.599       21.214       18.213     1339.489      450.018      331.722        0.217        0.106       46.407       17.706        0.146      339.066       12.145      864.940
06/14/2013  07:18:00       38.848       46.524       15.136       34.231       35.717       30.406     1171.778     1275.705      924.542        0.364        0.169       60.610       22.230        0.135      339.026       12.077      864.946
06/14/2013  07:19:00       80.750       52.209        9.368       39.998       31.464       25.223     1599.836      989.979      636.213        0.628        0.161       96.158       16.605        0.030      338.890       11.849      864.946
06/14/2013  07:20:00       39.879       40.349       29.227       29.720       31.612       20.423      883.249      999.300      417.092        0.319        0.115       56.731       16.327        0.083      339.077       12.164      864.949
06/14/2013  07:21:00       88.272       65.370        6.925       27.627       26.009       24.531      763.272      676.462      601.767        0.708        0.102      109.841       19.097        0.030      338.850       11.782      864.948
06/14/2013  07:22:00       68.665       39.244       14.561       22.319       14.031       16.294      498.151      196.877      265.488        0.371        0.048       79.088        9.637        0.015      338.767       11.642      864.949
06/14/2013  07:23:00       96.293       68.000       10.563       32.531       37.936       21.255     1058.277     1439.111      451.766        0.848        0.147      117.882       22.931        0.038      338.839       11.763      864.959
06/14/2013  07:24:00       58.114       65.959        7.169       38.288       40.703       32.869     1465.968     1656.758     1080.380        0.599        0.210       87.908       21.652        0.061      339.010       12.053      864.972
06/14/2013  07:25:00       72.899       69.933        0.659       29.053       27.040       31.704      844.103      731.174     1005.118        0.639        0.129      101.020       21.698        0.046      338.949       11.948      864.982
06/14/2013  07:26:00       60.274       49.547        7.321       46.381       29.250       30.408     2151.157      855.589      924.648        0.504        0.197       78.024       20.508        0.069      339.071       12.153      864.994
06/14/2013  07:27:00       74.247       82.642       -7.898       41.380       35.405       36.236     1712.321     1253.517     1313.047        0.834        0.214      111.096       22.370        0.041      338.947       11.945      864.981
06/14/2013  07:28:00      117.144       65.805        5.316       31.150       26.315       22.869      970.314      692.493      522.998        1.013        0.109      134.362        7.606        0.003      338.879       11.830      865.002
06/14/2013  07:29:00      114.911       62.134       16.931       46.338       49.930       34.863     2147.196     2492.987     1215.426        1.160        0.293      130.633       27.418        0.044      338.943       11.938      865.007
06/14/2013  07:30:00      136.695       80.895       17.974       36.978       33.638       29.464     1367.382     1131.543      868.101        1.446        0.168      158.838       20.542        0.017      338.986       12.010      864.992
06/14/2013  07:31:00       78.238       42.517       26.853       35.193       26.124       25.611     1238.572      682.450      655.904        0.561        0.129       89.045       14.035        0.025      339.264       12.479      864.974
06/14/2013  07:32:00      118.638       67.807       10.822       48.471       47.856       33.888     2349.462     2290.152     1148.395        1.229        0.289      136.649       19.148        0.020      339.089       12.184      864.960
06/14/2013  07:33:00      105.614       55.047       46.281       71.995       58.889       43.895     5183.257     3467.921     1926.753        1.345        0.529      119.098       31.872        0.072      339.171       12.320      864.937
06/14/2013  07:34:00       41.333       88.855      105.723       75.856       61.889       43.828     5754.091     3830.267     1920.865        1.614        0.575       97.998       41.838        0.182      339.326       12.582      864.938
06/14/2013  07:35:00       56.080       68.040       91.272       73.979       79.392       59.195     5472.955     6303.049     3504.011        1.569        0.764       88.172       64.731        0.539      339.226       12.413      864.933
06/14/2013  07:36:00       89.262       80.198       64.787       65.114       55.169       53.447     4239.835     3043.658     2856.593        1.437        0.507      119.998       39.868        0.110      339.227       12.415      864.952
06/14/2013  07:37:00       85.921       94.633       75.936       74.202       38.014       40.164     5505.890     1445.079     1613.147        1.533        0.428      127.819       45.626        0.127      339.164       12.310      864.959
06/14/2013  07:38:00      110.282       76.267       42.709       84.921       44.769       46.315     7211.647     2004.293     2145.042        1.558        0.568      134.085       48.920        0.133      339.208       12.383      864.965
06/14/2013  07:39:00      112.855       96.633       74.997       99.163       46.713       38.075     9833.217     2182.100     1449.687        2.058        0.673      148.574       36.275        0.060      339.315       12.563      864.980
06/14/2013  07:40:00      113.529       64.649       39.516       84.170       47.891       47.377     7084.647     2293.565     2244.571        1.512        0.581      130.646       40.493        0.096      339.272       12.491      864.992
06/14/2013  07:41:00       55.656       23.390       39.681       66.481       36.634       40.606     4419.742     1342.051     1648.837        0.631        0.371       60.371       38.062        0.397      339.503       12.880      864.995
06/14/2013  07:42:00       44.290       45.022       34.851       44.086       49.978       39.996     1943.566     2497.801     1599.714        0.562        0.302       63.156       32.104        0.258      339.529       12.926      865.004
06/14/2013  07:43:00      105.058       78.715       14.051       39.315       36.583       39.476     1545.638     1338.335     1558.389        1.094        0.222      131.275       22.013        0.028      339.396       12.700      864.989
06/14/2013  07:44:00       75.836       71.717       47.400       50.698       45.761       47.674     2570.259     2094.034     2272.777        1.004        0.347      104.376       38.361        0.135      339.382       12.677      864.983
06/14/2013  07:45:00       79.138       61.722       31.101       51.229       43.213       30.892     2624.425     1867.328      954.334        0.824        0.272      100.362       26.585        0.070      339.399       12.705      864.968
06/14/2013  07:46:00       77.996       22.725       20.087       60.538       40.698       29.775     3664.891     1656.331      886.530        0.660        0.310       81.239       19.845        0.060      339.437       12.769      864.955
06/14/2013  07:47:00       24.041       33.271       44.377       33.207       32.952       31.653     1102.682     1085.818     1001.921        0.342        0.160       41.048       28.511        0.482      339.952       13.638      864.955
06/14/2013  07:48:00      179.697       78.250       25.980       73.008       83.692       52.431     5330.114     7004.355     2748.977        2.708        0.754      195.995       26.472        0.018      339.356       12.632      864.948
06/14/2013  07:49:00      178.043       98.103       26.104       67.326       52.289       47.718     4532.818     2734.157     2277.043        2.577        0.477      203.282       34.327        0.029      339.251       12.453      864.955
06/14/2013  07:50:00      160.048      103.873       22.858       64.666       45.826       45.633     4181.672     2100.016     2082.345        2.264        0.418      190.801       32.332        0.029      339.226       12.411      864.968
06/14/2013  07:51:00      193.433      113.912       10.930       61.585       56.895       45.697     3792.736     3237.078     2088.207        2.981        0.456      224.483       14.431        0.004      339.268       12.481      864.966
06/14/2013  07:52:00      148.670       93.697       21.365       59.847       41.521       29.734     3581.686     1724.011      884.083        1.876        0.309      175.732       22.011        0.016      339.341       12.607      864.971
06/14/2013  07:53:00      132.490       52.718       32.209       86.573       47.361       50.684     7494.927     2243.029     2568.843        1.684        0.615      142.593       51.293        0.129      339.555       12.966      864.970
06/14/2013  07:54:00      145.994       83.007       16.620       75.156       59.806       44.249     5648.498     3576.782     1957.944        1.983        0.559      167.941       12.396        0.005      339.425       12.748      864.974
06/14/2013  07:55:00      226.009      106.282       33.997       97.156       68.375       71.904     9439.192     4675.144     5170.234        4.140        0.964      249.752       61.751        0.061      339.361       12.637      864.954
06/14/2013  07:56:00       90.345       99.903       77.136       97.793       66.520       69.533     9563.453     4424.847     4834.861        2.145        0.941      134.696       68.797        0.261      339.514       12.899      864.956
06/14/2013  07:57:00      139.807       95.759       74.071      104.378       85.232       67.082    10894.693     7264.444     4500.010        2.843        1.133      169.457       57.515        0.115      339.548       12.955      864.946
06/14/2013  07:58:00       96.579       20.690       52.575       65.548       61.620       48.762     4296.604     3797.057     2377.685        1.149        0.524       98.770       34.760        0.124      339.638       13.108      864.940
06/14/2013  07:59:00      108.003       71.515       96.144       80.082       80.556       70.510     6413.095     6489.340     4971.714        2.194        0.894      129.534       63.563        0.241      339.536       12.935      864.915
06/14/2013  08:00:00      165.872      106.450       62.067       94.795       56.653       60.618     8986.033     3209.556     3674.566        2.928        0.794      197.091       52.597        0.071      339.525       12.916      864.916
06/14/2013  08:01:00       78.315       43.710       69.467       85.456       81.258       64.079     7302.761     6602.836     4106.098        1.544        0.901       89.687       57.980        0.418      339.630       13.096      864.905
06/14/2013  08:02:00      149.578       75.093       24.984       63.779       51.329       44.082     4067.814     2634.658     1943.199        1.864        0.432      167.370       24.793        0.022      339.507       12.888      864.899
06/14/2013  08:03:00       98.584       72.140       69.143       56.967       44.490       48.823     3245.223     1979.372     2383.705        1.365        0.380      122.160       37.266        0.093      339.495       12.866      864.898
06/14/2013  08:04:00       11.333       57.267       73.211       33.386       40.192       23.442     1114.649     1615.415      549.530        0.602        0.164       58.378       22.933        0.154      339.729       13.262      864.898
06/14/2013  08:05:00      103.590       68.531       27.832       45.093       43.848       48.306     2033.361     1922.645     2333.499        1.124        0.314      124.208       27.009        0.047      339.715       13.238      864.880
06/14/2013  08:06:00      130.498       84.291       22.766       50.448       50.740       46.856     2544.993     2574.526     2195.497        1.598        0.366      155.354       23.839        0.024      339.701       13.215      864.878
06/14/2013  08:07:00      110.441       94.670       20.626       62.768       59.832       48.428     3939.824     3579.846     2345.318        1.572        0.493      145.463       35.431        0.059      339.760       13.313      864.884
06/14/2013  08:08:00       58.074       30.242       15.504       63.222       40.322       27.465     3997.078     1625.876      754.354        0.545        0.319       65.476       12.432        0.036      339.992       13.705      864.870
06/14/2013  08:09:00       97.020       91.438       65.924       59.396       57.944       49.491     3527.847     3357.485     2449.332        1.573        0.467      133.318       32.095        0.058      340.012       13.739      864.866
06/14/2013  08:10:00      122.362       84.088       20.495       64.209       62.127       44.247     4122.855     3859.797     1957.815        1.620        0.497      148.469       13.903        0.009      339.733       13.267      864.863
06/14/2013  08:11:00       90.628       47.779       14.518       60.808       35.490       44.597     3697.673     1259.522     1988.932        0.883        0.347      102.451       20.231        0.039      339.867       13.496      864.854
06/14/2013  08:12:00       59.081       27.653       61.849       76.783       48.999       41.071     5895.585     2400.933     1686.867        0.903        0.499       65.232       49.438        0.574      340.169       14.005      864.843
06/14/2013  08:13:00       98.634      -55.248       27.630       85.342       95.535       59.970     7283.273     9126.850     3596.347        1.677        1.000      113.054       72.393        0.410      339.912       13.568      864.832
06/14/2013  08:14:00       59.509       61.653       45.912       39.468       31.042       35.396     1557.722      963.618     1252.849        0.661        0.189       85.688       17.017        0.039      339.738       13.276      864.833
06/14/2013  08:15:00       98.557       95.411       93.435       86.163       73.739       60.604     7424.099     5437.459     3672.827        2.204        0.827      137.174       52.478        0.146      339.815       13.404      864.817
06/14/2013  08:16:00      198.211      125.417       64.294       85.030       77.539       64.341     7230.041     6012.276     4139.764        3.826        0.869      234.557       48.525        0.043      339.651       13.125      864.812
06/14/2013  08:17:00      114.370       92.294       50.750       85.618       77.870       59.116     7330.428     6063.754     3494.643        2.053        0.844      146.965       47.523        0.105      339.863       13.485      864.805
06/14/2013  08:18:00      143.142       56.330       80.879      116.088       87.013       73.004    13476.341     7571.220     5329.598        2.829        1.319      153.827       65.669        0.182      339.857       13.475      864.790
06/14/2013  08:19:00      119.306       60.687       64.985       76.846       74.400       59.512     5905.338     5535.392     3541.731        1.856        0.749      133.854       47.184        0.124      339.862       13.485      864.793
06/14/2013  08:20:00       80.448       61.678       43.788       67.217       59.817       60.585     4518.181     3578.043     3670.507        1.198        0.588      101.371       36.257        0.128      340.008       13.732      864.800
06/14/2013  08:21:00       94.057       43.307       49.523       70.755       65.608       47.017     5006.276     4304.438     2210.632        1.235        0.576      103.548       32.025        0.096      340.020       13.752      864.803
06/14/2013  08:22:00      112.864       54.678       45.165       63.347       53.555       39.136     4012.856     2868.185     1531.659        1.309        0.421      125.411       29.582        0.056      339.899       13.550      864.802
06/14/2013  08:23:00      186.673       93.909       19.562      110.659       68.582       72.567    12245.522     4703.534     5265.923        3.313        1.111      208.964       57.168        0.075      339.739       13.276      864.788
06/14/2013  08:24:00       40.236       64.215       10.234       56.260       48.671       34.725     3165.240     2368.855     1205.825        0.629        0.337       75.780       22.184        0.086      339.908       13.565      864.768
06/14/2013  08:25:00       89.408       49.758      -14.219       64.269       62.771       31.286     4130.532     3940.230      978.842        0.986        0.452      102.322       25.806        0.064      340.059       13.819      864.758
06/14/2013  08:26:00       20.139       58.738      -12.628       52.392       53.277       30.421     2744.962     2838.449      925.453        0.526        0.325       62.094       21.540        0.120      340.108       13.901      864.746
06/14/2013  08:27:00       74.857       51.072       10.137       67.251       50.762       35.782     4522.748     2576.749     1280.370        0.835        0.419       90.619       23.403        0.067      340.093       13.876      864.756
06/14/2013  08:28:00       76.306       99.823       -8.512       49.624       59.945       43.461     2462.493     3593.382     1888.895        1.190        0.397      125.647       34.252        0.074      340.026       13.762      864.756
06/14/2013  08:29:00      237.683      133.880       53.284       69.871       74.156       60.168     4881.900     5499.047     3620.202        4.563        0.700      272.795       16.367        0.004      339.981       13.683      864.769
06/14/2013  08:30:00      221.010      133.042       30.621       93.116       70.915       53.461     8670.599     5028.887     2858.082        4.202        0.828      257.964       24.408        0.009      339.880       13.514      864.771
06/14/2013  08:31:00      160.265      115.213       56.969       66.999       82.120       63.109     4488.814     6743.705     3982.685        2.871        0.761      197.380       56.146        0.081      340.000       13.717      864.763
06/14/2013  08:32:00       41.411       41.984       44.503       51.814       58.336       59.181     2684.717     3403.118     3502.360        0.752        0.480       58.970       50.460        0.732      340.435       14.452      864.753
06/14/2013  08:33:00      136.898       78.012       69.895      114.611       82.927       76.889    13135.654     6876.847     5911.935        2.781        1.296      157.566       52.621        0.112      340.070       13.835      864.759
06/14/2013  08:34:00      150.238       73.698       23.084       75.804       65.014       53.246     5746.214     4226.764     2835.143        2.067        0.640      167.341       40.125        0.057      340.039       13.783      864.735
06/14/2013  08:35:00      250.491      134.278       62.008      117.904       75.465       66.075    13901.293     5694.931     4365.898        5.429        1.198      284.212       51.718        0.033      339.974       13.670      864.740
06/14/2013  08:36:00      250.122      121.864       41.846       82.844       85.705       60.130     6863.110     7345.431     3615.562        4.849        0.891      278.230       36.432        0.017      340.021       13.751      864.737
06/14/2013  08:37:00       93.905       57.001       76.548      101.544       86.164       70.012    10311.110     7424.292     4901.742        2.028        1.132      109.851       63.414        0.333      340.160       13.987      864.730
06/14/2013  08:38:00       83.358       99.081       73.312       79.998       57.432       61.066     6399.618     3298.412     3729.012        1.778        0.671      129.482       35.639        0.076      340.250       14.140      864.742
06/14/2013  08:39:00      119.928       34.086       49.765       91.754       88.983       58.508     8418.707     7918.058     3423.218        1.889        0.988      124.678       48.761        0.153      340.135       13.944      864.741
06/14/2013  08:40:00       83.552      -49.302       19.211       77.957       88.729       38.510     6077.365     7872.838     1483.040        1.260        0.772       97.014       34.977        0.130      340.292       14.212      864.745
06/14/2013  08:41:00      105.725      111.453       96.262       93.706       75.749       73.279     8780.770     5737.935     5369.828        2.637        0.994      153.622       52.757        0.118      340.303       14.227      864.749
06/14/2013  08:42:00      158.059      113.683       89.856      152.274       83.906       60.474    23187.327     7040.145     3657.056        3.993        1.694      194.696       79.021        0.165      340.129       13.933      864.741
06/14/2013  08:43:00      114.526      113.989      103.580       87.228       77.597       59.384     7608.731     6021.251     3526.404        2.699        0.858      161.585       53.899        0.111      340.241       14.124      864.749
06/14/2013  08:44:00      145.827      100.351       49.187       69.921       53.688       52.923     4888.992     2882.393     2800.865        2.216        0.529      177.020       39.621        0.050      340.164       13.993      864.754
06/14/2013  08:45:00      118.271       65.444       48.939       56.840       40.698       48.981     3230.739     1656.337     2399.135        1.397        0.364      135.171       34.815        0.066      340.046       13.796      864.743
06/14/2013  08:46:00       43.146        7.028       35.853       61.302       62.783       49.735     3757.890     3941.642     2473.584        0.668        0.509       43.714       33.493        0.587      340.315       14.251      864.740
06/14/2013  08:47:00       39.733       46.293       42.459       60.030       53.762       36.859     3603.628     2890.349     1358.589        0.669        0.393       61.007       28.700        0.221      340.407       14.406      864.745
06/14/2013  08:48:00       69.099       73.351       80.113       76.669       55.014       54.329     5878.181     3026.587     2951.658        1.421        0.593      100.772       32.682        0.105      340.311       14.244      864.749
06/14/2013  08:49:00       75.064       47.284       61.144       58.636       39.910       37.203     3438.160     1592.787     1384.054        0.901        0.321       88.715       16.202        0.033      340.361       14.329      864.757
06/14/2013  08:50:00       51.736       11.249       25.815       69.364       87.939       48.921     4811.312     7733.299     2393.246        0.920        0.747       52.945       43.390        0.672      340.347       14.304      864.755
06/14/2013  08:51:00       73.682      -76.671       19.201       63.613       74.656       42.094     4046.665     5573.555     1771.888        1.153        0.570      106.337       39.998        0.141      340.450       14.478      864.740
06/14/2013  08:52:00       33.749       51.661       90.156       66.794       60.070       47.308     4461.457     3608.361     2238.054        1.112        0.515       61.708       41.276        0.447      340.689       14.882      864.742
06/14/2013  08:53:00      105.782       74.642       45.174       60.630       54.244       46.925     3675.997     2942.374     2201.958        1.381        0.441      129.465       29.379        0.051      340.035       13.777      864.747
06/14/2013  08:54:00      138.527       61.837       39.068       58.588       53.468       44.138     3432.533     2858.835     1948.187        1.639        0.412      151.702       27.544        0.033      340.178       14.018      864.739
06/14/2013  08:55:00      184.697      111.312       49.942      158.239      109.705       58.908    25039.602    12035.081     3470.204        4.476        2.027      215.646       43.680        0.041      340.416       14.421      864.729
06/14/2013  08:56:00      146.544       83.507       53.462      107.395      105.726       65.256    11533.676    11177.951     4258.403        2.913        1.349      168.667       47.439        0.079      340.106       13.895      864.730
06/14/2013  08:57:00      165.843      120.945       28.483      103.196       70.497       65.764    10649.336     4969.783     4324.899        3.144        0.997      205.260       38.001        0.034      340.164       13.992      864.707
06/14/2013  08:58:00      323.701      181.962       55.019      103.180       76.492       62.289    10646.196     5851.077     3879.890        8.064        1.019      371.339       30.722        0.007      340.032       13.770      864.683
06/14/2013  08:59:00      198.030      112.284       31.376      106.736       81.998       65.981    11392.638     6723.633     4353.541        3.763        1.123      227.648       68.091        0.089      340.370       14.341      864.693
06/14/2013  09:00:00      272.897      137.750       13.459       84.294       87.836       55.087     7105.538     7715.231     3034.625        5.574        0.893      305.693       29.459        0.009      340.148       13.963      864.707
06/14/2013  09:01:00      175.071      120.983       54.333       82.973       66.284       66.712     6884.557     4393.511     4450.506        3.198        0.786      212.807       45.077        0.045      340.224       14.092      864.718
06/14/2013  09:02:00       11.748      -76.707        9.280       47.855       58.740       39.109     2290.147     3450.375     1529.492        0.669        0.364       77.601       30.222        0.152      340.472       14.515      864.719
06/14/2013  09:03:00       99.080       26.496       27.441       82.951       86.337       46.125     6880.903     7454.105     2127.531        1.386        0.823      102.562       38.362        0.140      340.591       14.716      864.720
06/14/2013  09:04:00      117.494       66.075       10.549       77.704       82.328       49.348     6037.925     6777.956     2435.181        1.676        0.763      134.799       21.944        0.027      340.474       14.519      864.712
06/14/2013  09:05:00      165.477      178.397       27.645      125.776       89.915       64.446    15819.503     8084.683     4153.301        4.401        1.403      243.327       49.685        0.042      340.048       13.797      864.682
06/14/2013  09:06:00      240.896       92.861       40.775      158.106       86.622       68.366    24997.428     7503.288     4673.870        5.274        1.859      258.175       68.850        0.071      340.392       14.378      864.657
06/14/2013  09:07:00      135.997       22.250      127.676       98.226      149.235       92.992     9648.408    22270.995     8647.573        3.792        2.028      137.805       92.815        0.454      340.329       14.272      864.676
06/14/2013  09:08:00       58.695       50.405       80.303       63.248       74.682       49.712     4000.301     5577.432     2471.290        1.224        0.602       77.368       27.823        0.129      340.467       14.507      864.668
06/14/2013  09:09:00       32.144       12.491       98.178       65.661      105.576       59.394     4311.363    11146.370     3527.636        1.490        0.949       34.485       60.109        3.038      340.651       14.818      864.661
06/14/2013  09:10:00      156.947     -190.496       14.884       83.392      150.534       57.302     6954.235    22660.474     3283.466        4.701        1.645      246.822       67.175        0.074      340.313       14.244      864.631
06/14/2013  09:11:00       63.844      109.835       93.205       78.057       98.683       70.968     6092.884     9738.309     5036.526        2.284        1.043      127.043       64.236        0.256      340.566       14.672      864.630
06/14/2013  09:12:00      211.486      143.180       42.894      101.273       54.821       81.553    10256.284     3005.331     6650.876        4.349        0.996      255.395       55.056        0.046      340.269       14.171      864.625
06/14/2013  09:13:00      169.532      114.925       41.081       73.673       53.106       61.063     5427.707     2820.209     3728.631        2.780        0.599      204.814       37.267        0.033      340.182       14.024      864.625
06/14/2013  09:14:00      209.498      110.124       41.746      113.895       74.187       70.924    12972.166     5503.695     5030.195        4.063        1.175      236.679       33.953        0.021      340.132       13.939      864.606
06/14/2013  09:15:00      112.809      128.043        6.998       82.934       74.411       51.927     6878.121     5536.995     2696.381        2.214        0.756      170.648       42.137        0.061      340.223       14.093      864.586
06/14/2013  09:16:00      110.523      120.425       23.531       76.230      104.096       56.641     5811.051    10835.935     3208.183        2.356        0.993      163.455       58.819        0.129      340.348       14.304      864.563
06/14/2013  09:17:00      221.590      139.457       80.370      101.721       59.558       60.972    10347.078     3547.132     3717.534        4.631        0.881      261.821       49.888        0.036      340.471       14.510      864.556
06/14/2013  09:18:00      174.180      105.551       90.661      119.501       75.599       81.522    14280.425     5715.137     6645.896        3.816        1.332      203.665       73.100        0.129      340.540       14.628      864.569
06/14/2013  09:19:00      255.257      174.424       37.749       97.807       82.542       64.041     9566.164     6813.198     4101.234        5.874        1.024      309.160       62.653        0.041      340.396       14.385      864.566
06/14/2013  09:20:00      308.465      161.969        5.567       80.436       87.193       68.532     6469.870     7602.630     4696.676        7.009        0.938      348.403       36.744        0.011      340.243       14.125      864.567
06/14/2013  09:21:00      163.240      123.604       30.193       61.259       50.137       53.158     3752.651     2513.680     2825.794        2.596        0.455      204.756       40.965        0.040      340.300       14.222      864.585
06/14/2013  09:22:00      204.291      103.845       27.423       81.539       54.162       56.673     6648.599     2933.516     3211.794        3.303        0.640      229.169       38.554        0.028      340.348       14.304      864.581
06/14/2013  09:23:00      122.793       96.383       22.439       62.184       44.887       50.745     3866.790     2014.803     2575.026        1.666        0.423      156.102       24.266        0.024      340.411       14.411      864.562
06/14/2013  09:24:00       82.388       69.621       38.430       43.656       40.056       43.993     1905.803     1604.496     1935.420        0.928        0.272      107.866       21.186        0.039      340.553       14.652      864.552
06/14/2013  09:25:00       92.562       61.346       41.717      106.145       66.979       50.670    11266.751     4486.133     2567.448        1.619        0.916      111.045       25.826        0.054      340.992       15.395      864.548
06/14/2013  09:26:00      224.365      145.440       75.881      107.529       89.641       64.401    11562.507     8035.566     4147.498        5.049        1.187      267.380       51.612        0.037      340.572       14.683      864.527
06/14/2013  09:27:00      158.326       82.793       35.996       95.996       73.623       44.281     9215.297     5420.346     1960.767        2.490        0.830      178.666       35.876        0.040      340.600       14.732      864.509
06/14/2013  09:28:00       80.140       53.436       92.647       67.869       76.436       55.936     4606.226     5842.486     3128.818        1.572        0.679       96.321       52.181        0.293      341.032       15.462      864.485
06/14/2013  09:29:00      164.870     -127.265       24.660      122.404      141.517       95.851    14982.722    20026.998     9187.419        4.408        2.210      208.275       93.987        0.204      340.905       15.245      864.488
06/14/2013  09:30:00      184.948     -117.170       25.522       93.074      122.450       66.008     8662.854    14994.038     4356.992        3.829        1.401      218.939       82.704        0.143      340.588       14.709      864.494
06/14/2013  09:31:00       93.132       -7.055       77.962       97.990      143.736       80.410     9602.104    20660.006     6465.691        2.576        1.836       93.399       94.759        1.029      340.956       15.333      864.472
06/14/2013  09:32:00       51.076       43.041      108.718       72.344       91.988       62.648     5233.633     8461.872     3924.801        1.695        0.881       66.792       55.210        0.683      341.224       15.789      864.473
06/14/2013  09:33:00      138.459      102.248       57.605       71.726       50.492       55.960     5144.629     2549.410     3131.499        2.188        0.541      172.121       33.692        0.038      341.299       15.913      864.459
06/14/2013  09:34:00       69.412       90.735       73.402       54.884       49.523       45.895     3012.254     2452.525     2106.329        1.300        0.379      114.241       28.106        0.061      340.826       15.114      864.431
06/14/2013  09:35:00       43.599       62.050       66.120       44.447       50.506       35.254     1975.544     2550.845     1242.879        0.794        0.288       75.836       28.958        0.146      341.144       15.653      864.409
06/14/2013  09:36:00       32.542        4.136       30.994       36.601       73.782       40.076     1339.660     5443.767     1606.049        0.521        0.419       32.804       34.697        1.119      341.555       16.350      864.386
06/14/2013  09:37:00      153.827      -13.796       82.556      134.452      143.776       94.858    18077.394    20671.516     8998.081        3.920        2.387      154.445       98.119        0.404      341.253       15.835      864.383
06/14/2013  09:38:00      136.494       80.833      102.485      103.970      108.255       67.609    10809.679    11719.162     4571.005        3.138        1.355      158.633       63.242        0.159      341.038       15.472      864.368
06/14/2013  09:39:00       58.653      -53.566       50.841       80.397      119.834       62.475     6463.647    14360.174     3903.107        1.681        1.236       79.432       76.590        0.930      341.154       15.669      864.361
06/14/2013  09:40:00      127.655       80.082       81.088      120.345       81.675       54.136    14482.851     6670.882     2930.701        2.668        1.204      150.695       50.367        0.112      341.272       15.868      864.366
06/14/2013  09:41:00      170.080       62.539       18.558       78.613       67.813       45.898     6180.053     4598.588     2106.627        2.303        0.644      181.213       31.262        0.030      340.494       14.551      864.358
06/14/2013  09:42:00       61.939       58.871       17.499       62.885       53.145       45.102     3954.510     2824.405     2034.165        0.821        0.441       85.453       20.596        0.058      340.976       15.367      864.317
06/14/2013  09:43:00      132.386       88.619        2.583       63.424       64.495       39.267     4022.566     4159.570     1541.929        1.755        0.486      159.309       21.173        0.018      340.752       14.988      864.305
06/14/2013  09:44:00       62.946      -47.171       30.623       67.995      127.917       66.031     4623.322    16362.806     4360.048        1.623        1.267       78.659       51.938        0.436      341.248       15.827      864.286
06/14/2013  09:45:00       55.487      -43.750       92.343      114.410      208.743      107.243    13089.670    43573.842    11501.031        4.083        3.408       70.660      140.106        3.932      341.483       16.225      864.282
06/14/2013  09:46:00      167.009     -173.431       -1.179       90.278      152.199       82.826     8150.131    23164.483     6860.140        4.807        1.909      240.770       90.174        0.140      341.135       15.636      864.288
06/14/2013  09:47:00       93.209      -61.324       46.769      100.821      111.298       74.593    10164.926    12387.256     5564.101        2.137        1.406      111.573       70.054        0.394      341.297       15.911      864.290
06/14/2013  09:48:00       62.397     -104.313       39.286      118.206      103.468       68.572    13972.618    10705.682     4702.100        2.284        1.469      121.550       62.270        0.262      341.155       15.668      864.280
06/14/2013  09:49:00      139.580     -187.142      -50.597       93.886       94.544       67.328     8814.659     8938.614     4533.032        3.967        1.114      233.462       54.203        0.054      340.832       15.121      864.291
06/14/2013  09:50:00      102.423     -222.146       -5.918       91.757       79.425       51.721     8419.365     6308.362     2675.067        3.864        0.870      244.621       50.948        0.043      340.881       15.203      864.285
06/14/2013  09:51:00       59.768       60.966      101.007       90.521      105.381       62.849     8193.970    11105.098     3949.944        2.037        1.162       85.375       56.277        0.435      341.523       16.292      864.272
06/14/2013  09:52:00      131.207       41.499       73.776      137.186      107.531       82.899    18819.892    11562.950     6872.275        3.081        1.863      137.613       77.852        0.320      341.363       16.021      864.253
06/14/2013  09:53:00       80.924      -83.637       17.717       78.162      103.305       70.433     6109.275    10671.991     4960.845        1.780        1.087      116.378       70.674        0.369      341.532       16.309      864.254
06/14/2013  09:54:00      158.164     -193.450      -33.715       98.800      124.433       59.606     9761.498    15483.464     3552.854        4.618        1.440      249.877       70.095        0.079      340.973       15.359      864.215
06/14/2013  09:55:00      100.273     -167.306       45.002      113.310      263.531      132.852    12839.175    69448.355    17649.615        6.998        4.997      195.054      171.942        0.777      341.058       15.503      864.176
06/14/2013  09:56:00      145.943      -45.041       53.534      102.240      183.890       98.638    10453.103    33815.467     9729.491        4.009        2.700      152.735      110.028        0.519      341.007       15.418      864.191
06/14/2013  09:57:00      129.164       54.415       42.490      113.114       82.778       56.218    12794.666     6852.256     3160.438        2.212        1.140      140.158       47.059        0.113      341.191       15.732      864.167
06/14/2013  09:58:00       69.249       54.293      111.667       89.196      103.256       90.916     7955.979    10661.874     8265.724        2.354        1.344       87.995       83.326        0.897      341.473       16.209      864.154
06/14/2013  09:59:00      119.743       45.568       84.596      114.125      134.178       78.780    13024.455    18003.772     6206.234        3.040        1.862      128.121       70.112        0.299      341.517       16.283      864.139
06/14/2013  10:00:00      132.177      113.082      165.106      108.516      142.708       80.547    11775.691    20365.644     6487.777        4.807        1.931      173.950       86.868        0.249      341.204       15.752      864.146
06/14/2013  10:01:00      176.187     -126.873       16.302      116.959      127.386       81.518    13679.459    16227.243     6645.121        4.197        1.828      217.114       90.897        0.175      341.007       15.419      864.128
06/14/2013  10:02:00      102.137      130.071      142.982      102.177       97.684       75.321    10440.088     9542.098     5673.184        3.672        1.283      165.380       56.453        0.117      341.277       15.875      864.111
06/14/2013  10:03:00      210.804      159.566       46.325      124.109       79.702       77.742    15403.152     6352.469     6043.886        4.992        1.390      264.385       21.423        0.007      341.106       15.586      864.135
06/14/2013  10:04:00      195.011      119.593       18.330       71.420       69.918       54.846     5100.761     4888.492     3008.060        3.283        0.650      228.762       36.283        0.025      341.028       15.454      864.120
06/14/2013  10:05:00      245.945      148.402       46.333      102.863       74.507       57.617    10580.733     5551.302     3319.703        5.205        0.973      287.250       50.457        0.031      341.019       15.440      864.104
06/14/2013  10:06:00      189.458      151.507       58.357      114.922       87.871       68.453    13207.001     7721.384     4685.844        4.393        1.281      242.587       36.224        0.022      341.470       16.203      864.076
06/14/2013  10:07:00      152.934       91.662       80.118      108.401      105.223       81.002    11750.793    11071.856     6561.360        3.379        1.469      178.299       70.847        0.158      341.681       16.559      864.071
06/14/2013  10:08:00      299.370      232.157       65.415      140.582      115.943      105.779    19763.178    13442.743    11189.289        9.609        2.220      378.839       64.172        0.029      341.323       15.952      864.056
06/14/2013  10:09:00      138.050      126.446      139.329      157.991      149.243       99.624    24961.084    22273.366     9924.859        5.580        2.858      187.207       87.643        0.219      341.191       15.730      864.047
06/14/2013  10:10:00       40.999      108.674      128.934       76.970       77.897       64.174     5924.430     6067.991     4118.279        2.311        0.806      116.151       58.668        0.255      341.339       15.980      864.055
06/14/2013  10:11:00      218.040      131.614       41.635       68.514       72.804       62.719     4694.139     5300.394     3933.653        4.026        0.696      254.683       46.586        0.033      341.063       15.511      864.043
06/14/2013  10:12:00      103.541       67.688       48.016      109.680       81.731       52.796    12029.778     6679.900     2787.373        1.955        1.075      123.703       24.098        0.038      341.454       16.177      864.020
06/14/2013  10:13:00      116.563      -85.298       21.410      116.360       74.239       62.833    13539.588     5511.473     3947.948        2.216        1.150      144.439       65.782        0.207      341.246       15.826      864.001
06/14/2013  10:14:00      153.071     -180.587       33.963      105.520      197.489       83.021    11134.504    39001.777     6892.552        5.710        2.851      236.732       97.484        0.170      341.419       16.116      863.974
06/14/2013  10:15:00      165.585      -92.201       67.814      129.593      146.744      103.472    16794.397    21533.658    10706.477        4.477        2.452      189.524      110.736        0.341      341.369       16.031      863.975
06/14/2013  10:16:00      123.900      -25.334       86.929      140.303      166.145       93.577    19685.070    27604.211     8756.744        3.979        2.802      126.463      112.288        0.788      341.267       15.860      863.951
06/14/2013  10:17:00      128.692       69.432       75.058      103.998      104.352       68.245    10815.585    10889.369     4657.352        2.668        1.318      146.227       57.129        0.153      341.270       15.865      863.958
06/14/2013  10:18:00      124.972       75.531       62.475      110.097       72.724       65.552    12121.273     5288.772     4297.005        2.346        1.085      146.024       56.544        0.150      341.126       15.622      863.927
06/14/2013  10:19:00       76.976       93.183      116.594       71.439      101.255       78.595     5103.464    10252.485     6177.171        2.486        1.077      120.865       69.562        0.331      341.157       15.674      863.921
06/14/2013  10:20:00      179.839       -4.105       60.217      121.338       65.958       79.469    14722.876     4350.434     6315.385        3.068        1.269      179.886       74.851        0.173      341.026       15.452      863.924
06/14/2013  10:21:00       69.562       24.297       37.937       59.213       52.187       36.936     3506.233     2723.437     1364.267        0.723        0.380       73.684       21.861        0.088      341.645       16.501      863.893
06/14/2013  10:22:00       35.778      -63.529       13.142       50.975       38.264       42.993     2598.418     1464.166     1848.409        0.570        0.296       72.911       29.863        0.168      341.573       16.379      863.859
06/14/2013  10:23:00      111.704       53.890       46.294      123.929      110.756       85.583    15358.505    12266.891     7324.437        2.623        1.747      124.024       83.425        0.452      341.865       16.873      863.829
06/14/2013  10:24:00      165.979      158.544      118.559      111.040       80.903       76.641    12329.904     6545.227     5873.905        4.574        1.237      229.532       66.589        0.084      341.219       15.776      863.830
06/14/2013  10:25:00      134.126      117.030       49.347      116.861       88.791       68.078    13656.463     7883.793     4634.615        3.014        1.309      178.005       56.987        0.102      341.372       16.039      863.840
06/14/2013  10:26:00      237.406      176.397       30.986      122.203       75.172       73.302    14933.536     5650.781     5373.198        5.719        1.298      295.765       42.934        0.021      341.380       16.049      863.839
06/14/2013  10:27:00      282.192      179.722       37.793      103.112       96.397       75.469    10632.060     9292.402     5695.598        6.949        1.281      334.563       53.988        0.026      341.322       15.952      863.858
06/14/2013  10:28:00      120.794       61.864       -4.985       93.526       73.955       41.129     8747.143     5469.408     1691.575        1.717        0.795      135.714       22.764        0.028      340.981       15.378      863.873
06/14/2013  10:29:00      116.736      103.875        8.017       84.547       50.688       39.990     7148.236     2569.236     1599.160        1.790        0.566      156.260       29.381        0.035      341.176       15.707      863.851
06/14/2013  10:30:00      144.135      224.804       14.519      184.582       84.887       74.822    34070.664     7205.847     5598.277        5.919        2.344      267.042       95.968        0.129      341.282       15.882      863.827
06/14/2013  10:31:00      350.021      254.530       39.072      115.393       91.837       83.064    13315.446     8434.045     6899.660       10.873        1.432      432.782       39.604        0.008      341.283       15.884      863.784
06/14/2013  10:32:00      162.970       89.603       34.614      106.812       89.733       79.450    11408.805     8051.964     6312.365        3.077        1.289      185.978       66.785        0.129      341.750       16.678      863.793
06/14/2013  10:33:00      122.579      108.347       83.858      115.322       88.835       73.703    13299.171     7891.714     5432.113        3.020        1.331      163.600       51.965        0.101      342.154       17.363      863.787
06/14/2013  10:34:00      111.002      113.777       97.298      108.583       83.247       63.739    11790.278     6930.089     4062.723        2.875        1.139      158.955       50.246        0.100      342.048       17.183      863.769
06/14/2013  10:35:00      276.393      158.699       56.597      149.296      117.908      118.887    22289.349    13902.369    14134.104        7.754        2.516      318.714       56.903        0.032      341.941       17.000      863.771
06/14/2013  10:36:00      234.349      125.498       29.446      119.912      112.005       71.524    14378.916    12545.161     5115.696        5.178        1.602      265.836       37.515        0.020      341.593       16.411      863.783
06/14/2013  10:37:00      244.039      149.538       34.744      102.789       97.659       70.488    10565.561     9537.233     4968.488        5.409        1.254      286.211       55.748        0.038      341.474       16.206      863.750
06/14/2013  10:38:00      128.841      142.386      114.938      124.463      120.837      107.802    15491.023    14601.476    11621.309        4.589        2.086      192.025       92.898        0.234      342.227       17.486      863.742
06/14/2013  10:39:00      218.546      130.767      152.742      139.912      125.766      103.406    19575.395    15817.191    10692.716        6.713        2.304      254.681       72.422        0.081      341.390       16.066      863.737
06/14/2013  10:40:00      207.297      133.414       76.761      162.879      103.468       77.709    26529.621    10705.558     6038.615        5.496        2.164      246.519       85.024        0.119      341.497       16.249      863.704
06/14/2013  10:41:00      132.175       41.226       99.564      125.768      203.261      124.816    15817.659    41315.085    15578.989        5.088        3.636      138.456      126.667        0.837      341.807       16.774      863.681
06/14/2013  10:42:00      102.975       76.728      127.182      105.454      107.956       95.208    11120.512    11654.442     9064.644        3.225        1.592      128.418       75.714        0.348      342.315       17.637      863.670
06/14/2013  10:43:00      199.793      147.937      108.997      175.931      102.080       82.521    30951.684    10420.395     6809.751        6.092        2.409      248.601       91.289        0.135      341.977       17.061      863.692
06/14/2013  10:44:00      169.650      151.937       78.714      144.391      100.511       92.016    20848.839    10102.445     8466.950        4.873        1.971      227.741       74.101        0.106      342.085       17.244      863.687
06/14/2013  10:45:00      319.541      176.137       76.444      149.118      134.516      103.666    22236.174    18094.545    10746.554        9.502        2.554      364.871       63.302        0.030      341.890       16.915      863.683
06/14/2013  10:46:00      266.264      111.392      109.097      153.709      135.117      107.832    23626.383    18256.596    11627.788        7.435        2.676      288.626       86.149        0.089      341.887       16.909      863.677
06/14/2013  10:47:00      195.973      160.634      124.961      138.784      103.834       97.596    19261.122    10781.480     9524.913        5.969        1.978      253.395       83.425        0.108      341.724       16.632      863.691
06/14/2013  10:48:00      137.491       83.653       93.318       71.590       72.284       60.884     5125.094     5225.013     3706.917        2.433        0.703      160.940       35.363        0.048      342.059       17.202      863.668
06/14/2013  10:49:00      162.098       77.081       43.959      122.174       90.811       74.160    14926.481     8246.596     5499.740        3.141        1.434      179.492       62.547        0.121      342.276       17.570      863.644
06/14/2013  10:50:00      101.220       62.737       37.692      100.408       74.531       53.124    10081.854     5554.939     2822.129        1.703        0.923      119.086       45.158        0.144      342.307       17.625      863.632
06/14/2013  10:51:00      144.071       99.500       59.542       89.508       92.975       66.026     8011.765     8644.290     4359.479        2.760        1.051      175.090       39.061        0.050      342.752       18.380      863.610
06/14/2013  10:52:00      179.678      132.375      162.729      149.160      127.418      102.202    22248.845    16235.260    10445.264        6.260        2.446      223.176       86.951        0.152      342.076       17.229      863.604
06/14/2013  10:53:00      165.153       77.263      135.475      157.568      139.057       90.145    24827.679    19336.777     8126.199        5.193        2.615      182.333       96.906        0.282      341.892       16.917      863.603
06/14/2013  10:54:00       42.923      -73.517       52.538       73.785      124.980       71.097     5444.174    15619.966     5054.803        1.806        1.306       85.130       80.003        0.883      341.697       16.589      863.587
06/14/2013  10:55:00      118.477       52.683       76.125      124.161      162.874       90.882    15416.078    26527.966     8259.478        3.640        2.510      129.662       95.127        0.538      341.874       16.886      863.530
06/14/2013  10:56:00      154.760       39.545       78.536      111.662      123.913       88.352    12468.338    15354.378     7806.029        3.365        1.781      159.733       76.747        0.231      341.938       16.997      863.532
06/14/2013  10:57:00      103.466       22.735       84.717      130.948      168.600       94.518    17147.509    28425.996     8933.608        3.644        2.725      105.935       96.594        0.831      342.149       17.355      863.488
06/14/2013  10:58:00      161.819      166.254      141.063       90.035       88.958       72.264     8106.302     7913.528     5222.025        4.748        1.062      232.004       54.633        0.055      341.985       17.074      863.483
06/14/2013  10:59:00      176.703      197.227      162.524      122.409      108.874      102.045    14984.060    11853.480    10413.251        6.689        1.863      264.807       85.841        0.105      341.925       16.973      863.465
06/14/2013  11:00:00      344.202      164.818       61.058      167.852      147.376      114.989    28174.359    21719.585    13222.522       10.623        3.156      381.628       76.545        0.040      341.780       16.726      863.442
06/14/2013  11:01:00      178.337      145.571       54.518      161.052      120.956       83.134    25937.906    14630.394     6911.182        5.171        2.374      230.207       51.066        0.049      342.094       17.259      863.482
06/14/2013  11:02:00      182.700      119.271       55.139       97.090       92.399       87.391     9426.511     8537.511     7637.199        3.812        1.280      218.185       52.024        0.057      341.957       17.028      863.491
06/14/2013  11:03:00      256.736      142.700       38.302      141.075      118.210       79.536    19902.172    13973.552     6326.028        6.396        2.010      293.729       48.459        0.027      341.552       16.339      863.494
06/14/2013  11:04:00      169.535      136.979       27.042      152.447      126.847       93.083    23239.944    16090.281     8664.388        4.811        2.400      217.957       56.301        0.067      341.834       16.818      863.463
06/14/2013  11:05:00      262.456      169.243       28.229      103.591       98.310       74.501    10731.101     9664.862     5550.413        6.213        1.297      312.292       50.901        0.027      341.794       16.751      863.437
06/14/2013  11:06:00      205.379      124.382       45.962      108.939       66.171       71.581    11867.602     4378.595     5123.821        4.056        1.069      240.107       37.453        0.024      342.210       17.457      863.428
06/14/2013  11:07:00      279.546      151.621       19.881       93.250       93.555       61.492     8695.604     8752.558     3781.266        6.138        1.061      318.017       35.598        0.013      342.054       17.193      863.416
06/14/2013  11:08:00       94.201       97.844       83.238       95.975       90.003       89.790     9211.213     8100.557     8062.164        2.537        1.269      135.820       70.724        0.271      342.263       17.547      863.426
06/14/2013  11:09:00      213.215      136.257       63.727      164.391      168.592      138.197    27024.506    28423.361    19098.318        7.130        3.727      253.035      108.068        0.182      342.453       17.872      863.422
06/14/2013  11:10:00      234.733      128.035       93.011      137.453      114.580       99.028    18893.366    13128.523     9806.612        6.098        2.091      267.381       75.222        0.079      342.036       17.162      863.439
06/14/2013  11:11:00      303.744      176.591       52.910      133.861      110.829       84.660    17918.715    12283.076     7167.319        8.180        1.868      351.347       65.805        0.035      342.084       17.243      863.438
06/14/2013  11:12:00      259.533      232.734       49.825      118.788       98.558       94.553    14110.657     9713.614     8940.177        7.838        1.638      348.601       73.339        0.044      341.809       16.778      863.415
06/14/2013  11:13:00      208.413      165.032      116.445      149.885      110.391       78.665    22465.586    12186.143     6188.170        6.253        2.042      265.841       52.651        0.039      341.879       16.894      863.420
06/14/2013  11:14:00      254.670      259.135      223.928      163.940      161.981      151.208    26876.349    26237.778    22863.743       12.905        3.799      363.328      128.714        0.126      341.732       16.647      863.393
06/14/2013  11:15:00      174.430      205.996      181.343      144.027      133.792      119.552    20743.804    17900.309    14292.604        7.933        2.647      269.927       91.063        0.114      341.510       16.269      863.416
06/14/2013  11:16:00      144.402      135.909       75.252      104.983       72.798       96.033    11021.387     5299.554     9222.299        3.526        1.277      198.300       77.976        0.155      341.846       16.838      863.419
06/14/2013  11:17:00      133.347       72.656       50.143       76.539       58.487       54.069     5858.249     3420.706     2923.411        1.889        0.610      151.856       22.292        0.022      342.448       17.864      863.399
06/14/2013  11:18:00      174.518      124.457       60.641      106.156       65.666       71.154    11269.067     4312.041     5062.885        3.513        1.032      214.351       53.471        0.062      342.554       18.042      863.397
06/14/2013  11:19:00      229.947      143.151       27.165       77.355       59.980       54.747     5983.867     3597.634     2997.192        4.334        0.629      270.865       30.142        0.012      341.969       17.046      863.383
06/14/2013  11:20:00      202.303      153.874       36.016      125.654       76.632       72.051    15789.009     5872.477     5191.301        4.637        1.343      254.173       36.612        0.021      342.016       17.126      863.374
06/14/2013  11:21:00       17.841      160.593      -12.173       54.789      123.508       43.022     3001.782    15254.142     1850.895        2.318        1.005      161.581       46.732        0.084      342.076       17.231      863.345
06/14/2013  11:22:00      149.290      -20.737        7.754      149.291      159.893       64.353    22287.679    25565.709     4141.267        3.738        2.600      150.723       44.558        0.087      342.364       17.720      863.340
06/14/2013  11:23:00      216.684      110.436       40.707      116.387       81.668       64.942    13545.982     6669.710     4217.456        4.261        1.222      243.204       24.281        0.010      341.905       16.938      863.349
06/14/2013  11:24:00      216.638      129.355       79.769      151.830      110.386       80.709    23052.377    12185.097     6513.956        5.588        2.088      252.318       58.221        0.053      341.996       17.095      863.315
06/14/2013  11:25:00      168.305      141.256       79.612      143.254      126.364      110.204    20521.790    15967.769    12144.939        5.162        2.432      219.727       99.967        0.207      342.293       17.598      863.295
06/14/2013  11:26:00      131.437       86.847       55.541      121.971       93.707       81.334    14876.882     8781.039     6615.164        2.908        1.514      157.537       51.690        0.108      342.357       17.709      863.309
06/14/2013  11:27:00      155.658       81.502       36.232      103.741       69.767       59.036    10762.248     4867.482     3485.209        2.565        0.956      175.704       32.185        0.034      342.601       18.122      863.314
06/14/2013  11:28:00      179.503      102.264       43.829       90.137       73.206       65.672     8124.607     5359.145     4312.791        3.119        0.890      206.590       37.278        0.033      342.907       18.643      863.335
06/14/2013  11:29:00      267.766      174.405       84.468      168.539      116.284      118.689    28405.517    13521.909    14087.196        8.262        2.801      319.556       75.381        0.056      342.404       17.788      863.306
06/14/2013  11:30:00      226.621      146.553      101.816      143.075      108.206      113.778    20470.402    11708.533    12945.482        6.415        2.256      269.880       77.749        0.083      342.195       17.432      863.275
06/14/2013  11:31:00      157.130      123.183       51.830      124.683      110.785       79.223    15545.942    12273.341     6276.290        3.832        1.705      199.659       38.267        0.037      342.474       17.906      863.264
06/14/2013  11:32:00      190.662      112.100       69.015      100.054       91.196       67.363    10010.797     8316.694     4537.794        3.827        1.143      221.175       53.844        0.059      342.362       17.715      863.259
06/14/2013  11:33:00      206.106      164.186       29.082      167.882      109.037       90.799    28184.369    11889.047     8244.531        5.929        2.416      263.508       49.262        0.035      342.311       17.629      863.235
06/14/2013  11:34:00      350.902      212.332      137.885      309.396      205.346      170.823    95725.873    42167.184    29180.459       17.712        8.354      410.143      105.631        0.066      342.517       17.979      863.148
06/14/2013  11:35:00      169.360      153.624      161.819      170.696      120.102       98.023    29137.077    14424.481     9608.535        6.581        2.659      228.655       70.672        0.096      342.460       17.883      863.245
06/14/2013  11:36:00      134.010       12.772       57.866      119.072      211.160       91.201    14178.129    44588.608     8317.555        4.426        3.354      134.617       99.653        0.548      342.083       17.242      863.254
06/14/2013  11:37:00      152.112      -19.762       76.674      126.681      136.583      100.895    16048.100    18654.815    10179.842        3.714        2.244      153.391       93.749        0.374      342.299       17.609      863.232
06/14/2013  11:38:00       43.046       -3.561       75.656       61.467       81.296       57.272     3778.242     6609.035     3280.127        1.063        0.683       43.193       55.059        1.625      342.538       18.017      863.256
06/14/2013  11:39:00      241.307      120.769       40.878      132.164       94.512       79.027    17467.280     8932.441     6245.224        5.356        1.632      269.841       59.620        0.049      342.253       17.530      863.277
06/14/2013  11:40:00      130.342      121.344       90.260      110.843       69.310       77.703    12286.246     4803.851     6037.707        3.149        1.156      178.082       68.159        0.146      342.640       18.189      863.248
06/14/2013  11:41:00      109.434      131.079      138.416      126.336      123.281      112.549    15960.838    15198.199    12667.209        4.606        2.191      170.756       89.278        0.273      342.580       18.086      863.251
06/14/2013  11:42:00      150.297      178.417      169.708      109.114      134.867       84.596    11905.946    18188.973     7156.462        6.023        1.863      233.285       85.038        0.133      342.347       17.690      863.244
06/14/2013  11:43:00      198.854      189.081      180.825      160.825      136.335      100.205    25864.764    18587.132    10040.988        8.123        2.725      274.398       95.634        0.121      342.486       17.926      863.235
06/14/2013  11:44:00      136.424      133.867      158.924      144.383      127.580       92.396    20846.530    16276.572     8537.092        5.372        2.283      191.133       90.165        0.223      342.285       17.584      863.249
06/14/2013  11:45:00      107.462       40.668       61.441       89.055       88.827       64.942     7930.769     7890.266     4217.447        1.850        1.002      114.899       39.655        0.119      342.270       17.562      863.212
06/14/2013  11:46:00      121.485       84.998       44.422       91.112       66.928       58.773     8301.403     4479.308     3454.222        2.009        0.812      148.268       33.595        0.051      342.631       18.174      863.183
06/14/2013  11:47:00      250.800      163.802       47.288      136.167      100.805       69.732    18541.559    10161.548     4862.518        6.276        1.678      299.552       45.987        0.024      342.431       17.832      863.158
06/14/2013  11:48:00      413.679      218.087       37.822      191.609      130.261      115.712    36713.955    16967.939    13389.366       14.358        3.354      467.645       90.128        0.037      342.534       18.008      863.113
06/14/2013  11:49:00      252.461      123.495       97.123      162.132      115.266      113.439    26286.729    13286.364    12868.336        7.042        2.622      281.047       91.712        0.106      342.581       18.087      863.118
06/14/2013  11:50:00      245.757      122.307      110.336      161.818      115.574       96.909    26185.085    13357.282     9391.336        6.822        2.447      274.509       81.850        0.089      342.487       17.928      863.110
06/14/2013  11:51:00      201.257       99.379       82.253      130.271      163.700      106.384    16970.493    26797.840    11317.630        5.611        2.754      224.456       80.214        0.128      342.707       18.303      863.118
06/14/2013  11:52:00      264.641      108.915       91.830      133.555      114.905       96.421    17836.896    13203.183     9297.100        6.533        2.017      286.177       63.486        0.049      342.689       18.271      863.125
06/14/2013  11:53:00      222.465      129.560      128.531      140.592      164.260      102.366    19766.250    26981.338    10478.841        7.000        2.861      257.442       86.832        0.114      342.591       18.105      863.128
06/14/2013  11:54:00      157.198      -38.791       86.124      117.076      182.921      110.180    13706.863    33460.045    12139.617        4.646        2.965      161.913      115.269        0.507      342.794       18.450      863.140
06/14/2013  11:55:00      151.379      -26.695      111.892      130.337      143.653       99.705    16987.616    20636.197     9941.015        4.185        2.378      153.715       94.077        0.375      342.843       18.534      863.145
06/14/2013  11:56:00      110.177      136.827      122.803       91.061      101.852       92.614     8292.124    10373.750     8577.368        3.659        1.362      175.672       75.477        0.185      342.930       18.683      863.142
06/14/2013  11:57:00      278.655      101.412       22.365      121.904      102.996       82.836    14860.525    10608.238     6861.793        6.038        1.617      296.535       58.466        0.039      342.890       18.613      863.118
06/14/2013  11:58:00      351.958      157.094       37.757      188.998      129.150       89.649    35720.097    16679.774     8037.012       10.520        3.022      385.426       65.055        0.028      342.602       18.123      863.084
06/14/2013  11:59:00      190.256       96.799       67.935      187.387      163.815       97.134    35113.925    26835.480     9434.962        6.077        3.569      213.465       76.123        0.127      342.815       18.487      863.071
06/14/2013  12:00:00      173.341      105.398      116.876      138.271      107.540       76.000    19118.846    11564.794     5775.982        4.563        1.823      202.870       57.196        0.079      342.864       18.569      863.112
06/14/2013  12:01:00      199.776      186.284      202.199      144.340      141.299      107.881    20834.076    19965.295    11638.303        8.396        2.622      273.153       93.308        0.117      342.457       17.877      863.088
06/14/2013  12:02:00      171.361      200.242      192.132      134.436      138.344       97.865    18073.074    19139.185     9577.526        7.657        2.339      263.555       94.426        0.128      342.257       17.538      863.104
06/14/2013  12:03:00       89.271       79.832      102.381      105.575       81.238       46.052    11146.134     6599.611     2120.810        2.234        0.993      119.760       35.156        0.086      342.535       18.012      863.119
06/14/2013  12:04:00       81.042     -103.186       12.655       67.531       74.678       47.837     4560.419     5576.800     2288.332        1.490        0.621      131.207       50.315        0.147      342.285       17.588      863.073
06/14/2013  12:05:00      100.727       27.346       40.278       66.529      109.289       50.535     4426.166    11944.114     2553.832        1.572        0.946      104.373       45.469        0.190      342.386       17.759      863.058
06/14/2013  12:06:00       57.580       45.585       49.994       68.865       53.765       43.552     4742.349     2890.720     1896.820        0.871        0.476       73.440       17.020        0.054      342.914       18.656      863.035
06/14/2013  12:07:00       36.497       29.988       41.808       74.752       56.953       56.262     5587.789     3243.597     3165.421        0.799        0.600       47.237       46.124        0.953      343.293       19.302      863.024
06/14/2013  12:08:00      250.834      135.798       61.861      126.641       90.003       77.909    16037.945     8100.461     6069.751        5.769        1.510      285.235       60.573        0.045      343.106       18.982      863.020
06/14/2013  12:09:00      165.036      161.985      122.327      131.616      107.415       94.423    17322.889    11537.989     8915.614        5.310        1.889      231.249       90.198        0.152      343.035       18.860      862.997
06/14/2013  12:10:00      231.598        7.956      156.299      208.536      211.352      133.235    43487.433    44669.539    17751.509        9.200        5.295      231.735      128.982        0.310      342.870       18.579      862.986
06/14/2013  12:11:00      136.129      -13.932       93.540      139.962      187.819       96.101    19589.423    35276.105     9235.412        4.577        3.205      136.840      112.275        0.673      343.251       19.227      862.993
06/14/2013  12:12:00      151.512      -87.538       74.103      138.858      223.557      129.460    19281.414    49977.632    16759.822        6.105        4.301      174.982      157.660        0.812      343.014       18.823      863.012
06/14/2013  12:13:00      274.577     -340.289      -45.511      140.025      177.418       77.919    19607.092    31477.043     6071.314       12.520        2.858      437.252       69.351        0.025      342.606       18.129      862.996
06/14/2013  12:14:00      196.266       46.818      118.550      164.022      171.309      119.590    26903.093    29346.753    14301.873        6.264        3.528      201.773      127.374        0.399      342.743       18.363      863.001
06/14/2013  12:15:00      135.888      -96.576       50.195      148.735      152.486       80.514    22122.020    23251.875     6482.577        4.107        2.593      166.711      106.326        0.407      342.862       18.566      863.004
06/14/2013  12:16:00       54.329     -151.215        8.735       66.490       81.797       47.873     4420.859     6690.798     2291.862        1.965        0.670      160.678       25.835        0.026      342.732       18.345      862.978
06/14/2013  12:17:00      -13.760      -80.145        7.008       83.324       80.047       46.647     6942.893     6407.473     2175.959        1.109        0.776       81.318       30.341        0.139      343.274       19.268      862.909
06/14/2013  12:18:00      -68.688      -54.294      -16.269       51.520       86.612       34.682     2654.263     7501.720     1202.834        0.964        0.568       87.555       34.521        0.155      342.632       18.179      862.882
06/14/2013  12:19:00       81.698      -10.462       42.175       71.318       78.770       58.692     5086.309     6204.678     3444.745        1.165        0.737       82.365       54.033        0.430      343.013       18.824      862.861
06/14/2013  12:20:00       93.024      -44.933       67.398      109.187      154.619       86.069    11921.881    23906.995     7407.917        2.922        2.162      103.308      107.499        1.083      343.216       19.170      862.832
06/14/2013  12:21:00       74.019       73.384       62.169       74.758       81.456       52.298     5588.797     6635.128     2735.127        1.484        0.748      104.230       35.251        0.114      343.096       18.966      862.833
06/14/2013  12:22:00      270.940      157.528       27.239      129.122      116.992       92.959    16672.442    13687.181     8641.451        6.898        1.950      313.406       54.934        0.031      342.944       18.705      862.818
06/14/2013  12:23:00      245.106      168.801      128.246      183.697      126.525      129.113    33744.569    16008.616    16670.057        8.571        3.321      297.608      112.710        0.143      342.938       18.695      862.784
06/14/2013  12:24:00      265.980      151.980       67.040      150.215      140.199      117.275    22564.448    19655.788    13753.523        7.714        2.799      306.339       82.426        0.072      343.230       19.191      862.821
06/14/2013  12:25:00      332.632      198.989      111.964      162.129       91.844       89.556    26285.971     8435.377     8020.311       10.275        2.137      387.609       80.125        0.043      342.622       18.157      862.806
06/14/2013  12:26:00      151.066      125.655      100.250      161.421       96.153       82.135    26056.579     9245.401     6746.104        4.535        2.102      196.494       67.990        0.120      343.041       18.871      862.814
06/14/2013  12:27:00       26.758       14.924       58.287       64.802      130.715       81.589     4199.342    17086.404     6656.843        1.613        1.397       30.639       27.568        0.810      343.161       19.076      862.814
06/14/2013  12:28:00      106.216     -174.508        5.496       67.673       77.107       40.636     4579.611     5945.449     1651.323        2.697        0.609      204.291       40.104        0.039      342.646       18.199      862.789
06/14/2013  12:29:00       38.056       22.008       -2.557       62.849      120.764       42.718     3949.945    14583.980     1824.795        1.114        1.018       43.962       32.054        0.532      343.227       19.189      862.756
06/14/2013  12:30:00      120.445      108.773       10.205      102.465       57.826       45.290    10499.148     3343.898     2051.190        2.117        0.795      162.292       37.304        0.053      343.358       19.412      862.747
06/14/2013  12:31:00      164.622       85.214       42.079       89.011       71.871       51.801     7923.010     5165.428     2683.344        2.595        0.789      185.369       22.555        0.015      343.464       19.593      862.747
06/14/2013  12:32:00      210.985       72.445       56.974      115.496      112.158       80.206    13339.310    12579.392     6433.053        4.267        1.618      223.076       46.724        0.044      343.433       19.539      862.749
06/14/2013  12:33:00      139.774       95.688       66.412      126.575       89.382       85.132    16021.110     7989.076     7247.441        3.217        1.563      169.390       73.602        0.189      343.715       20.020      862.760
06/14/2013  12:34:00      161.981      -76.658       13.181      117.769      238.621      109.024    13869.472    56940.187    11886.268        5.748        4.135      179.204      132.813        0.549      343.136       19.034      862.771
06/14/2013  12:35:00      201.770      -50.913       84.147      144.753      196.865      119.354    20953.334    38755.712    14245.340        6.215        3.698      208.094      129.034        0.384      342.934       18.689      862.779
06/14/2013  12:36:00      125.299      -56.741       15.164       78.296      126.936       71.110     6130.304    16112.818     5056.570        2.322        1.365      137.548       71.939        0.274      342.740       18.360      862.755
06/14/2013  12:37:00      158.370      119.478       84.554       95.311       66.488       61.682     9084.233     4420.668     3804.614        3.190        0.865      198.384       49.777        0.063      342.909       18.645      862.759
06/14/2013  12:38:00      122.127       96.821      105.647      106.137       83.892       67.513    11265.095     7037.875     4558.021        2.915        1.143      155.850       59.188        0.144      342.882       18.600      862.765
06/14/2013  12:39:00      110.212      103.266       79.455      102.936       79.660       63.348    10595.740     6345.721     4013.004        2.503        1.048      151.032       40.983        0.074      343.312       19.332      862.747
06/14/2013  12:40:00      249.414      150.971       83.470      183.034      103.015       85.621    33501.409    10612.085     7330.882        7.170        2.572      291.547       49.322        0.029      343.168       19.086      862.724
06/14/2013  12:41:00      131.854      162.184      164.739      113.233      130.925      124.420    12821.780    17141.363    15480.407        5.813        2.272      209.020      114.243        0.299      342.575       18.079      862.744
06/14/2013  12:42:00      206.293       94.285       27.281      121.084       73.068       74.379    14661.353     5339.002     5532.184        3.886        1.277      226.818       43.714        0.037      342.705       18.298      862.753
06/14/2013  12:43:00       88.604       53.718       37.806       54.747       71.626       64.388     2997.198     5130.251     4145.840        1.222        0.614      103.616       50.053        0.233      342.909       18.649      862.697
06/14/2013  12:44:00       44.115       31.415       37.795       49.646       33.667       36.135     2464.693     1133.482     1305.734        0.463        0.245       54.158       26.553        0.240      343.238       19.208      862.652
06/14/2013  12:45:00       73.259       65.893        9.443       97.254       61.122       52.463     9458.324     3735.948     2752.376        1.287        0.797       98.534       38.789        0.155      343.556       19.751      862.605
06/14/2013  12:46:00      236.731      187.052        2.226      152.997      121.011       97.504    23408.109    14643.738     9507.097        6.929        2.378      301.711       56.649        0.035      343.015       18.826      862.592
06/14/2013  12:47:00       95.721      166.448        3.729      111.040      103.292       60.273    12329.811    10669.305     3632.785        3.175        1.332      192.009       53.741        0.078      343.065       18.911      862.611
06/14/2013  12:48:00      204.661      144.819        8.601      111.529       93.310       75.679    12438.748     8706.735     5727.331        4.490        1.344      250.716       18.495        0.005      342.704       18.299      862.597
06/14/2013  12:49:00      194.153      117.948       40.552       94.665       77.644       77.230     8961.517     6028.636     5964.447        3.710        1.048      227.172       32.109        0.020      343.223       19.179      862.571
06/14/2013  12:50:00      148.776      105.831       40.847       83.959       62.349       53.582     7049.134     3887.436     2871.026        2.440        0.690      182.577       30.721        0.028      343.267       19.256      862.557
06/14/2013  12:51:00       79.155       23.833       23.060       68.883       80.781       44.165     4744.865     6525.604     1950.560        1.029        0.661       82.666       19.119        0.053      343.439       19.551      862.524
06/14/2013  12:52:00      231.192      113.696       52.440      146.381       92.837       73.421    21427.364     8618.773     5390.631        5.227        1.772      257.636       52.455        0.041      343.297       19.307      862.508
06/14/2013  12:53:00      122.892      108.028       61.127      114.338       89.958       92.377    13073.118     8092.455     8533.572        3.010        1.485      163.623       15.083        0.008      343.345       19.389      862.484
06/14/2013  12:54:00      208.603      196.815      158.579      155.053      118.914      113.847    24041.541    14140.619    12961.172        7.926        2.557      286.796      107.268        0.140      343.288       19.290      862.492
06/14/2013  12:55:00      222.282      174.653      195.671      113.975      152.461      112.583    12990.356    23244.321    12674.855        8.354        2.445      282.689      104.494        0.137      342.995       18.790      862.487
06/14/2013  12:56:00       96.633       30.018       36.468       63.007       86.389       59.825     3969.894     7463.096     3578.977        1.329        0.751      101.188       48.101        0.226      342.926       18.677      862.472
06/14/2013  12:57:00      111.383      143.690      147.225      103.688       79.278       71.571    10751.155     6284.976     5122.440        3.844        1.108      181.805       47.720        0.069      343.396       19.476      862.453
06/14/2013  12:58:00      162.522        0.370      103.330      186.497      137.428      103.664    34780.951    18886.372    10746.284        5.074        3.221      162.523       97.224        0.358      343.583       19.796      862.440
06/14/2013  12:59:00      138.944       43.240      139.077      127.515      184.962      122.066    16259.964    34210.788    14899.988        5.293        3.269      145.516      129.071        0.787      343.521       19.689      862.429
06/14/2013  13:00:00      221.347     -348.659      -41.403      107.745      127.072       67.952    11609.030    16147.305     4617.447       10.232        1.619      412.986       76.445        0.034      343.104       18.976      862.415
06/14/2013  13:01:00      187.088     -181.829       33.622      142.181      261.129      124.029    20215.391    68188.362    15383.129        8.647        5.189      260.891      174.162        0.446      343.375       19.438      862.400
06/14/2013  13:02:00      156.863     -151.758       12.934       78.977      132.214       64.652     6237.295    17480.512     4179.906        3.785        1.395      218.258       77.462        0.126      343.125       19.015      862.387
06/14/2013  13:03:00      109.465        3.941       76.539       89.411      117.484       76.561     7994.255    13802.455     5861.576        2.275        1.383      109.536       77.509        0.501      343.216       19.171      862.369
06/14/2013  13:04:00      202.477     -156.022       20.141       95.060      130.180       77.858     9036.327    16946.872     6061.852        4.889        1.602      255.617       85.354        0.111      343.269       19.259      862.373
06/14/2013  13:05:00      180.981     -208.016      -15.155       80.279      117.080       54.564     6444.712    13707.745     2977.268        4.969        1.156      275.725       55.566        0.041      343.264       19.249      862.362
06/14/2013  13:06:00       72.191     -112.459       23.908      108.788      136.041       76.755    11834.825    18507.101     5891.273        2.732        1.812      133.636       85.969        0.414      343.638       19.891      862.354
06/14/2013  13:07:00       48.984       53.899       39.347       40.880       46.181       56.367     1671.169     2132.664     3177.207        0.692        0.349       72.832       28.047        0.148      343.320       19.349      862.366
06/14/2013  13:08:00      112.729       75.424       55.408       71.756       53.169       45.605     5148.966     2826.904     2079.840        1.576        0.503      135.634       25.506        0.035      343.746       20.075      862.347
06/14/2013  13:09:00      265.726      176.749       87.782      183.597      125.130       91.999    33707.729    15657.603     8463.759        8.368        2.891      319.141       65.309        0.042      343.652       19.912      862.294
06/14/2013  13:10:00       84.426       35.271       50.658      106.671       57.937       47.463    11378.724     3356.728     2252.712        1.396        0.849       91.498       34.481        0.142      343.330       19.364      862.336
06/14/2013  13:11:00      129.200       61.363       14.275       60.353       51.368       47.797     3642.488     2638.690     2284.562        1.461        0.428      143.032       24.422        0.029      343.067       18.916      862.322
06/14/2013  13:12:00      105.333       -5.984       36.067       77.057       78.375       54.219     5937.770     6142.705     2939.690        1.372        0.751      105.503       42.885        0.165      343.180       19.110      862.302
06/14/2013  13:13:00      157.948     -281.988      -12.266      145.750      170.825       89.619    21243.148    29181.270     8031.646        8.152        2.923      323.211       96.299        0.089      343.417       19.510      862.279
06/14/2013  13:14:00      115.687      -56.302       94.849      139.880      174.687      135.659    19566.367    30515.407    18403.444        4.700        3.424      128.660      134.362        1.091      343.939       20.402      862.266
06/14/2013  13:15:00      169.734     -200.738       11.181      129.254      206.858       95.949    16706.564    42790.261     9206.179        6.895        3.435      262.879      122.327        0.217      343.623       19.863      862.281
06/14/2013  13:16:00      205.149     -241.285      -32.127      112.279      140.746       77.138    12606.522    19809.434     5950.288        6.984        1.918      316.709       93.630        0.087      343.291       19.296      862.290
06/14/2013  13:17:00      115.197     -168.041      -23.144       69.294       67.580       36.906     4801.671     4567.041     1362.047        2.639        0.537      203.736       29.826        0.021      343.224       19.184      862.282
06/14/2013  13:18:00       54.638     -100.931       -0.401       47.316      110.402       42.101     2238.809    12188.506     1772.526        1.468        0.810      114.771       44.837        0.153      343.569       19.772      862.240
06/14/2013  13:19:00       29.421      -92.812       14.903       55.844       80.352       53.152     3118.576     6456.494     2825.117        1.105        0.620       97.363       40.722        0.175      343.711       20.015      862.194
06/14/2013  13:20:00       38.478      -97.373       16.654       53.606       71.708       41.057     2873.652     5142.091     1685.643        1.047        0.485      104.700       33.315        0.101      343.771       20.118      862.165
06/14/2013  13:21:00       24.674      -77.469       16.621       42.638       58.445       49.007     1818.006     3415.844     2401.646        0.726        0.382       81.304       38.686        0.226      343.708       20.010      862.158
06/14/2013  13:22:00       11.312       36.907       21.735       28.632       37.064       38.115      819.780     1373.749     1452.720        0.280        0.182       38.602       26.754        0.480      343.701       19.999      862.152
06/14/2013  13:23:00      116.358       43.355       57.846      117.935      156.761      101.036    13908.688    24573.972    10208.247        3.372        2.435      124.173       94.488        0.579      344.027       20.552      862.158
06/14/2013  13:24:00       41.590      -96.219       21.163       74.750      123.955       80.711     5587.574    15364.935     6514.259        1.945        1.373      104.823       67.496        0.415      344.042       20.579      862.151
06/14/2013  13:25:00      127.511     -192.168       24.252      105.709      128.003       81.836    11174.439    16384.657     6697.213        4.401        1.713      230.625       80.737        0.123      343.989       20.488      862.149
06/14/2013  13:26:00      190.576      109.173      101.897      142.530      159.368      111.115    20314.777    25398.119    12346.604        5.833        2.903      219.632       99.236        0.204      343.740       20.062      862.127
06/14/2013  13:27:00       75.095      108.535       96.778      102.121       87.146       76.286    10428.704     7594.406     5819.532        2.531        1.192      131.981       56.276        0.182      343.986       20.483      862.133
06/14/2013  13:28:00      234.388      128.453       29.840      141.453      151.708       91.130    20008.987    23015.222     8304.657        6.182        2.566      267.279       71.104        0.071      343.689       19.975      862.116
06/14/2013  13:29:00      195.573      117.762       34.660      125.480       73.221       66.785    15745.311     5361.305     4460.236        3.944        1.278      228.291       37.401        0.027      343.744       20.068      862.079
06/14/2013  13:30:00      116.617       32.539       12.480      128.330       90.168       53.059    16468.472     8130.271     2815.306        2.111        1.371      121.071       27.634        0.052      344.145       20.755      862.038
06/14/2013  13:31:00      168.109       80.757       39.307      104.328       89.725       62.754    10884.394     8050.640     3938.015        2.960        1.144      186.501       31.961        0.029      344.339       21.086      862.069
06/14/2013  13:32:00      218.584       99.657       42.097      141.124      110.610       86.708    19916.119    12234.572     7518.361        4.957        1.983      240.230       24.341        0.010      344.046       20.584      862.060
06/14/2013  13:33:00      254.740      182.390       59.437      179.330      144.296       94.385    32159.221    20821.323     8908.500        8.178        3.094      313.302       85.831        0.075      343.806       20.174      862.004
06/14/2013  13:34:00      111.538       61.770       94.665      155.467       85.083       83.409    24169.871     7239.149     6957.010        3.178        1.918      127.500       76.660        0.362      344.192       20.835      862.022
06/14/2013  13:35:00      287.370      151.551       89.219      164.349      150.095      101.925    27010.567    22528.434    10388.706        8.671        2.996      324.883       85.779        0.070      344.018       20.535      862.052
06/14/2013  13:36:00      209.080      218.130      160.531      135.583      125.562      126.522    18382.655    15765.894    16007.850        8.360        2.508      302.151      111.321        0.136      343.106       18.980      862.063
06/14/2013  13:37:00      197.126      140.509       92.678      125.502      116.030       88.160    15750.864    13463.062     7772.200        5.208        1.849      242.078       74.879        0.096      343.389       19.463      862.070
06/14/2013  13:38:00      105.953       93.523       84.966      102.528       62.963       62.949    10511.965     3964.362     3962.571        2.281        0.922      141.324       54.169        0.147      343.720       20.028      862.069
06/14/2013  13:39:00      190.502      108.367       80.476      161.501      127.880      103.088    26082.568    16353.226    10627.153        5.378        2.653      219.168       71.404        0.106      343.778       20.126      862.035
06/14/2013  13:40:00       86.973      134.901      167.010      114.178      119.586       97.942    13036.604    14300.698     9592.617        4.529        1.846      160.508      102.162        0.405      343.508       19.666      862.032
06/14/2013  13:41:00      176.924      120.191       35.266      131.320      100.761       70.410    17244.819    10152.756     4957.541        3.967        1.618      213.888       43.915        0.042      344.056       20.600      862.051
06/14/2013  13:42:00      255.487      132.580       80.695      162.619      152.223       96.038    26444.794    23171.988     9223.203        7.409        2.942      287.838       40.615        0.020      343.606       19.834      862.052
06/14/2013  13:43:00      123.975      210.356        2.404      108.234      135.955       79.685    11714.671    18483.762     6349.663        4.808        1.827      244.171       78.516        0.103      343.425       19.524      862.046
06/14/2013  13:44:00       66.828      164.714       -2.275       82.870      125.725       60.413     6867.476    15806.881     3649.745        2.896        1.316      177.755       59.062        0.110      343.809       20.181      862.022
06/14/2013  13:45:00      106.325      156.068       15.989      106.331      149.281       79.799    11306.197    22284.870     6367.830        3.793        1.998      188.845       83.708        0.196      343.713       20.016      861.995
06/14/2013  13:46:00      199.720      154.431       96.818      122.253       83.988       68.207    14945.675     7053.934     4652.199        4.988        1.333      252.462       61.437        0.059      343.766       20.105      861.995
06/14/2013  13:47:00      212.681      168.907      121.079      149.431      127.581      114.349    22329.736    16276.796    13075.752        7.004        2.584      271.593       94.129        0.120      343.846       20.245      861.989
06/14/2013  13:48:00      105.503      157.984      141.603      135.672      108.262       92.357    18406.992    11720.572     8529.748        4.739        1.933      189.973       78.862        0.172      343.930       20.385      861.997
06/14/2013  13:49:00      134.452       70.898       66.112      149.691      166.886       83.501    22407.332    27850.927     6972.358        4.234        2.862      152.000       84.407        0.308      344.120       20.712      862.009
06/14/2013  13:50:00       87.548      172.614      189.992       95.966      134.637      105.227     9209.483    18127.208    11072.804        5.598        1.920      193.547      102.410        0.280      343.769       20.113      861.999
06/14/2013  13:51:00       92.100       15.917       64.817       74.569       97.270       67.934     5560.512     9461.410     4615.054        1.628        0.982       93.466       42.497        0.207      343.685       19.971      862.012
06/14/2013  13:52:00       75.742     -195.730        0.784       89.662       84.277       34.771     8039.312     7102.634     1209.053        3.020        0.818      209.874       45.158        0.046      343.421       19.517      862.011
06/14/2013  13:53:00       68.421     -193.121      -24.227       54.700       93.628       43.123     2992.055     8766.213     1859.553        2.809        0.681      204.884       34.261        0.028      343.511       19.672      861.981
06/14/2013  13:54:00       35.677       -0.761       41.679       44.258       60.730       40.947     1958.786     3688.182     1676.645        0.517        0.366       35.685       24.518        0.472      343.997       20.503      861.970
06/14/2013  13:55:00       77.331      106.459       15.939       51.751       52.903       50.976     2678.129     2798.773     2598.537        1.282        0.404      131.581       36.260        0.076      343.485       19.629      861.960
06/14/2013  13:56:00      147.490       93.531       39.577      106.842       65.882       61.513    11415.236     4340.374     3783.830        2.580        0.977      174.647       26.616        0.023      343.709       20.009      861.949
06/14/2013  13:57:00      338.231      221.418       31.506       99.303       87.871       77.117     9861.077     7721.288     5947.071        9.397        1.176      404.260       46.006        0.013      343.495       19.643      861.932
06/14/2013  13:58:00      229.371      145.072       14.785      112.768       81.650       65.892    12716.647     6666.766     4341.756        4.880        1.186      271.398       39.432        0.021      343.638       19.888      861.894
06/14/2013  13:59:00       90.204      367.703      -28.878      151.073      165.296       92.551    22822.983    27322.673     8565.597       10.143        2.936      378.606       94.125        0.062      343.774       20.119      861.895
06/14/2013  14:00:00       89.116      187.576       12.185      125.587      167.231      115.606    15772.002    27966.269    13364.737        5.018        2.855      207.669      105.575        0.258      343.832       20.220      861.865
06/14/2013  14:01:00      190.137      135.648       21.642      120.823       82.306       79.860    14598.113     6774.263     6377.675        4.138        1.388      233.564       57.758        0.061      343.714       20.017      861.857
06/14/2013  14:02:00       47.403       79.371        8.964       56.715       63.839       53.015     3216.551     4075.436     2810.573        0.936        0.505       92.449       34.481        0.139      344.035       20.568      861.809
06/14/2013  14:03:00      160.532       84.246        9.019      117.085       67.494       48.011    13708.841     4555.382     2305.091        2.676        1.028      181.295       32.240        0.032      344.005       20.517      861.798
06/14/2013  14:04:00       88.621      176.896       21.741      113.861      120.652       81.558    12964.416    14556.920     6651.711        3.689        1.709      197.854       75.073        0.144      343.704       20.000      861.767
06/14/2013  14:05:00      180.613      179.504       24.175      189.753      106.060       78.448    36006.388    11248.786     6154.155        5.941        2.670      254.643       71.039        0.078      344.087       20.654      861.759
06/14/2013  14:06:00      266.428      137.880       45.786      171.172      119.860       87.170    29299.881    14366.443     7598.687        7.167        2.563      299.991       66.335        0.049      344.048       20.588      861.750
06/14/2013  14:07:00      171.380      111.976       44.259       85.572       81.565       62.892     7322.526     6652.907     3955.430        3.090        0.897      204.719       24.833        0.015      343.823       20.204      861.762
06/14/2013  14:08:00      235.842      124.746       99.132      158.439      104.136       94.561    25103.062    10844.326     8941.825        6.294        2.244      266.801       74.383        0.078      344.025       20.547      861.746
06/14/2013  14:09:00       41.816      -43.970       46.667      106.440      128.017       69.284    11329.442    16388.281     4800.210        1.918        1.626       60.679       52.098        0.737      344.189       20.832      861.734
06/14/2013  14:10:00      131.388       97.184       39.057      191.571      109.974       64.506    36699.500    12094.353     4160.982        4.058        2.648      163.424       18.018        0.012      344.421       21.228      861.754
06/14/2013  14:11:00      206.049      120.118        7.220       94.253       75.830       61.457     8883.685     5750.149     3777.020        3.767        0.921      238.505       19.622        0.007      343.721       20.029      861.772
06/14/2013  14:12:00       28.059       88.741       -5.211       72.265       59.663       39.128     5222.289     3559.678     1530.978        0.950        0.516       93.072       32.612        0.123      343.494       19.644      861.748
06/14/2013  14:13:00       40.320      143.127      -24.440       54.877      104.179       44.308     3011.448    10853.295     1963.160        1.926        0.791      148.698       48.675        0.107      343.855       20.257      861.696
06/14/2013  14:14:00       21.177      171.290       10.774      126.649      124.975       93.846    16039.874    15618.659     8807.068        3.518        2.023      172.594       82.902        0.231      344.394       21.178      861.628
06/14/2013  14:15:00      272.271      129.537       83.067      161.226      161.268      118.320    25993.691    26007.242    13999.558        8.189        3.300      301.515       64.356        0.046      344.204       20.853      861.614
06/14/2013  14:16:00      160.142      144.549      131.663      156.237      137.331      125.103    24409.859    18859.765    15650.798        6.139        2.946      215.731      107.850        0.250      344.055       20.599      861.664
06/14/2013  14:17:00      266.834      144.996       35.256      125.603       88.376       67.297    15775.999     7810.370     4528.938        6.079        1.406      303.684       52.041        0.029      343.677       19.952      861.697
06/14/2013  14:18:00      156.591       99.442       26.369      114.477       69.175       53.012    13104.969     4785.200     2810.304        2.790        1.035      185.498       46.474        0.063      343.792       20.152      861.680
06/14/2013  14:19:00      125.248       90.558       32.241       70.510       56.162       28.748     4971.719     3154.153      826.426        1.694        0.448      154.557       14.237        0.008      343.815       20.191      861.659
06/14/2013  14:20:00       19.414      -55.663       -1.029       41.364       75.488       30.940     1710.988     5698.477      957.294        0.592        0.418       58.951       40.375        0.469      343.927       20.383      861.637
06/14/2013  14:21:00       15.443      -19.961        6.920       72.972      125.328       45.881     5324.932    15707.058     2105.074        1.191        1.157       25.237       18.830        0.557      344.084       20.651      861.579
06/14/2013  14:22:00       78.797       90.086       34.071       65.558       44.911       60.009     4297.899     2017.024     3601.060        1.270        0.496      119.685       38.643        0.104      344.369       21.139      861.572
06/14/2013  14:23:00      117.555       96.060       23.810      120.044       74.043       62.184    14410.587     5482.414     3866.880        2.368        1.188      151.812       30.620        0.041      344.877       22.006      861.567
06/14/2013  14:24:00      180.727      124.406       33.982      116.782       98.143       65.867    13638.007     9632.135     4338.508        3.845        1.380      219.406       39.455        0.032      344.394       21.181      861.560
06/14/2013  14:25:00      178.633      173.746       11.351      107.237       79.758       77.667    11499.674     6361.322     6032.227        4.305        1.195      249.193       57.748        0.054      343.942       20.406      861.552
06/14/2013  14:26:00      105.157      125.391        2.408       97.631       98.185       75.833     9531.840     9640.249     5750.717        2.585        1.246      163.649       66.699        0.166      344.180       20.815      861.545
06/14/2013  14:27:00      197.951      152.158       12.076       86.883       71.822       74.548     7548.574     5158.386     5557.398        4.037        0.913      249.673       43.865        0.031      343.853       20.255      861.521
06/14/2013  14:28:00      112.314      101.292       15.585      103.554       70.314       68.192    10723.502     4944.099     4650.170        2.171        1.016      151.243       50.679        0.112      344.256       20.945      861.501
06/14/2013  14:29:00      198.169      152.928       32.986      133.116       73.611       58.275    17719.878     5418.652     3395.930        4.513        1.327      250.316       62.713        0.063      344.244       20.923      861.504
06/14/2013  14:30:00      117.196      149.643        8.002      134.936       91.855       62.054    18207.642     8437.421     3850.703        3.334        1.525      190.074       54.144        0.081      344.225       20.890      861.495
06/14/2013  14:31:00       -6.813      175.352      -30.451       67.270       64.292       38.354     4525.204     4133.399     1470.991        2.092        0.506      175.485       23.202        0.017      344.067       20.622      861.465
06/14/2013  14:32:00       54.585      197.452      -11.418      107.826      137.519       63.404    11626.427    18911.370     4020.068        3.832        1.728      204.858       67.385        0.108      344.121       20.713      861.427
06/14/2013  14:33:00       44.983       33.184       17.987       55.578       36.302       35.311     3088.941     1317.850     1246.891        0.455        0.283       55.899       23.901        0.183      344.204       20.856      861.414
06/14/2013  14:34:00       -1.237      158.407      -11.676       52.251      113.950       54.748     2730.211    12984.606     2997.365        2.197        0.936      158.412       64.988        0.168      344.300       21.020      861.396
06/14/2013  14:35:00       54.546       97.882      -13.074       50.317       66.803       37.176     2531.791     4462.695     1382.047        1.055        0.419      112.054       37.339        0.111      344.422       21.228      861.388
06/14/2013  14:36:00       60.942       94.925       12.767       64.366       59.110       52.944     4142.990     3493.954     2803.081        1.166        0.522      112.804       44.159        0.153      344.213       20.873      861.385
06/14/2013  14:37:00       87.483      169.737      -14.082       75.168       99.508       62.411     5650.190     9901.844     3895.088        2.805        0.972      190.955       62.554        0.107      344.129       20.727      861.373
06/14/2013  14:38:00       22.368      180.354        0.234       86.387       97.045       71.061     7462.713     9417.801     5049.693        2.747        1.097      181.736       71.362        0.154      344.301       21.020      861.354
06/14/2013  14:39:00       54.549       65.645       70.195       96.465      130.239       79.844     9305.489    16962.251     6375.051        2.242        1.632       85.351       59.915        0.493      344.611       21.552      861.338
06/14/2013  14:40:00      163.956       69.527      108.410      132.416      143.707       89.416    17533.906    20651.690     7995.234        4.482        2.309      178.088       86.885        0.238      344.472       21.313      861.326
06/14/2013  14:41:00      166.384      -84.454       42.557      118.742      149.232       74.910    14099.588    22270.101     5611.456        3.930        2.099      186.591       78.315        0.176      344.263       20.954      861.294
06/14/2013  14:42:00      138.768     -101.475       29.617      103.696      196.776       67.864    10752.772    38720.908     4605.565        4.224        2.704      171.912       60.124        0.122      344.449       21.272      861.249
06/14/2013  14:43:00      211.474      160.340      113.613      125.169      114.653      119.356    15667.312    13145.372    14245.765        6.319        2.153      265.387       63.301        0.057      344.474       21.315      861.244
06/14/2013  14:44:00      313.623      157.349       69.446      172.186      131.041      104.753    29648.022    17171.650    10973.146        9.286        2.890      350.882       68.838        0.038      344.479       21.323      861.241
06/14/2013  14:45:00      151.846       92.843       57.880      116.594       97.505       89.182    13594.049     9507.276     7953.497        3.303        1.553      177.980       63.169        0.126      344.597       21.526      861.265
06/14/2013  14:46:00      306.962      152.854       53.052      140.308       96.800       91.602    19686.256     9370.212     8390.882        7.892        1.872      342.914       47.577        0.019      344.113       20.697      861.280
06/14/2013  14:47:00      156.373      111.004       48.978       59.224       60.894       41.248     3507.435     3708.119     1701.436        2.404        0.446      191.767       25.120        0.017      344.031       20.559      861.290
06/14/2013  14:48:00      143.354       98.106       13.869       96.628       64.197       46.805     9336.921     4121.204     2190.705        2.301        0.782      173.711       26.477        0.023      344.258       20.947      861.261
06/14/2013  14:49:00      162.732       72.867       17.328      120.348       63.472       52.802    14483.680     4028.660     2788.001        2.669        1.065      178.301       35.629        0.040      344.001       20.508      861.247
06/14/2013  14:50:00      -23.099      135.921       -8.045       60.643       93.966       51.165     3677.631     8829.680     2617.894        1.710        0.756      137.870       59.951        0.189      344.573       21.487      861.221
06/14/2013  14:51:00       21.288      211.399      -32.099       56.144       71.762       33.476     3152.189     5149.786     1120.628        2.780        0.471      212.469       34.506        0.026      344.090       20.661      861.195
06/14/2013  14:52:00       13.112      188.529      -12.154       67.268      114.457       56.019     4524.962    13100.419     3138.082        2.831        1.038      188.985       66.461        0.124      344.524       21.403      861.165
06/14/2013  14:53:00       58.805       47.135        8.877       41.617       37.047       24.814     1731.937     1372.497      615.749        0.474        0.186       75.364       17.806        0.056      344.234       20.908      861.163
06/14/2013  14:54:00      157.157      106.246       41.633      138.563       82.393       53.335    19199.687     6788.645     2844.625        3.327        1.442      189.701       23.111        0.015      344.644       21.607      861.162
06/14/2013  14:55:00      275.839      196.548       74.642      141.408       95.732       99.120    19996.297     9164.602     9824.780        7.963        1.949      338.701       52.754        0.024      344.543       21.433      861.107
06/14/2013  14:56:00      184.605      134.153       39.925      144.985       88.644       79.292    21020.773     7857.787     6287.196        4.441        1.758      228.202       50.202        0.048      344.674       21.659      861.109
06/14/2013  14:57:00      115.579      143.338       -5.597       77.809       99.344       55.965     6054.180     9869.281     3132.110        2.649        0.953      184.131       47.895        0.068      344.389       21.172      861.110
06/14/2013  14:58:00      351.689      225.871       36.973      178.795      129.161       99.680    31967.495    16682.473     9936.103       11.732        2.929      417.975       53.848        0.017      344.399       21.186      861.126
06/14/2013  14:59:00      218.544      122.144       28.291      120.765       82.659       70.708    14584.299     6832.544     4999.633        4.494        1.321      250.361       24.709        0.010      344.329       21.065      861.133
06/14/2013  15:00:00      166.878       85.747       38.526      106.936       73.170       62.163    11435.291     5353.892     3864.179        2.867        1.033      187.619       42.576        0.051      344.546       21.439      861.112
06/14/2013  15:01:00       63.406       -7.303       11.814       99.792       80.440       45.158     9958.365     6470.586     2039.234        1.134        0.923       63.825       27.313        0.183      344.772       21.828      861.094
06/14/2013  15:02:00       34.749      -17.091       42.383       57.039       66.404       51.400     3253.480     4409.549     2641.979        0.680        0.515       38.724       46.094        1.417      344.927       22.093      861.058
06/14/2013  15:03:00       83.841       41.922        9.475       57.744       40.212       38.281     3334.382     1617.025     1465.416        0.765        0.321       93.738       19.503        0.043      344.662       21.641      861.041
06/14/2013  15:04:00      245.694      124.204       57.553      121.918       91.217       71.259    14864.071     8320.533     5077.781        5.368        1.413      275.304       57.863        0.044      344.477       21.320      861.045
06/14/2013  15:05:00      171.018      113.763       60.657      149.545       93.511       86.086    22363.571     8744.320     7410.770        4.219        1.926      205.401       57.244        0.078      344.321       21.055      860.975
06/14/2013  15:06:00       26.447       23.629       31.988       65.370       61.687       34.625     4273.206     3805.291     1198.914        0.578        0.464       35.465       21.813        0.378      344.866       21.988      860.944
06/14/2013  15:07:00       65.619      195.267        0.973       85.783      161.586       87.240     7358.731    26109.881     7610.888        4.175        2.054      205.997       97.989        0.226      344.588       21.512      860.931
06/14/2013  15:08:00       58.322      289.810      -24.036       91.230      168.127       83.676     8322.858    28266.615     7001.737        6.577        2.180      295.621       97.943        0.110      344.428       21.236      860.921
06/14/2013  15:09:00      -12.473      351.647      -56.718       64.186      133.349       49.671     4119.837    17781.915     2467.229        7.569        1.218      351.868       52.981        0.023      344.117       20.704      860.930
06/14/2013  15:10:00      -44.230      120.084      -33.305       59.762       77.130       22.266     3571.539     5949.027      495.792        1.375        0.501      127.971       17.669        0.019      344.064       20.618      860.870
06/14/2013  15:11:00      -66.456      196.325      -21.039      117.176      139.082       60.818    13730.161    19343.749     3698.869        4.008        1.839      207.268       63.432        0.094      344.490       21.343      860.865
06/14/2013  15:12:00        7.540      402.429      -60.697      114.443      162.551       79.278    13097.108    26422.671     6284.937       10.574        2.290      402.499       86.601        0.046      344.452       21.277      860.868
06/14/2013  15:13:00       74.954      255.544      -20.222       91.405      123.341       85.965     8354.927    15212.892     7390.018        5.114        1.548      266.309       80.201        0.091      344.426       21.233      860.869
06/14/2013  15:14:00       92.050      106.101       34.073       98.073       68.472       71.858     9618.332     4688.424     5163.552        2.018        0.974      140.466       48.404        0.119      344.498       21.357      860.857
06/14/2013  15:15:00       40.449      168.348       -9.839       60.636       76.195       54.690     3676.774     5805.615     2991.024        2.127        0.624      173.139       51.203        0.087      344.560       21.465      860.854
06/14/2013  15:16:00      200.006      118.872       28.399       95.335       70.605       55.275     9088.779     4985.112     3055.376        3.603        0.856      232.665       26.851        0.013      344.633       21.587      860.857
06/14/2013  15:17:00      216.377      119.884       16.599      119.918       91.061       84.429    14380.292     8292.158     7128.289        4.563        1.490      247.369       53.625        0.047      344.834       21.930      860.845
06/14/2013  15:18:00      287.882      197.771       49.570      131.629      101.022      104.924    17326.310    10205.437    11008.960        8.149        1.927      349.270       76.262        0.048      344.699       21.699      860.871
06/14/2013  15:19:00      183.412      120.082       18.167      138.837       72.884       63.334    19275.589     5312.022     4011.161        3.849        1.430      219.225       37.867        0.030      344.303       21.024      860.895
06/14/2013  15:20:00      145.801       77.990       39.372       87.654       51.030       57.233     7683.305     2604.052     3275.571        2.122        0.678      165.349       25.647        0.024      344.329       21.068      860.875
06/14/2013  15:21:00       83.753       43.199       74.644       83.005       75.795       62.670     6889.828     5744.904     3927.589        1.550        0.828       94.238       57.238        0.369      344.720       21.737      860.845
06/14/2013  15:22:00       79.260     -142.775       17.962       88.544      121.890       64.647     7840.108    14857.210     4179.252        2.693        1.344      163.300       74.655        0.209      344.530       21.412      860.815
06/14/2013  15:23:00       68.155      -54.949       62.317       89.992      149.048       83.438     8098.647    22215.172     6961.825        2.440        1.864       87.547      109.492        1.564      344.679       21.668      860.801
06/14/2013  15:24:00      227.702       13.035       51.630      119.518      176.551       69.794    14284.542    31170.353     4871.179        5.249        2.516      228.075       68.279        0.090      344.888       22.024      860.807
06/14/2013  15:25:00      291.358      187.720       44.449      133.540       91.578       94.015    17832.882     8386.570     8838.903        7.857        1.753      346.595       54.722        0.025      344.726       21.745      860.808
06/14/2013  15:26:00      232.934      138.755       31.592      165.960      133.804       76.184    27542.807    17903.561     5804.015        6.287        2.563      271.130       40.149        0.022      344.701       21.704      860.828
06/14/2013  15:27:00       48.741       80.488       28.126       81.050      105.174       50.804     6569.139    11061.643     2581.000        1.492        1.011       94.096       58.377        0.385      344.838       21.940      860.826
06/14/2013  15:28:00        0.281      -40.972       20.187       28.435       63.550       30.321      808.562     4038.639      919.365        0.393        0.288       40.973       19.652        0.230      345.377       22.863      860.779
06/14/2013  15:29:00       34.787       39.302        7.004       60.709       56.880       39.412     3685.528     3235.281     1553.304        0.564        0.424       52.486       27.697        0.278      345.102       22.393      860.756
06/14/2013  15:30:00      142.108       84.294       16.242      111.388       57.990       45.125    12407.222     3362.805     2036.270        2.268        0.890      165.228       41.461        0.063      344.588       21.513      860.742
06/14/2013  15:31:00       89.063       50.350       53.672       87.583       58.590       55.633     7670.839     3432.838     3095.065        1.377        0.710      102.309       48.647        0.226      344.661       21.639      860.722
06/14/2013  15:32:00       21.839       67.021       17.501       42.303       43.103       43.816     1789.504     1857.867     1919.852        0.542        0.278       70.489       32.199        0.209      344.558       21.461      860.712
06/14/2013  15:33:00       49.336       36.490        8.068      112.329       90.754       44.727    12617.745     8236.216     2000.541        1.334        1.143       61.364       39.308        0.410      344.728       21.752      860.706
06/14/2013  15:34:00       60.253      167.274        2.028       87.393      104.578       75.649     7637.604    10936.589     5722.841        2.795        1.215      177.795       72.621        0.167      344.722       21.741      860.706
06/14/2013  15:35:00      128.978      131.018       10.116      100.130       73.425       74.113    10025.969     5391.181     5492.726        2.740        1.045      183.851       51.207        0.078      344.656       21.628      860.714
06/14/2013  15:36:00       52.964      277.573      -32.188      114.621      221.527       60.149    13137.871    49074.331     3617.842        7.335        3.292      282.580       93.484        0.109      344.846       21.951      860.688
06/14/2013  15:37:00      127.903      168.489       52.322      125.414      119.115      108.145    15728.615    14188.456    11695.327        4.454        2.081      211.536       65.617        0.096      345.248       22.641      860.659
06/14/2013  15:38:00      250.458      170.185      107.792      162.710      100.482      111.221    26474.411    10096.652    12370.195        7.612        2.447      302.807       94.800        0.098      345.051       22.302      860.660
06/14/2013  15:39:00      282.735      185.153      106.326       90.529       67.432       76.193     8195.587     4547.091     5805.408        7.203        0.927      337.965       45.771        0.018      344.878       22.005      860.669
06/14/2013  15:40:00      169.897       97.600      143.246      143.367      101.557       81.010    20554.087    10313.902     6562.642        4.816        1.872      195.936       76.705        0.153      344.884       22.017      860.653
06/14/2013  15:41:00      159.812       75.806       62.873       96.158      107.431       91.791     9246.268    11541.439     8425.555        3.222        1.461      176.879       75.587        0.183      344.780       21.839      860.644
06/14/2013  15:42:00       75.398     -108.975       20.004       70.510      121.790       52.821     4971.701    14832.888     2790.086        2.027        1.130      132.516       59.669        0.203      344.985       22.190      860.631
06/14/2013  15:43:00       97.497       83.365      131.346       94.864       85.785       61.718     8999.215     7359.114     3809.084        2.693        1.008      128.279       57.520        0.201      345.093       22.377      860.616
06/14/2013  15:44:00       89.340        2.266       85.920      128.303      111.976       66.123    16461.712    12538.603     4372.301        2.436        1.669       89.368       65.403        0.536      345.034       22.274      860.606
06/14/2013  15:45:00       60.537        2.427       60.605       72.498       92.193       52.329     5255.915     8499.625     2738.276        1.192        0.825       60.586       42.799        0.499      345.272       22.684      860.597
06/14/2013  15:46:00       69.916        9.982       90.315       68.090       94.518       62.607     4636.254     8933.606     3919.690        1.531        0.874       70.625       63.572        0.810      344.882       22.015      860.596
06/14/2013  15:47:00       94.400      -72.405       28.970       43.564       47.794       47.446     1897.847     2284.278     2251.148        1.071        0.322      118.970       33.286        0.078      344.494       21.353      860.587
06/14/2013  15:48:00      121.509       40.604      110.345      107.646      123.110       89.275    11587.668    15156.040     7970.035        3.164        1.736      128.113       86.259        0.453      345.072       22.340      860.568
06/14/2013  15:49:00      124.853       82.680      111.713      107.980      109.036       85.191    11659.624    11888.781     7257.432        3.285        1.540      149.747       74.253        0.246      345.061       22.321      860.558
06/14/2013  15:50:00      131.908       37.184      141.634      110.364      162.799       98.514    12180.181    26503.521     9704.941        4.361        2.419      137.049      109.681        0.640      344.920       22.079      860.565
06/14/2013  15:51:00       96.116     -104.929       30.950      104.993      135.387       72.451    11023.622    18329.544     5249.084        2.790        1.730      142.297       79.597        0.313      345.280       22.696      860.570
06/14/2013  15:52:00      137.947     -235.002      -24.381       85.130       65.448       40.872     7247.045     4283.381     1670.506        4.402        0.660      272.499       44.392        0.027      344.648       21.612      860.579
06/14/2013  15:53:00       92.189     -155.803      -30.358       44.638       75.404       23.522     1992.581     5685.812      553.262        2.096        0.412      181.034       22.811        0.016      344.421       21.225      860.565
06/14/2013  15:54:00      -48.256        4.036       13.449       54.642       40.964       27.768     2985.699     1678.045      771.076        0.398        0.272       48.424       18.553        0.147      345.219       22.594      860.528
06/14/2013  15:55:00       11.362       35.311       35.296       41.140       26.650       24.522     1692.480      710.205      601.321        0.281        0.150       37.094        6.337        0.029      345.076       22.348      860.531
06/14/2013  15:56:00       69.869       37.978       29.554       68.159       43.969       39.788     4645.614     1933.232     1583.049        0.768        0.408       79.524       25.782        0.105      344.998       22.215      860.553
06/14/2013  15:57:00      178.506      110.757       28.059      149.507      119.189       65.568    22352.207    14206.084     4299.164        4.288        2.043      210.075       13.097        0.004      345.004       22.224      860.538
06/14/2013  15:58:00      175.578       80.273       38.605      114.933       83.458       75.239    13209.694     6965.253     5660.940        3.229        1.292      193.058       63.063        0.107      345.113       22.409      860.523
06/14/2013  15:59:00      157.024      142.114      124.486      127.959      100.440       96.089    16373.544    10088.292     9233.138        4.802        1.785      211.786       90.693        0.183      344.966       22.155      860.510
06/14/2013  16:00:00       87.672        2.589      101.866       83.095      147.121       80.278     6904.785    21644.633     6444.631        2.652        1.750       87.710       87.580        0.997      345.072       22.340      860.510
06/14/2013  16:01:00       72.445     -180.233        4.049       65.297       80.940       50.417     4263.637     6551.220     2541.865        2.555        0.668      194.248       42.572        0.048      344.991       22.200      860.511
06/14/2013  16:02:00      -60.140      -67.841        8.740       79.347       61.650       38.134     6295.889     3800.691     1454.181        0.992        0.578       90.660       26.089        0.083      345.017       22.247      860.477
06/14/2013  16:03:00        6.204      -70.972        7.699       60.210       48.257       49.836     3625.213     2328.737     2483.592        0.678        0.422       71.242       26.587        0.139      345.130       22.441      860.437
06/14/2013  16:04:00      -17.002      -64.754       -0.217       90.929       56.810       33.727     8268.059     3227.424     1137.539        0.856        0.632       66.949       27.200        0.165      344.910       22.063      860.384
06/14/2013  16:05:00     -106.130       -5.298        7.009       69.740       47.108       38.030     4863.731     2219.201     1446.271        0.993        0.426      106.262       38.685        0.133      345.248       22.644      860.327
06/14/2013  16:06:00       -6.370        3.352       16.234       32.378       25.540       23.951     1048.367      652.282      573.674        0.129        0.114        7.198       14.759        4.204      345.473       23.029      860.354
06/14/2013  16:07:00      101.624       49.408        8.449       71.593       35.590       26.977     5125.616     1266.630      727.768        0.998        0.356      112.998       21.621        0.037      345.076       22.349      860.371
06/14/2013  16:08:00       55.337       67.572        1.115       65.630       93.834       48.403     4307.232     8804.897     2342.826        1.154        0.773       87.339       32.184        0.136      345.295       22.723      860.366
06/14/2013  16:09:00       45.085       12.078       16.775       78.584       43.234       39.327     6175.405     1869.165     1546.601        0.602        0.480       46.675       21.178        0.206      345.177       22.522      860.362
06/14/2013  16:10:00       66.032      -68.463       12.493       85.218       80.742       46.657     7262.092     6519.334     2176.870        1.258        0.798       95.118       24.120        0.064      345.368       22.848      860.337
06/14/2013  16:11:00      105.728       91.316       52.617       81.275       78.238       62.475     6605.610     6121.215     3903.174        1.945        0.831      139.703       46.698        0.112      345.083       22.360      860.324
06/14/2013  16:12:00      147.789     -161.309      -10.416       77.194      161.094       75.943     5958.865    25951.210     5767.267        4.282        1.884      218.774       93.316        0.182      344.929       22.094      860.326
06/14/2013  16:13:00      150.886     -129.824      -20.878       79.187       80.931       62.485     6270.631     6549.835     3904.404        2.839        0.836      199.050       51.729        0.068      344.891       22.028      860.313
06/14/2013  16:14:00      170.027     -178.874       -7.398       56.320       75.339       39.346     3171.931     5675.936     1548.111        3.568        0.520      246.790       35.836        0.021      344.786       21.848      860.303
06/14/2013  16:15:00       38.408      -25.718       24.461       38.070       62.927       38.876     1449.323     3959.767     1511.331        0.483        0.346       46.224       39.411        0.727      345.325       22.775      860.301
06/14/2013  16:16:00       47.465      -16.876      -27.885       41.281       53.384       30.739     1704.131     2849.844      944.903        0.441        0.275       50.376       23.693        0.221      345.055       22.312      860.278
06/14/2013  16:17:00       39.777       25.854       13.131       49.365       48.007       24.911     2436.884     2304.666      620.578        0.389        0.268       47.441       22.981        0.235      345.251       22.648      860.251
06/14/2013  16:18:00       47.930      -41.086       40.638       54.469      115.631       45.781     2966.915    13370.619     2095.883        1.203        0.922       63.129       56.715        0.807      345.415       22.929      860.247
06/14/2013  16:19:00       51.804       38.273       88.426       63.218       66.888       47.237     3996.554     4474.000     2231.344        1.133        0.535       64.409       49.689        0.595      345.207       22.573      860.243
06/14/2013  16:20:00       87.840       56.201       86.881       66.785      140.539       93.996     4460.283    19751.258     8835.289        2.573        1.652      104.280      103.802        0.991      345.100       22.387      860.224
06/14/2013  16:21:00      134.468       70.323       60.201       78.911       68.655       56.323     6226.926     4713.524     3172.333        2.038        0.706      151.747       50.944        0.113      345.018       22.248      860.201
06/14/2013  16:22:00       41.672     -108.964       18.737       78.208      107.672       58.654     6116.470    11593.300     3440.338        1.755        1.058      116.661       62.965        0.291      345.180       22.525      860.197
06/14/2013  16:23:00       50.639      -64.808       32.499       50.558       62.375       54.504     2556.087     3890.627     2970.730        0.862        0.471       82.246       37.551        0.208      345.386       22.878      860.196
06/14/2013  16:24:00       22.197      -56.471        3.935       27.385       57.120       39.428      749.963     3262.662     1554.582        0.463        0.278       60.677       36.284        0.358      345.096       22.382      860.195
06/14/2013  16:25:00      102.818      -33.270       62.959       99.555      112.113       52.128     9911.191    12569.315     2717.338        2.041        1.260      108.066       70.197        0.422      345.266       22.671      860.180
06/14/2013  16:26:00       81.913      -35.554       62.076       71.696       93.984       60.112     5140.291     8832.953     3613.398        1.470        0.879       89.296       68.035        0.580      345.289       22.712      860.171
06/14/2013  16:27:00       69.106      -38.593       27.035       48.619       92.334       46.281     2363.807     8525.507     2141.917        1.001        0.652       79.152       55.191        0.486      345.247       22.641      860.163
06/14/2013  16:28:00      100.197     -111.455       14.231       66.484      111.929       56.299     4420.138    12528.018     3169.550        2.139        1.006      149.872       67.594        0.203      345.031       22.270      860.148
06/14/2013  16:29:00      123.389      -58.134       45.403      104.555      128.096       83.983    10931.727    16408.662     7053.085        2.752        1.720      136.398       91.312        0.448      345.252       22.648      860.116
06/14/2013  16:30:00      100.375     -140.734       12.578       82.707       94.840       53.316     6840.379     8994.566     2842.550        2.435        0.934      172.862       61.924        0.128      345.299       22.730      860.124
06/14/2013  16:31:00       90.160       -2.134       44.400       57.683      125.084       59.702     3327.293    15646.119     3564.380        1.632        1.127       90.185       60.414        0.449      345.486       23.050      860.124
06/14/2013  16:32:00       74.691       -5.314       40.326       76.704       70.141       41.562     5883.456     4919.747     1727.396        0.988        0.627       74.880       46.569        0.387      345.343       22.805      860.123
06/14/2013  16:33:00       40.999       25.274       35.031       39.887       48.328       32.366     1590.951     2335.628     1047.583        0.426        0.249       48.163       20.988        0.190      345.262       22.668      860.108
06/14/2013  16:34:00        5.496       13.797       60.691       84.418       51.329       43.937     7126.426     2634.647     1930.494        0.780        0.585       14.851       46.241        9.694      345.520       23.109      860.064
06/14/2013  16:35:00       53.389       66.202       -8.783       43.808       54.946       38.769     1919.141     3019.081     1503.016        0.687        0.322       85.048       39.494        0.216      345.448       22.986      860.057
06/14/2013  16:36:00       79.431       60.130       36.804       82.506       39.898       41.960     6807.296     1591.864     1760.636        1.072        0.508       99.624       26.382        0.070      345.503       23.079      860.048
06/14/2013  16:37:00       12.103        1.163       33.653       48.524       53.425       48.266     2354.622     2854.259     2329.607        0.441        0.377       12.159       44.389       13.329      345.673       23.370      860.049
06/14/2013  16:38:00       94.011       25.136       87.853       86.789      113.982       69.629     7532.417    12991.933     4848.218        2.128        1.269       97.313       76.871        0.624      345.502       23.077      860.035
06/14/2013  16:39:00       41.039       44.115       86.824       64.165       69.188       38.374     4117.154     4786.980     1472.582        1.077        0.519       60.252       29.949        0.247      345.721       23.455      860.008
06/14/2013  16:40:00      121.353      102.487      105.903      116.122       89.910       91.451    13484.280     8083.738     8363.337        3.318        1.497      158.840       87.043        0.300      345.388       22.879      859.978
06/14/2013  16:41:00      181.392      124.645       81.685      118.886       76.400       80.164    14133.994     5836.992     6426.223        4.075        1.320      220.089       79.368        0.130      345.538       23.137      859.967
06/14/2013  16:42:00      337.728      187.411       14.145       90.152       79.365       75.902     8127.381     6298.831     5761.065        8.478        1.009      386.242       39.489        0.010      344.992       22.200      859.975
06/14/2013  16:43:00      217.177      141.462       53.039       93.924       97.198       49.824     8821.664     9447.443     2482.434        4.537        1.038      259.186       44.644        0.030      344.806       21.884      859.964
06/14/2013  16:44:00       74.584     -113.156       13.992       58.477       75.725       39.022     3419.589     5734.345     1522.736        1.462        0.534      135.526       44.224        0.106      345.051       22.306      859.938
06/14/2013  16:45:00       28.899      -63.047       13.174       42.263       80.886       40.658     1786.190     6542.483     1653.090        0.748        0.499       69.355       43.073        0.386      345.524       23.115      859.914
06/14/2013  16:46:00       35.592       53.359       -6.763       58.372      103.382       38.298     3407.249    10687.845     1466.707        0.986        0.778       64.141       43.878        0.468      345.451       22.989      859.920
06/14/2013  16:47:00      152.484      133.081        8.666      115.611      110.633       72.654    13365.967    12239.726     5278.570        3.595        1.544      202.390       70.018        0.120      345.135       22.446      859.903
06/14/2013  16:48:00       61.163       65.847        2.908       55.761       51.964       49.496     3109.283     2700.267     2449.896        0.817        0.413       89.870       33.093        0.136      345.180       22.526      859.893
06/14/2013  16:49:00      108.091      154.967       -4.256       86.092       72.377       66.276     7411.759     5238.402     4392.570        2.638        0.852      188.940       49.612        0.069      344.990       22.197      859.876
06/14/2013  16:50:00      -12.009      120.290      -31.976       55.594       55.142       24.761     3090.688     3040.638      613.117        1.119        0.337      120.888       23.632        0.038      344.786       21.851      859.862
06/14/2013  16:51:00       -3.004       82.991       -7.166       34.566       92.279       32.900     1194.826     8515.442     1082.409        0.887        0.540       83.045       43.495        0.274      345.143       22.464      859.831
06/14/2013  16:52:00      -17.984       77.602      -11.483       39.224       33.546       18.471     1538.513     1125.355      341.180        0.474        0.150       79.659       11.953        0.023      345.154       22.481      859.800
06/14/2013  16:53:00      -72.077      -16.384        6.570       60.044       45.849       33.825     3605.289     2102.169     1144.163        0.618        0.343       73.916       29.495        0.159      345.457       23.002      859.798
06/14/2013  16:54:00       14.362       33.358       15.663       52.306       27.853       29.508     2735.874      775.775      870.728        0.297        0.219       36.318       18.537        0.261      345.426       22.948      859.791
06/14/2013  16:55:00      -23.073       32.426        7.315       55.230       19.829       23.887     3050.345      393.173      570.602        0.282        0.201       39.797       24.572        0.381      345.347       22.812      859.797
06/14/2013  16:56:00       17.372       62.168        1.899       32.129       51.514       30.589     1032.297     2653.672      935.692        0.440        0.231       64.550       26.421        0.168      345.316       22.759      859.802
06/14/2013  16:57:00       12.119       60.127       -6.467       43.330       43.058       30.147     1877.463     1853.970      908.855        0.422        0.232       61.336       19.761        0.104      345.391       22.887      859.804
06/14/2013  16:58:00      -80.120       65.409      -15.158       45.437       51.822       25.104     2064.555     2685.569      630.226        0.815        0.269      103.429       24.889        0.058      345.269       22.679      859.790
06/14/2013  16:59:00       62.889       47.972       31.247       73.500       38.304       38.175     5402.260     1467.193     1457.339        0.778        0.416       79.097       19.477        0.061      345.492       23.061      859.768
06/14/2013  17:00:00       31.968       45.493       47.407       70.298       49.436       42.071     4941.813     2443.925     1769.988        0.725        0.458       55.602       21.494        0.149      345.721       23.453      859.749
06/14/2013  17:01:00       74.486       44.204       54.373       56.424       47.405       46.668     3183.668     2247.278     2177.905        0.903        0.380       86.615       29.436        0.115      345.586       23.222      859.736
06/14/2013  17:02:00       34.052       36.840       76.952       68.052       93.010       54.868     4631.102     8650.892     3010.491        1.236        0.815       50.167       58.791        1.373      345.661       23.351      859.723
06/14/2013  17:03:00       72.176      -67.986      -10.094       38.091       63.918       48.652     1450.958     4085.464     2367.050        0.892        0.395       99.154       40.389        0.166      345.152       22.478      859.722
06/14/2013  17:04:00       77.102        2.191       44.191       63.612       65.164       53.528     4046.481     4246.392     2865.235        0.953        0.558       77.133       53.028        0.473      345.228       22.608      859.710
06/14/2013  17:05:00       68.346      -45.769       32.785       49.369       67.289       44.950     2437.322     4527.829     2020.542        0.841        0.449       82.256       47.651        0.336      345.336       22.795      859.688
06/14/2013  17:06:00      145.082       66.468       50.784       84.971       80.998       46.472     7220.133     6560.638     2159.675        2.199        0.797      159.583       36.909        0.053      345.336       22.791      859.671
06/14/2013  17:07:00      182.462       81.092       27.675       80.594       74.702       58.043     6495.332     5580.330     3368.959        2.804        0.772      199.671       46.894        0.055      345.346       22.809      859.672
06/14/2013  17:08:00       83.617       25.848       29.115       81.893      107.551       40.466     6706.410    11567.255     1637.504        1.421        0.996       87.521       35.679        0.166      345.284       22.703      859.674
06/14/2013  17:09:00       51.499     -112.890        8.108       56.476      131.522       48.264     3189.552    17297.964     2329.388        1.913        1.141      124.082       44.353        0.128      345.336       22.793      859.648
06/14/2013  17:10:00      105.293     -128.366        7.859       65.134      106.290       52.286     4242.450    11297.650     2733.840        2.295        0.914      166.025       59.397        0.128      345.464       23.011      859.646
06/14/2013  17:11:00       81.962      -36.803        8.945       77.000       93.990       51.115     5928.980     8834.146     2612.755        1.276        0.869       89.845       46.539        0.268      345.319       22.762      859.654
06/14/2013  17:12:00      134.289       85.369       54.763      113.605      122.124       78.384    12905.994    14914.178     6144.007        3.114        1.698      159.127       51.042        0.103      345.304       22.738      859.641
06/14/2013  17:13:00      115.711       78.671       36.902      112.484       66.894       68.269    12652.557     4474.750     4660.698        2.136        1.089      139.922       45.133        0.104      345.504       23.080      859.615
06/14/2013  17:14:00      160.868      151.421       89.092      123.539       92.444       83.149    15261.763     8545.803     6913.724        4.373        1.536      220.923       39.300        0.032      345.323       22.768      859.597
06/14/2013  17:15:00      205.748      161.617      140.236      124.056      104.518       99.022    15389.797    10924.094     9805.267        6.211        1.806      261.634       91.789        0.123      345.107       22.398      859.598
06/14/2013  17:16:00       46.696       36.855       59.514      107.126       96.374       52.452    11476.046     9287.912     2751.202        1.529        1.176       59.488       56.840        0.913      345.281       22.700      859.596
06/14/2013  17:17:00      147.346      122.987       87.844       96.951       83.708       88.810     9399.481     7006.952     7887.211        3.442        1.215      191.929       76.587        0.159      345.209       22.572      859.590
06/14/2013  17:18:00       92.352      110.355       16.735       95.164       61.766       62.361     9056.236     3815.099     3888.945        1.887        0.838      143.900       39.763        0.076      345.182       22.527      859.573
06/14/2013  17:19:00       93.645       53.647       30.122       85.967       47.687       48.281     7390.251     2274.071     2331.012        1.227        0.600      107.923       38.700        0.129      345.000       22.217      859.560
06/14/2013  17:20:00      165.709       95.359       98.414      117.899       76.891       71.728    13900.165     5912.187     5144.933        3.559        1.248      191.188       69.826        0.133      345.235       22.618      859.540
06/14/2013  17:21:00      180.589      106.288       70.783      123.347       97.097       60.396    15214.525     9427.873     3647.631        3.860        1.415      209.545       46.548        0.049      345.111       22.406      859.543
06/14/2013  17:22:00      157.318       97.403       63.371      105.090       82.581       70.311    11043.977     6819.671     4943.668        3.053        1.140      185.030       52.654        0.081      345.088       22.366      859.544
06/14/2013  17:23:00       93.088      -34.913       58.848       93.571      117.808       61.681     8755.492    13878.649     3804.547        1.989        1.322       99.420       62.544        0.396      345.158       22.488      859.533
06/14/2013  17:24:00      125.132       69.482       86.071       90.430       91.382       67.986     8177.536     8350.740     4622.128        2.452        1.058      143.128       51.310        0.129      345.057       22.313      859.536
06/14/2013  17:25:00       74.943       95.578       92.420      106.955       77.028       73.105    11439.466     5933.329     5344.332        2.300        1.136      121.456       62.914        0.268      344.989       22.197      859.532
06/14/2013  17:26:00       21.857      -15.883        4.289       67.559       57.161       33.305     4564.197     3267.385     1109.207        0.484        0.447       27.019       29.119        1.162      345.046       22.297      859.533
06/14/2013  17:27:00      200.236       83.677       28.854      129.981       75.965       53.775    16894.936     5770.664     2891.776        3.674        1.278      217.017       48.364        0.050      345.021       22.251      859.513
06/14/2013  17:28:00      131.438       67.354       27.247       94.676       56.114       51.703     8963.545     3148.833     2673.226        1.867        0.739      147.690       46.922        0.101      344.980       22.183      859.508
06/14/2013  17:29:00      186.803      108.313       39.978       64.660       57.589       50.479     4180.957     3316.482     2548.178        2.913        0.502      215.933       18.937        0.008      345.104       22.394      859.497
06/14/2013  17:30:00       55.356       30.640       19.538       59.913       37.353       31.523     3589.605     1395.258      993.671        0.518        0.299       63.270       19.463        0.095      345.205       22.568      859.490
06/14/2013  17:31:00       91.828       56.189       23.564       33.415       27.483       26.450     1116.570      755.324      699.621        0.736        0.129      107.655        9.687        0.008      345.014       22.243      859.487
06/14/2013  17:32:00       88.593       20.180       11.292       42.414       42.045       33.766     1798.974     1767.786     1140.165        0.654        0.235       90.863       10.115        0.012      344.477       21.325      859.479
06/14/2013  17:33:00       32.066       75.436        2.888       45.076       54.837       33.512     2031.832     3007.131     1123.078        0.644        0.308       81.968       20.105        0.060      345.018       22.249      859.466
06/14/2013  17:34:00       -3.912       12.254      -14.580       44.693       34.938       31.967     1997.455     1220.652     1021.883        0.231        0.212       12.863       18.037        1.966      345.223       22.600      859.454
06/14/2013  17:35:00       14.751       28.860       17.262       18.627       16.301       22.375      346.968      265.711      500.658        0.123        0.056       32.411       12.811        0.156      345.084       22.363      859.443
06/14/2013  17:36:00      -50.533       97.382      -12.385       33.936       40.707       22.089     1151.641     1657.024      487.939        0.774        0.165      109.713       24.044        0.048      345.051       22.306      859.428
06/14/2013  17:37:00      -93.419       32.171      -15.150       33.300       34.184       22.365     1108.898     1168.561      500.189        0.638        0.139       98.803       12.195        0.015      345.290       22.715      859.407
06/14/2013  17:38:00     -129.326      -55.912        4.457       54.379       53.936       41.669     2957.053     2909.081     1736.279        1.374        0.380      140.895       38.173        0.073      345.404       22.911      859.396
06/14/2013  17:39:00      -26.601      -41.775       -2.127       44.868       32.393       29.209     2013.158     1049.317      853.165        0.319        0.196       49.526       29.685        0.359      345.347       22.811      859.387
06/14/2013  17:40:00      -14.821      -34.551       14.354       53.684       36.213       20.601     2882.025     1311.346      424.417        0.312        0.231       37.596       20.359        0.293      345.046       22.298      859.379
06/14/2013  17:41:00     -106.235      -55.479       10.019       68.795       57.461       31.646     4732.765     3301.747     1001.472        1.175        0.452      119.849       37.747        0.099      345.296       22.725      859.369
06/14/2013  17:42:00       -5.433       -3.947        0.396       56.286       49.815       32.219     3168.073     2481.521     1038.062        0.337        0.334        6.715       17.379        6.698      344.883       22.018      859.358
06/14/2013  17:43:00       42.783       -0.882      -14.599       50.205       38.153       28.784     2520.562     1455.663      828.504        0.342        0.240       42.792       17.691        0.171      344.548       21.445      859.345
06/14/2013  17:44:00      112.289       65.895       10.613       51.054       49.806       33.382     2606.481     2480.642     1114.351        1.163        0.310      130.196       26.242        0.041      344.987       22.196      859.336
06/14/2013  17:45:00       15.719       17.149       40.326       59.779       43.904       22.508     3573.583     1927.586      506.589        0.409        0.300       23.263       16.024        0.474      345.173       22.515      859.316
06/14/2013  17:46:00      130.923       78.685       37.721       93.101       63.013       56.410     8667.785     3970.581     3182.063        2.028        0.791      152.749       44.209        0.084      345.259       22.660      859.307
06/14/2013  17:47:00       75.655       77.850       17.735       93.158       86.593       60.682     8678.448     7498.347     3682.358        1.597        0.993      108.555       35.813        0.109      345.309       22.747      859.300
06/14/2013  17:48:00      184.217      134.932        2.849       76.605       63.442       44.430     5868.268     4024.854     1974.025        3.201        0.593      228.348       22.105        0.009      345.206       22.568      859.310
06/14/2013  17:49:00      138.176       61.405       31.937       80.163       60.065       51.526     6426.151     3607.840     2654.953        1.828        0.634      151.205       44.068        0.085      345.101       22.389      859.299
06/14/2013  17:50:00       72.960       79.619       72.403       74.993       68.797       49.693     5623.969     4733.094     2469.397        1.486        0.641      107.993       43.859        0.165      344.809       21.890      859.294
06/14/2013  17:51:00       51.351       26.618       44.376       54.690       68.391       30.763     2990.944     4677.345      946.370        0.696        0.431       57.840       29.027        0.252      344.540       21.432      859.285
06/14/2013  17:52:00       61.570      -24.310        0.146       61.706       55.697       36.998     3807.687     3102.199     1368.875        0.633        0.414       66.196       19.346        0.085      345.169       22.508      859.288
06/14/2013  17:53:00      -17.618       56.026      -33.287       25.967       41.419       14.460      674.305     1715.534      209.093        0.358        0.130       58.731        5.613        0.009      345.181       22.528      859.275
06/14/2013  17:54:00       -7.668       -3.270       -7.028       26.177       41.944       26.543      685.210     1759.301      704.515        0.163        0.157        8.337       27.264       10.696      345.325       22.775      859.272
06/14/2013  17:55:00       30.625       22.737       15.964       49.583       28.493       19.757     2458.519      811.864      390.356        0.268        0.183       38.142       23.558        0.381      344.978       22.181      859.251
06/14/2013  17:56:00      -18.754       95.240      -10.459       55.414       43.411       29.328     3070.668     1884.555      860.154        0.767        0.291       97.069       21.875        0.051      345.313       22.754      859.251
06/14/2013  17:57:00      -34.553      105.747      -25.514       23.166       21.955       14.745      536.647      482.027      217.405        0.713        0.062      111.250        5.973        0.003      345.149       22.473      859.244
06/14/2013  17:58:00       -5.275       55.395        2.776       19.249       21.868       20.248      370.534      478.191      409.972        0.218        0.063       55.645       18.046        0.105      345.290       22.715      859.240
06/14/2013  17:59:00      -13.064       58.054       -7.686       15.888       19.045        9.901      252.426      362.724       98.037        0.216        0.036       59.506        8.021        0.018      345.242       22.632      859.234
06/14/2013  18:00:00        5.979       36.647        9.353       24.158       15.352       20.909      583.588      235.682      437.196        0.136        0.063       37.132       10.953        0.087      344.872       22.000      859.225
06/14/2013  18:01:00       30.185       42.173       17.392       25.336       19.201       19.870      641.936      368.683      394.807        0.220        0.070       51.862       14.227        0.075      344.614       21.557      859.221
06/14/2013  18:02:00       45.394       22.303       10.873       32.728       20.351       19.792     1071.092      414.157      391.742        0.228        0.094       50.577       19.147        0.143      344.519       21.396      859.218
06/14/2013  18:03:00       35.299       18.899       -0.189       30.974       22.505       18.434      959.381      506.478      339.821        0.170        0.090       40.040       11.725        0.086      344.794       21.867      859.215
06/14/2013  18:04:00       21.065       25.366       18.721       20.203       22.481       22.813      408.147      505.383      520.445        0.144        0.072       32.972       12.969        0.155      345.323       22.770      859.217
06/14/2013  18:05:00       16.207      113.639       -4.706       48.668       39.677       29.675     2368.532     1574.271      880.616        0.901        0.241      114.789       26.430        0.053      345.221       22.598      859.221
06/14/2013  18:06:00      -29.272       99.066      -19.113       27.627       31.704       22.150      763.253     1005.126      490.610        0.665        0.113      103.300       18.280        0.031      345.203       22.564      859.218
06/14/2013  18:07:00       35.666      114.058      -20.794       35.197       38.120       22.604     1238.820     1453.142      510.942        0.896        0.160      119.505        6.978        0.003      345.259       22.660      859.221
06/14/2013  18:08:00        9.880       74.530      -17.572       31.442       32.276       11.144      988.605     1041.711      124.188        0.406        0.108       75.182       13.002        0.030      345.261       22.665      859.214
06/14/2013  18:09:00      -12.534       29.847        3.210       18.086       44.000       19.466      327.113     1936.041      378.917        0.185        0.132       32.372       26.036        0.647      345.624       23.287      859.203
06/14/2013  18:10:00      108.991       67.268       19.458       70.844       33.180       33.691     5018.942     1100.921     1135.074        1.202        0.363      128.078       16.681        0.017      345.100       22.389      859.190
06/14/2013  18:11:00      140.336      145.864        7.386      101.213       96.891       65.176    10244.054     9387.795     4247.948        3.245        1.194      202.412       51.577        0.065      345.434       22.959      859.168
06/14/2013  18:12:00       45.843      147.970      -15.000       59.569      102.871       53.328     3548.431    10582.345     2843.841        2.059        0.849      154.909       60.571        0.153      345.499       23.072      859.168
06/14/2013  18:13:00       53.869       99.101       -9.872       45.070       55.672       41.068     2031.339     3099.356     1686.617        0.982        0.341      112.796       35.613        0.100      345.286       22.708      859.163
06/14/2013  18:14:00       46.695       47.776       -1.352       42.452       38.015       29.248     1802.189     1445.145      855.418        0.428        0.205       66.806       25.567        0.146      345.268       22.676      859.137
06/14/2013  18:15:00       56.537      137.765       -0.243       70.179      107.520       62.870     4925.053    11560.499     3952.576        2.130        1.022      148.915       67.384        0.205      345.436       22.962      859.139
06/14/2013  18:16:00       35.737      175.494      -21.022       39.678      139.682       46.286     1574.329    19511.180     2142.361        2.787        1.161      179.096       69.759        0.152      345.422       22.938      859.138
06/14/2013  18:17:00       -3.228      153.210      -13.101       74.247       84.724       34.358     5512.600     7178.126     1180.445        1.876        0.694      153.244       38.487        0.063      345.438       22.969      859.124
06/14/2013  18:18:00        7.224      137.362       -4.991       63.367       81.958       48.175     4015.325     6717.073     2320.783        1.600        0.653      137.552       45.390        0.109      345.621       23.280      859.115
06/14/2013  18:19:00       54.801      102.660       14.035       76.558      113.805       54.024     5861.064    12951.623     2918.606        1.773        1.087      116.372       54.244        0.217      345.621       23.281      859.115
06/14/2013  18:20:00       47.104      145.090      -11.823       43.635       97.474       43.878     1904.052     9501.090     1925.237        1.837        0.667      152.545       48.436        0.101      345.449       22.986      859.114
06/14/2013  18:21:00       48.271      201.202      -25.596       33.238       52.759       37.237     1104.742     2783.508     1386.569        2.437        0.264      206.911       29.962        0.021      345.317       22.758      859.109
06/14/2013  18:22:00       32.052      103.953      -14.284       38.452       29.610       22.612     1478.569      876.733      511.286        0.745        0.143      108.782       22.398        0.042      345.283       22.703      859.110
06/14/2013  18:23:00       10.648      101.359       -2.770       24.461       42.788       22.131      598.324     1830.807      489.800        0.666        0.146      101.917       21.455        0.044      345.338       22.799      859.102
06/14/2013  18:24:00      -58.147       81.218        1.515       52.314       43.983       31.480     2736.709     1934.527      990.961        0.782        0.283       99.887       31.532        0.100      345.594       23.237      859.111
06/14/2013  18:25:00      -38.266       49.657       15.541       39.402       38.202       29.828     1552.553     1459.400      889.700        0.404        0.195       62.691       27.751        0.196      345.559       23.177      859.112
06/14/2013  18:26:00      -15.290      165.829        0.309       55.684       71.294       39.889     3100.698     5082.799     1591.112        1.875        0.489      166.532       44.623        0.072      345.284       22.703      859.109
06/14/2013  18:27:00       29.733       99.037        2.808       44.415       61.448       29.805     1972.697     3775.867      888.331        0.867        0.332      103.404       27.593        0.071      345.318       22.762      859.104
06/14/2013  18:28:00     -106.970        5.034      -14.187       61.764       54.234       27.158     3814.846     2941.315      737.570        0.958        0.375      107.088       12.887        0.014      345.863       23.697      859.081
06/14/2013  18:29:00      -68.824       42.270      -18.123       44.153       32.265       21.830     1949.487     1041.025      476.540        0.516        0.173       80.768       12.684        0.025      345.650       23.333      859.070
06/14/2013  18:30:00       -2.189       90.837        8.058       39.034       53.096       25.233     1523.676     2819.190      636.700        0.665        0.249       90.864       17.605        0.038      345.614       23.269      859.065
06/14/2013  18:31:00      -42.974      133.487       -9.521       58.598       63.580       32.133     3433.767     4042.400     1032.547        1.413        0.425      140.234       33.384        0.057      345.608       23.259      859.068
06/14/2013  18:32:00       33.716       89.158        0.171       63.375       67.908       35.598     4016.447     4611.457     1267.253        0.949        0.495       95.320       36.599        0.147      345.585       23.220      859.073
06/14/2013  18:33:00      -20.928      146.605      -21.724       46.757       35.655       22.082     2186.227     1271.283      487.608        1.317        0.197      148.091       18.580        0.016      345.434       22.962      859.083
06/14/2013  18:34:00       23.339      128.155       -7.117       55.462       57.879       33.418     3075.982     3349.995     1116.733        1.228        0.377      130.263       35.246        0.073      345.517       23.103      859.085
06/14/2013  18:35:00       17.686       48.822        0.555       37.460       70.976       30.119     1403.277     5037.581      907.182        0.502        0.367       51.926       30.607        0.347      345.646       23.324      859.085
06/14/2013  18:36:00        0.579      142.691      -13.728       53.046       59.062       38.695     2813.907     3488.323     1497.270        1.417        0.390      142.692       36.575        0.066      345.575       23.203      859.084
06/14/2013  18:37:00        5.929      251.788      -30.512       57.771      114.819       50.357     3337.498    13183.498     2535.863        4.171        0.953      251.857       62.761        0.062      345.364       22.840      859.086
06/14/2013  18:38:00       79.660      139.881        2.529       73.699       97.500       55.555     5431.563     9506.222     3086.386        2.197        0.901      160.973       59.327        0.136      345.318       22.759      859.087
06/14/2013  18:39:00      106.792       82.525       10.235       90.056       49.104       41.094     8110.047     2411.208     1688.676        1.526        0.610      134.962       34.063        0.064      345.275       22.689      859.092
06/14/2013  18:40:00       89.006       58.155        6.405       52.309       51.660       34.550     2736.184     2668.779     1193.684        0.897        0.330      106.320       27.066        0.065      345.133       22.446      859.101
06/14/2013  18:41:00      119.346       92.130       12.792       57.287       44.357       34.335     3281.748     1967.553     1178.924        1.466        0.321      150.769        6.971        0.002      345.308       22.744      859.104
06/14/2013  18:42:00      204.366      124.833       14.844      116.813       88.702       68.022    13645.364     7868.020     4627.049        4.185        1.307      239.476       37.887        0.025      345.398       22.896      859.097
06/14/2013  18:43:00      238.755      137.009       16.610      111.047       76.673       61.494    12331.484     5878.736     3781.570        4.902        1.100      275.274       32.154        0.014      345.286       22.705      859.086
06/14/2013  18:44:00      211.840      153.034       43.038       77.245       62.870       62.807     5966.752     3952.609     3944.766        4.200        0.693      261.334       39.912        0.023      345.332       22.780      859.094
06/14/2013  18:45:00      125.975       78.216       11.257       88.459       45.177       48.838     7825.067     2040.988     2385.117        1.718        0.613      148.281       25.747        0.030      345.359       22.832      859.106
06/14/2013  18:46:00       43.253      223.636      -29.723       51.918      108.637       48.982     2695.441    11801.895     2399.195        3.483        0.845      227.780       59.187        0.068      345.405       22.909      859.106
06/14/2013  18:47:00       34.690      139.553      -14.028       48.201       56.768       40.965     2323.311     3222.616     1678.160        1.405        0.361      143.800       35.761        0.062      345.462       23.008      859.103
06/14/2013  18:48:00       90.451       94.429       -2.086       93.167       66.107       43.791     8680.011     4370.086     1917.644        1.603        0.748      130.761       36.701        0.079      345.473       23.026      859.107
06/14/2013  18:49:00      139.069      113.489       14.368       53.250       47.904       53.047     2835.603     2294.795     2814.014        2.018        0.397      179.499       25.255        0.020      345.285       22.704      859.103
06/14/2013  18:50:00       20.499      202.182      -24.334       39.133       70.295       34.775     1531.377     4941.383     1209.306        2.478        0.384      203.218       38.863        0.037      345.244       22.635      859.089
06/14/2013  18:51:00       41.396      176.252      -20.013       48.399       70.332       40.830     2342.429     4946.644     1667.105        2.107        0.448      181.048       41.755        0.053      345.311       22.749      859.093
06/14/2013  18:52:00       36.168       91.821       -1.759       59.661       63.734       40.421     3559.413     4062.030     1633.878        0.950        0.463       98.687       37.756        0.146      345.357       22.831      859.094
06/14/2013  18:53:00        2.556      164.756      -13.882       50.674       71.441       42.238     2567.844     5103.886     1784.091        1.840        0.473      164.776       43.314        0.069      345.319       22.762      859.098
06/14/2013  18:54:00      -10.653       53.053       -0.638       49.452       49.873       30.357     2445.452     2487.273      921.550        0.439        0.293       54.112       22.298        0.170      345.381       22.872      859.101
06/14/2013  18:55:00       24.898      195.148      -31.076       55.340       61.940       38.801     3062.508     3836.585     1505.502        2.403        0.420      196.730       38.773        0.039      345.386       22.877      859.087
06/14/2013  18:56:00       20.143      193.287      -32.302       42.884       67.220       37.605     1839.077     4518.484     1414.155        2.329        0.389      194.334       41.916        0.047      345.347       22.808      859.084
06/14/2013  18:57:00      111.010      133.139       16.398       78.255       72.053       51.061     6123.921     5191.654     2607.276        2.212        0.696      173.347       53.608        0.096      345.300       22.729      859.094
06/14/2013  18:58:00       54.930       55.894        0.094       50.366       36.487       23.706     2536.731     1331.303      561.985        0.528        0.222       78.368       19.619        0.063      345.322       22.769      859.101
06/14/2013  18:59:00       -1.167       58.633      -12.379       26.176       36.459       15.999      685.158     1329.272      255.981        0.293        0.114       58.645       13.087        0.050      345.381       22.871      859.119
06/14/2013  19:00:00       13.557      159.927      -18.114       34.182       61.353       25.601     1168.395     3764.162      655.407        1.584        0.279      160.500       31.334        0.038      345.266       22.669      859.128
06/14/2013  19:01:00      128.216      104.393      -15.092       54.488       99.004       45.991     2968.944     9801.849     2115.201        2.122        0.744      165.340       51.062        0.095      345.224       22.600      859.115
06/14/2013  19:02:00       11.607       13.774       33.482       33.676       31.313       18.568     1134.066      980.531      344.759        0.195        0.123       18.012       13.550        0.566      344.896       22.040      859.095
06/14/2013  19:03:00       28.270       35.447        5.912       25.739       26.318       24.249      662.505      692.643      587.993        0.202        0.097       45.340       19.775        0.190      344.681       21.674      859.101
06/14/2013  19:04:00      -36.484       76.118      -13.714       33.337       53.701       27.553     1111.372     2883.752      759.187        0.603        0.238       84.409       33.500        0.158      345.193       22.548      859.114
06/14/2013  19:05:00      -23.271       54.443        7.819       42.913       44.496       29.947     1841.509     1979.924      896.834        0.414        0.236       59.208       35.665        0.363      345.319       22.764      859.116
06/14/2013  19:06:00      -26.705      135.027      -18.441       40.952       35.893       22.999     1677.029     1288.297      528.951        1.139        0.175      137.642       23.107        0.028      345.263       22.668      859.120
06/14/2013  19:07:00      -23.741      207.985      -29.736       35.887       46.282       19.757     1287.890     2142.025      390.341        2.426        0.191      209.335       20.449        0.010      345.355       22.823      859.132
06/14/2013  19:08:00       20.790      190.217      -21.323       47.962       72.773       31.366     2300.335     5295.937      983.855        2.282        0.429      191.350       31.282        0.027      345.370       22.849      859.142
06/14/2013  19:09:00       49.002       82.613       -0.960       71.229       50.993       34.458     5073.550     2600.324     1187.352        0.904        0.443       96.053       24.449        0.065      345.324       22.773      859.144
06/14/2013  19:10:00       40.922      131.377       -4.711       53.842       61.094       37.923     2898.945     3732.512     1438.124        1.351        0.403      137.603       39.379        0.082      345.276       22.690      859.140
06/14/2013  19:11:00       78.707       77.881       12.398       58.144       55.188       40.247     3380.720     3045.766     1619.821        1.023        0.402      110.726       30.519        0.076      345.256       22.657      859.132
06/14/2013  19:12:00      100.960       58.564       29.010       59.414       44.102       35.398     3530.006     1944.997     1252.997        1.059        0.336      116.716       33.063        0.080      344.875       22.004      859.135
06/14/2013  19:13:00       45.191       96.097       -5.233       48.407       52.545       31.147     2343.253     2760.966      970.112        0.869        0.304      106.193       29.108        0.075      345.251       22.648      859.136
06/14/2013  19:14:00       18.822       89.648       -1.328       44.738       58.346       32.231     2001.459     3404.252     1038.831        0.742        0.322       91.603       24.865        0.074      345.285       22.706      859.133
06/14/2013  19:15:00       23.896       83.843       -1.989       33.326       43.778       24.430     1110.629     1916.518      596.844        0.561        0.181       87.182       23.555        0.073      345.302       22.736      859.133
06/14/2013  19:16:00       81.867       70.362       27.190       49.512       41.709       29.678     2451.483     1739.675      880.771        0.873        0.254      107.949       20.161        0.035      345.203       22.567      859.135
06/14/2013  19:17:00       15.233      114.501       -6.980       53.662       74.895       28.879     2879.616     5609.207      834.025        1.136        0.466      115.510       25.515        0.049      345.277       22.691      859.124
06/14/2013  19:18:00       57.565       75.631       11.592       67.605       65.311       48.756     4570.392     4265.572     2377.184        1.019        0.561       95.046       34.137        0.129      345.243       22.633      859.125
06/14/2013  19:19:00       31.103      181.679      -15.786       89.692      101.115       51.499     8044.659    10224.309     2652.169        2.757        1.046      184.322       45.167        0.060      345.219       22.589      859.136
06/14/2013  19:20:00       42.419      172.352      -19.552       56.926       88.242       50.495     3240.573     7786.702     2549.757        2.273        0.679      177.495       49.362        0.077      345.208       22.572      859.140
06/14/2013  19:21:00       65.968      125.972        7.871       62.673       80.971       55.748     3927.921     6556.350     3107.784        1.693        0.680      142.199       48.339        0.116      345.209       22.577      859.148
06/14/2013  19:22:00       46.479      160.685      -18.457       46.395       80.017       43.714     2152.514     6402.768     1910.915        1.939        0.523      167.272       44.361        0.070      345.186       22.535      859.158
06/14/2013  19:23:00       74.283      116.454       -3.202       68.329       56.886       45.705     4668.810     3235.992     2088.963        1.454        0.500      138.128       35.528        0.066      345.187       22.538      859.163
06/14/2013  19:24:00      134.159      156.225        7.228      106.390       95.823       57.506    11318.854     9182.105     3306.974        3.313        1.190      205.925       56.009        0.074      345.100       22.389      859.162
06/14/2013  19:25:00       61.617      129.024       -5.753       62.058       71.781       45.368     3851.186     5152.506     2058.235        1.577        0.553      142.982       34.867        0.059      345.122       22.426      859.182
06/14/2013  19:26:00      158.530       85.280       27.494       88.359       61.707       44.825     7807.332     3807.713     2009.250        2.339        0.681      180.012       24.084        0.018      345.123       22.427      859.186
06/14/2013  19:27:00      100.476      122.127       12.335       81.859       68.151       51.677     6700.838     4644.600     2670.524        1.959        0.701      158.147       37.233        0.055      345.127       22.434      859.191
06/14/2013  19:28:00       93.779       85.021       27.831       58.493       49.532       42.658     3421.399     2453.457     1819.683        1.224        0.385      126.582       35.843        0.080      345.129       22.442      859.187
06/14/2013  19:29:00       97.487       52.080       14.892       72.067       53.953       42.917     5193.614     2910.918     1841.908        1.119        0.497      110.526       30.028        0.074      344.996       22.211      859.185
06/14/2013  19:30:00       13.075       67.173        1.951       55.183       49.419       31.732     3045.132     2442.218     1006.932        0.559        0.325       68.434       22.051        0.104      345.105       22.399      859.203
06/14/2013  19:31:00       24.059      124.898      -10.502       46.235       54.599       30.925     2137.691     2981.036      956.385        1.118        0.304      127.194       30.959        0.059      345.165       22.498      859.207
06/14/2013  19:32:00       34.414      147.287      -12.711       37.959       56.485       36.010     1440.853     3190.587     1296.740        1.448        0.296      151.254       32.142        0.045      345.152       22.478      859.219
06/14/2013  19:33:00       26.385       58.039       16.099       50.709       50.198       36.141     2571.402     2519.830     1306.173        0.536        0.320       63.755       24.719        0.150      345.169       22.506      859.220
06/14/2013  19:34:00       40.097      163.502      -18.188       54.341       52.522       34.908     2952.890     2758.562     1218.541        1.780        0.346      168.346       32.297        0.037      345.142       22.462      859.228
06/14/2013  19:35:00       37.179      170.681      -19.113       55.605       78.686       42.623     3091.903     6191.533     1816.678        2.099        0.555      174.683       42.765        0.060      345.132       22.443      859.225
06/14/2013  19:36:00       44.604      120.011        0.547       50.199       81.045       46.543     2519.906     6568.304     2166.277        1.382        0.563      128.032       46.637        0.133      345.127       22.436      859.230
06/14/2013  19:37:00       34.993      193.426      -25.731       43.449       75.634       36.081     1887.828     5720.438     1301.828        2.410        0.446      196.566       41.427        0.044      345.126       22.433      859.229
06/14/2013  19:38:00       68.371      198.179      -14.785       74.988      106.950       68.524     5623.174    11438.383     4695.577        3.296        1.088      209.642       66.351        0.100      345.112       22.408      859.241
06/14/2013  19:39:00      104.303      107.435        0.318       68.060       72.483       58.190     4632.182     5253.851     3386.063        1.784        0.664      149.738       45.669        0.093      345.110       22.406      859.252
06/14/2013  19:40:00       80.110      168.543      -15.022       70.203      113.519       63.241     4928.499    12886.488     3999.467        2.843        1.091      186.612       63.068        0.114      345.100       22.388      859.254
06/14/2013  19:41:00       70.528      147.397        6.189       84.053      100.530       60.014     7064.879    10106.335     3601.652        2.375        1.039      163.402       59.873        0.134      345.074       22.343      859.250
06/14/2013  19:42:00       87.249      122.724       11.700       84.912       66.037       58.422     7210.131     4360.849     3413.112        1.889        0.749      150.577       41.990        0.078      345.062       22.322      859.258
06/14/2013  19:43:00       85.725      146.212        5.673       73.461      100.634       61.105     5396.571    10127.232     3733.867        2.400        0.963      169.490       61.489        0.132      345.047       22.296      859.267
06/14/2013  19:44:00       75.269      123.798        4.033       74.978       83.714       51.049     5621.747     7008.020     2605.967        1.812        0.762      144.884       51.925        0.128      345.033       22.273      859.257
06/14/2013  19:45:00       44.317       77.179       25.321       59.949       65.900       43.838     3593.832     4342.839     1921.755        0.921        0.493       88.997       33.986        0.146      345.026       22.262      859.267
06/14/2013  19:46:00      122.756       89.356       24.333       46.700       41.417       41.222     2180.905     1715.360     1699.289        1.462        0.280      151.834       16.735        0.012      345.006       22.228      859.259
06/14/2013  19:47:00      185.538      142.827       15.766       85.302       65.926       52.662     7276.429     4346.294     2773.273        3.473        0.720      234.145       30.103        0.017      344.997       22.211      859.253
06/14/2013  19:48:00      147.946      103.042       18.880       67.129       50.400       42.638     4506.348     2540.176     1817.988        2.086        0.443      180.293       31.012        0.030      344.958       22.143      859.254
06/14/2013  19:49:00      114.116      110.491       -1.417      106.272       70.947       53.482    11293.639     5033.476     2860.355        2.221        0.959      158.842       35.396        0.050      344.926       22.089      859.259
06/14/2013  19:50:00      102.700       56.548       28.577       71.530       60.819       45.607     5116.506     3698.984     2079.981        1.273        0.545      117.238       31.733        0.073      344.799       21.874      859.258
06/14/2013  19:51:00      113.747      160.006       -6.770       87.446       92.768       61.642     7646.820     8605.852     3799.751        2.932        1.003      196.317       53.737        0.075      344.884       22.018      859.266
06/14/2013  19:52:00       46.268      123.397        7.306       83.683       88.295       65.261     7002.765     7796.055     4258.978        1.824        0.953      131.786       48.712        0.137      344.867       21.990      859.280
06/14/2013  19:53:00       43.327      165.985       -5.323       88.321      105.662       51.024     7800.667    11164.392     2603.408        2.551        1.078      171.547       45.391        0.070      344.849       21.959      859.294
06/14/2013  19:54:00       67.321      157.692       -7.374       93.784      129.698       59.814     8795.366    16821.664     3577.730        2.932        1.460      171.461       61.863        0.130      344.803       21.879      859.312
06/14/2013  19:55:00       -3.863      269.934      -22.565       74.358      143.701       64.976     5529.129    20650.053     4221.843        5.189        1.520      269.962       81.131        0.090      344.753       21.794      859.318
06/14/2013  19:56:00       31.999      227.145      -12.207       69.202       95.411       55.821     4788.985     9103.185     3116.000        3.488        0.850      229.388       56.635        0.061      344.773       21.825      859.320
06/14/2013  19:57:00       26.435      189.873      -25.594       56.483       71.268       43.787     3190.309     5079.190     1917.298        2.379        0.509      191.704       48.267        0.063      344.748       21.784      859.325
06/14/2013  19:58:00       52.521      259.109      -17.209       67.149      111.957       69.652     4508.921    12534.479     4851.343        4.604        1.095      264.378       72.676        0.076      344.721       21.737      859.326
06/14/2013  19:59:00       30.358      264.838      -28.230       68.207      113.634       56.858     4652.141    12912.584     3232.807        4.632        1.040      266.572       66.755        0.063      344.706       21.711      859.341
06/14/2013  20:00:00       15.560      250.651      -44.434       53.452       81.617       38.393     2857.070     6661.259     1474.003        3.802        0.550      251.133       35.052        0.019      344.710       21.718      859.344
06/14/2013  20:01:00       19.646      259.312      -25.818       62.951      131.810       52.670     3962.795    17373.767     2774.087        4.620        1.206      260.055       66.333        0.065      344.684       21.674      859.353
06/14/2013  20:02:00       63.104      203.050       -7.954       82.628      139.605       63.783     6827.462    19489.605     4068.221        3.782        1.519      212.630       76.714        0.130      344.651       21.620      859.357
06/14/2013  20:03:00       20.626      132.257        1.009       63.850       96.986       50.069     4076.814     9406.223     2506.880        1.695        0.799      133.856       52.501        0.154      344.639       21.598      859.369
06/14/2013  20:04:00       76.334      163.669       -0.658       71.666       87.858       63.514     5136.024     7718.962     4034.020        2.475        0.844      180.595       57.499        0.101      344.633       21.587      859.381
06/14/2013  20:05:00       82.190       91.474        8.665       72.785       78.925       62.968     5297.633     6229.220     3964.920        1.534        0.775      122.975       59.176        0.232      344.604       21.541      859.382
06/14/2013  20:06:00       21.479      166.332      -18.032       43.934       75.187       42.378     1930.185     5653.017     1795.910        1.891        0.469      167.713       48.968        0.085      344.630       21.584      859.393
06/14/2013  20:07:00       60.921      158.696       -8.416       53.696       69.250       50.001     2883.272     4795.507     2500.112        1.957        0.509      169.988       45.097        0.070      344.619       21.564      859.396
06/14/2013  20:08:00       24.833      172.834        0.231       76.246      125.959       60.762     5813.415    15865.602     3691.982        2.792        1.269      174.608       73.868        0.179      344.611       21.551      859.394
06/14/2013  20:09:00       40.037      152.835      -14.036       52.644       86.508       44.188     2771.428     7483.572     1952.544        1.868        0.610      157.992       49.280        0.097      344.608       21.546      859.393
06/14/2013  20:10:00       22.428      197.701      -33.200       44.351       67.341       27.162     1967.042     4534.866      737.799        2.396        0.362      198.969       24.446        0.015      344.588       21.512      859.395
06/14/2013  20:11:00       19.502      128.840        4.740       55.631       78.497       46.560     3094.808     6161.819     2167.865        1.421        0.571      130.307       47.311        0.132      344.529       21.413      859.396
06/14/2013  20:12:00       90.477       79.841       22.065       56.172       52.072       58.325     3155.315     2711.526     3401.761        1.216        0.463      120.668       35.764        0.088      344.545       21.440      859.399
06/14/2013  20:13:00       50.064      117.629        8.450       67.999       75.194       51.330     4623.901     5654.158     2634.784        1.466        0.646      127.839       40.966        0.103      344.513       21.384      859.415
06/14/2013  20:14:00       67.963      155.144        3.687       85.972      104.837       52.377     7391.134    10990.789     2743.376        2.491        1.056      169.377       60.149        0.126      344.502       21.364      859.426
06/14/2013  20:15:00       57.391      138.928      -11.512       74.817      104.413       57.352     5597.569    10902.018     3289.214        2.125        0.989      150.315       64.463        0.184      344.490       21.343      859.442
06/14/2013  20:16:00       47.460      125.643        1.374       63.834      102.385       59.598     4074.789    10482.593     3551.965        1.807        0.905      134.308       52.169        0.151      344.468       21.307      859.451
06/14/2013  20:17:00       10.485      242.223      -25.034       56.576       94.519       54.280     3200.806     8933.885     2946.322        3.724        0.754      242.450       58.981        0.059      344.439       21.255      859.459
06/14/2013  20:18:00       47.755      106.189       13.617       69.400       93.991       55.332     4816.337     8834.301     3061.637        1.522        0.836      116.433       57.161        0.241      344.423       21.229      859.468
06/14/2013  20:19:00       92.306      152.862       -0.192       68.047       83.048       52.226     4630.458     6896.944     2727.553        2.307        0.713      178.570       54.446        0.093      344.432       21.244      859.475
06/14/2013  20:20:00       74.145      134.070       -5.234       70.334       84.079       43.247     4946.860     7069.281     1870.275        1.869        0.694      153.206       44.195        0.083      344.423       21.231      859.478
06/14/2013  20:21:00       73.275      107.605        7.831       58.920       62.632       56.564     3471.575     3922.827     3199.507        1.380        0.530      130.184       48.552        0.139      344.384       21.164      859.481
06/14/2013  20:22:00       71.636      125.649        3.213       76.515       69.610       51.745     5854.572     4845.617     2677.499        1.715        0.669      144.635       39.768        0.076      344.366       21.134      859.477
06/14/2013  20:23:00       58.397      112.519       -4.384       58.830       57.252       39.901     3460.931     3277.759     1592.087        1.221        0.417      126.770       35.875        0.080      344.364       21.130      859.463
06/14/2013  20:24:00       19.168      110.323        4.737       54.804       80.826       47.012     3003.453     6532.879     2210.147        1.215        0.587      111.976       49.410        0.195      344.338       21.085      859.458
06/14/2013  20:25:00       74.033       96.967       17.145       64.581       58.857       58.906     4170.719     3464.148     3469.897        1.314        0.555      121.998       42.308        0.120      344.341       21.092      859.449
06/14/2013  20:26:00       17.992       64.971        0.607       50.087       56.667       41.209     2508.751     3211.189     1698.218        0.598        0.371       67.416       31.804        0.223      344.286       20.997      859.450
06/14/2013  20:27:00       55.432      127.444        1.346       71.946       67.257       47.264     5176.182     4523.530     2233.878        1.562        0.597      138.977       39.860        0.082      344.259       20.950      859.448
06/14/2013  20:28:00       56.668      118.219       -1.087       61.808       70.524       56.452     3820.190     4973.654     3186.786        1.458        0.599      131.099       50.037        0.146      344.286       20.997      859.445
06/14/2013  20:29:00       33.521      113.718        0.972       42.061       65.526       35.931     1769.096     4293.709     1291.012        1.070        0.368      118.556       37.101        0.098      344.266       20.962      859.447
06/14/2013  20:30:00       42.285      103.253        0.272       56.277       75.158       39.968     3167.113     5648.688     1597.463        1.143        0.521      111.576       44.207        0.157      344.288       20.999      859.447
06/14/2013  20:31:00       39.848       63.938       21.733       63.920       59.712       40.201     4085.729     3565.541     1616.099        0.771        0.463       75.338       36.102        0.230      344.223       20.891      859.441
06/14/2013  20:32:00       88.204       64.520       22.323       74.230       64.681       54.516     5510.081     4183.592     2971.980        1.255        0.633      109.283       35.001        0.103      344.268       20.964      859.440
06/14/2013  20:33:00       60.151      129.859      -15.359       64.536       69.959       51.070     4164.954     4894.276     2608.111        1.619        0.583      143.114       45.032        0.099      344.270       20.969      859.436
06/14/2013  20:34:00       69.868      104.557       16.710       85.998       65.518       51.100     7395.631     4292.576     2611.224        1.519        0.715      125.753       43.589        0.120      344.224       20.890      859.449
06/14/2013  20:35:00       44.074       78.602       14.139       58.427       64.049       43.857     3413.746     4102.222     1923.416        0.888        0.472       90.116       33.068        0.135      344.215       20.875      859.445
06/14/2013  20:36:00       12.414      137.708       -7.010       56.903       87.669       43.292     3237.930     7685.834     1874.169        1.598        0.640      138.267       47.499        0.118      344.244       20.923      859.431
06/14/2013  20:37:00       32.648      143.729       -8.797       63.378       89.161       52.726     4016.788     7949.699     2780.013        1.827        0.737      147.391       57.280        0.151      344.212       20.869      859.426
06/14/2013  20:38:00       23.535      177.847      -17.647       48.712       81.579       41.345     2372.858     6655.169     1709.396        2.161        0.537      179.397       42.541        0.056      344.223       20.886      859.424
06/14/2013  20:39:00       30.998      176.187      -17.992       51.674       69.019       46.214     2670.227     4763.601     2135.734        2.095        0.478      178.893       35.317        0.039      344.197       20.843      859.434
06/14/2013  20:40:00       25.088      100.725       -3.842       41.075       52.990       38.065     1687.156     2807.894     1448.968        0.837        0.297      103.802       36.769        0.125      344.179       20.815      859.431
06/14/2013  20:41:00       17.815      166.234        2.871       63.148      106.593       56.212     3987.647    11362.105     3159.795        2.323        0.925      167.186       61.690        0.136      344.180       20.813      859.425
06/14/2013  20:42:00       25.024      235.612      -33.555       53.150       67.353       36.901     2824.898     4536.430     1361.683        3.299        0.436      236.937       36.693        0.024      344.228       20.895      859.430
06/14/2013  20:43:00        8.466      140.131       -7.201       44.102       84.239       41.127     1944.983     7096.269     1691.445        1.524        0.537      140.386       47.705        0.115      344.163       20.786      859.436
06/14/2013  20:44:00        5.465      110.532        1.948       52.593       86.070       40.632     2766.064     7408.006     1650.994        1.204        0.591      110.667       48.547        0.192      344.132       20.732      859.444
06/14/2013  20:45:00       32.452      166.969      -18.838       50.288       61.894       38.945     2528.872     3830.870     1516.733        1.858        0.394      170.093       38.183        0.050      344.142       20.749      859.448
06/14/2013  20:46:00        8.634      192.393      -21.379       31.530       39.667       30.779      994.153     1573.464      947.340        2.053        0.176      192.587       20.808        0.012      344.187       20.826      859.458
06/14/2013  20:47:00      -19.118      224.208      -26.758       55.696       67.921       40.648     3102.057     4613.326     1652.246        3.036        0.468      225.021       45.830        0.041      344.191       20.832      859.455
06/14/2013  20:48:00       31.653      219.578      -30.806       44.549       76.975       36.635     1984.575     5925.129     1342.092        2.971        0.463      221.848       39.954        0.032      344.186       20.825      859.448
06/14/2013  20:49:00        5.900      117.228      -15.455       31.968       39.059       26.698     1021.936     1525.567      712.786        0.864        0.163      117.377       23.685        0.041      344.133       20.736      859.465
06/14/2013  20:50:00       18.922      114.808      -12.043       33.559       41.904       31.232     1126.209     1755.986      975.464        0.877        0.193      116.357       27.619        0.056      344.127       20.725      859.469
06/14/2013  20:51:00      -26.424      118.853      -26.011       35.860       55.490       19.867     1285.970     3079.106      394.708        1.013        0.238      121.755       19.143        0.025      344.149       20.763      859.479
06/14/2013  20:52:00       -8.255       74.410       -7.163       23.288       27.913       16.298      542.314      779.114      265.615        0.362        0.079       74.866       15.237        0.041      344.046       20.587      859.487
06/14/2013  20:53:00      -43.440      150.919      -19.824       41.422       66.283       26.259     1715.769     4393.484      689.553        1.593        0.340      157.046       30.147        0.037      344.109       20.693      859.480
06/14/2013  20:54:00       15.240      132.016      -12.149       31.148       31.733       25.761      970.194     1006.984      663.649        1.022        0.132      132.892       15.457        0.014      344.087       20.657      859.475
06/14/2013  20:55:00       -4.335      132.716      -11.944       32.437       35.797       27.444     1052.165     1281.422      753.195        1.043        0.154      132.787       23.514        0.031      344.084       20.652      859.465
06/14/2013  20:56:00       -7.287      115.430       -9.008       48.726       43.933       21.457     2374.264     1930.127      460.420        0.911        0.238      115.659       15.663        0.018      344.068       20.625      859.458
06/14/2013  20:57:00        3.214       94.359       -4.605       24.092       30.273       21.624      580.437      916.482      467.585        0.545        0.098       94.414       19.401        0.042      344.063       20.617      859.462
06/14/2013  20:58:00      -19.378       98.943      -10.727       32.091       39.486       24.366     1029.859     1559.183      593.702        0.673        0.159      100.822       21.006        0.043      344.042       20.580      859.468
06/14/2013  20:59:00      -22.002      128.642      -20.730       38.404       59.765       27.117     1474.852     3571.848      735.317        1.162        0.289      130.510       34.417        0.070      344.063       20.615      859.484
06/14/2013  21:00:00      -56.081      213.706      -29.649       57.992       68.882       24.295     3363.026     4744.759      590.228        2.919        0.435      220.941       13.608        0.004      344.156       20.773      859.486
06/14/2013  21:01:00      -29.446      168.931      -20.135       27.813       50.493       20.117      773.540     2549.552      404.681        1.677        0.186      171.478       11.462        0.004      344.134       20.736      859.499
06/14/2013  21:02:00      -53.746      156.626      -12.093       46.472       62.390       27.509     2159.687     3892.522      756.769        1.719        0.340      165.590       24.136        0.021      344.087       20.656      859.508
06/14/2013  21:03:00      -52.133      112.615      -12.186       33.004       59.150       31.379     1089.244     3498.730      984.640        1.056        0.279      124.097       28.223        0.052      344.056       20.604      859.519
06/14/2013  21:04:00      -44.378       52.183      -11.209       32.307       35.754       17.743     1043.739     1278.338      314.823        0.373        0.132       68.502       16.953        0.061      344.065       20.618      859.518
06/14/2013  21:05:00      -38.631      110.828      -18.849       30.169       55.012       20.994      910.173     3026.343      440.728        0.925        0.219      117.367       25.653        0.048      344.120       20.713      859.519
06/14/2013  21:06:00      -53.396      113.649      -27.206       42.338       77.937       28.291     1792.537     6074.232      800.362        1.259        0.433      125.567       27.562        0.048      344.156       20.773      859.524
06/14/2013  21:07:00      -17.161       90.081       -7.893       44.459       35.069       28.637     1976.574     1229.827      820.102        0.625        0.201       91.701       13.071        0.020      344.073       20.632      859.534
06/14/2013  21:08:00      -56.141       45.773       -0.597       31.289       25.764       25.385      979.004      663.782      644.416        0.377        0.114       72.436       17.735        0.060      344.017       20.538      859.544
06/14/2013  21:09:00      -73.362       73.607      -14.000       31.465       41.425       25.612      990.017     1716.040      655.951        0.718        0.168      103.923       22.423        0.047      344.074       20.634      859.553
06/14/2013  21:10:00      -39.224      114.237      -18.986       37.879       58.618       26.442     1434.809     3436.047      699.171        1.026        0.279      120.784       27.102        0.050      344.133       20.735      859.562
06/14/2013  21:11:00      -99.695       43.722       -6.587       42.199       30.820       23.639     1780.735      949.856      558.795        0.759        0.164      108.861       24.369        0.050      344.045       20.585      859.564
06/14/2013  21:12:00      -85.139      103.554      -19.149       47.326       40.184       30.970     2239.754     1614.718      959.160        1.158        0.241      134.060       29.099        0.047      343.938       20.403      859.571
06/14/2013  21:13:00     -131.881       70.555      -24.168       48.566       34.623       25.443     2358.669     1198.769      647.337        1.358        0.210      149.568       16.697        0.012      343.992       20.495      859.579
06/14/2013  21:14:00     -113.342       71.235      -20.356       32.336       36.212       25.752     1045.608     1311.335      663.162        1.068        0.151      133.868       22.813        0.029      343.966       20.451      859.586
06/14/2013  21:15:00     -111.051       87.048      -21.878       52.255       37.775       25.477     2730.561     1426.927      649.102        1.260        0.240      141.101       26.448        0.035      343.928       20.384      859.603
06/14/2013  21:16:00     -124.358       50.366      -19.208       36.744       28.307       21.240     1350.120      801.309      451.129        1.049        0.130      134.170       19.503        0.021      343.934       20.396      859.613
06/14/2013  21:17:00     -126.898       75.209      -25.484       45.434       45.420       28.739     2064.279     2062.937      825.915        1.368        0.248      147.511       31.145        0.045      343.912       20.358      859.630
06/14/2013  21:18:00     -130.427      137.434      -25.173       48.281       54.768       34.122     2331.069     2999.537     1164.324        2.151        0.325      189.471       19.569        0.011      343.876       20.296      859.628
06/14/2013  21:19:00     -107.642       65.606      -18.066       36.502       53.247       22.302     1332.412     2835.194      497.394        1.044        0.233      126.060       20.297        0.026      343.880       20.304      859.635
06/14/2013  21:20:00     -129.736      153.141      -36.466       41.431       63.585       30.150     1716.513     4043.100      909.010        2.414        0.333      200.708       22.196        0.012      343.843       20.238      859.642
06/14/2013  21:21:00      -93.347      126.841      -18.303       46.336       52.007       29.090     2147.036     2704.767      846.228        1.542        0.285      157.487       18.432        0.014      343.766       20.108      859.645
06/14/2013  21:22:00     -104.563      156.652      -30.371       52.879       62.981       31.658     2796.162     3966.547     1002.257        2.208        0.388      188.344       29.491        0.025      343.782       20.134      859.651
06/14/2013  21:23:00     -120.700       93.679      -22.829       47.296       41.756       25.484     2236.924     1743.524      649.447        1.425        0.231      152.788       25.416        0.028      343.718       20.028      859.640
06/14/2013  21:24:00     -141.767       67.609      -19.779       50.499       50.615       32.945     2550.124     2561.895     1085.346        1.563        0.310      157.064       26.891        0.029      343.754       20.087      859.640
06/14/2013  21:25:00     -146.044      103.753      -32.626       72.393       83.275       27.536     5240.742     6934.685      758.216        2.304        0.647      179.147       24.356        0.018      343.699       19.992      859.638
06/14/2013  21:26:00     -119.639      164.921      -29.236       50.263       73.604       36.398     2526.412     5417.525     1324.795        2.582        0.463      203.746       30.363        0.022      343.662       19.928      859.652
06/14/2013  21:27:00     -160.650      121.314      -34.293       59.394       55.084       41.542     3527.607     3034.254     1725.699        2.499        0.414      201.310       39.087        0.038      343.656       19.918      859.659
06/14/2013  21:28:00     -139.036       80.696      -26.383       51.245       50.990       25.295     2626.098     2600.006      639.845        1.620        0.293      160.757       19.790        0.015      343.626       19.868      859.666
06/14/2013  21:29:00     -149.153      130.430      -37.359       39.216       72.218       35.678     1537.919     5215.458     1272.926        2.434        0.401      198.138       33.699        0.029      343.610       19.841      859.680
06/14/2013  21:30:00     -123.541       34.581      -17.565       69.094       49.436       35.522     4773.970     2443.896     1261.785        1.262        0.424      128.289       35.720        0.078      343.661       19.928      859.692
06/14/2013  21:31:00     -105.552       86.449       -9.724       55.851       57.401       43.380     3119.294     3294.903     1881.798        1.350        0.415      136.435       34.045        0.062      343.604       19.832      859.723
06/14/2013  21:32:00     -115.536      137.051      -18.891       64.510       54.384       34.054     4161.479     2957.620     1159.654        2.038        0.414      179.253       32.465        0.033      343.602       19.827      859.735
06/14/2013  21:33:00     -156.403      136.482      -35.413       51.147       60.359       31.626     2615.992     3643.207     1000.228        2.580        0.363      207.579       28.747        0.019      343.635       19.883      859.754
06/14/2013  21:34:00     -116.225      116.984      -24.009       61.909       66.016       42.934     3832.725     4358.100     1843.343        1.890        0.502      164.905       40.133        0.059      343.624       19.865      859.769
06/14/2013  21:35:00      -91.628       84.786      -20.605       45.905       50.646       30.149     2107.272     2565.058      908.967        1.079        0.279      124.838       23.147        0.034      343.602       19.828      859.791
06/14/2013  21:36:00     -136.675      104.674      -27.456       44.586       50.030       31.000     1987.926     2503.037      961.021        1.792        0.273      172.154       18.697        0.012      343.634       19.883      859.807
06/14/2013  21:37:00     -125.298       98.798      -29.702       38.230       45.534       27.167     1461.515     2073.365      738.041        1.531        0.214      159.563       17.994        0.013      343.665       19.935      859.813
06/14/2013  21:38:00     -105.737       45.037      -23.314       34.892       45.784       21.859     1217.449     2096.173      477.822        0.877        0.190      114.929       17.069        0.022      343.653       19.915      859.824
06/14/2013  21:39:00     -105.980       41.074       -7.075       53.211       49.566       27.379     2831.366     2456.816      749.636        0.950        0.302      113.661       16.150        0.020      343.664       19.936      859.828
06/14/2013  21:40:00     -185.537      116.902      -31.940       52.913       84.942       39.208     2799.832     7215.205     1537.287        3.033        0.578      219.295       42.749        0.038      343.734       20.052      859.835
06/14/2013  21:41:00     -152.818       93.362      -23.130       63.970       75.532       37.825     4092.137     5705.137     1430.729        2.191        0.561      179.080       46.106        0.066      343.720       20.028      859.836
06/14/2013  21:42:00     -131.454       58.372      -20.809       55.377       46.094       26.622     3066.606     2124.674      708.734        1.351        0.295      143.831       26.766        0.035      343.680       19.961      859.833
06/14/2013  21:43:00     -105.140       77.985      -11.816       51.618       44.679       28.007     2664.446     1996.205      784.419        1.136        0.272      130.905       31.633        0.058      343.636       19.887      859.839
06/14/2013  21:44:00      -65.434       47.241       -1.742       39.598       33.328       26.152     1567.968     1110.736      683.948        0.494        0.168       80.705       10.811        0.018      343.715       20.022      859.838
06/14/2013  21:45:00      -81.909       92.417      -26.005       34.832       36.326       22.201     1213.280     1319.586      492.878        0.948        0.151      123.491       20.136        0.027      343.707       20.008      859.858
06/14/2013  21:46:00      -77.521       61.440      -15.274       26.431       49.397       20.693      698.600     2440.062      428.201        0.679        0.178       98.916       10.063        0.010      343.696       19.989      859.853
06/14/2013  21:47:00      -46.636       40.386       -7.466       41.102       41.344       24.781     1689.405     1709.357      614.114        0.394        0.201       61.692       14.183        0.053      343.683       19.968      859.855
06/14/2013  21:48:00      -77.685       78.271      -25.452       40.876       37.135       24.549     1670.832     1378.980      602.675        0.823        0.183      110.278       21.001        0.036      343.681       19.963      859.859
06/14/2013  21:49:00      -61.264       36.691       -6.472       28.156       34.608       25.347      792.755     1197.692      642.458        0.389        0.132       71.410       18.926        0.070      343.637       19.888      859.857
06/14/2013  21:50:00      -67.192       62.544      -20.078       26.005       23.834       16.091      676.259      568.061      258.915        0.517        0.075       91.796       14.760        0.026      343.629       19.876      859.869
06/14/2013  21:51:00      -62.346       44.442      -17.472       24.959       37.092       19.820      622.972     1375.808      392.839        0.428        0.120       76.565       14.205        0.034      343.701       19.998      859.873
06/14/2013  21:52:00      -21.112        4.641        3.532       25.106       37.059       16.094      630.306     1373.394      259.009        0.137        0.113       21.616       14.671        0.461      343.638       19.891      859.884
06/14/2013  21:53:00      -10.983       21.457        7.382       33.005       25.701       14.255     1089.334      660.564      203.210        0.129        0.098       24.105       11.322        0.221      343.618       19.858      859.897
06/14/2013  21:54:00      -10.066       17.283        0.948       12.376       14.991        9.834      153.167      224.719       96.705        0.044        0.024       20.000        3.804        0.036      343.620       19.860      859.899
06/14/2013  21:55:00       -6.901       50.461      -14.059       17.482       20.343        7.828      305.623      413.826       61.272        0.179        0.039       50.931        4.419        0.008      343.619       19.858      859.905
06/14/2013  21:56:00      -21.057       31.765       -5.776       20.013       21.113        8.172      400.515      445.765       66.776        0.120        0.046       38.111       11.008        0.083      343.594       19.816      859.920
06/14/2013  21:57:00      -25.221        3.959       -4.043       18.859       18.229       10.487      355.648      332.295      109.977        0.073        0.040       25.529        6.670        0.068      343.631       19.876      859.927
06/14/2013  21:58:00      -17.296       27.604       -6.396       16.039       18.066        9.700      257.244      326.396       94.096        0.089        0.034       32.575        9.811        0.091      343.588       19.806      859.935
06/14/2013  21:59:00      -45.297       14.599      -15.138       29.944       11.886       10.520      896.628      141.274      110.681        0.182        0.057       47.591        8.860        0.035      343.609       19.842      859.958
06/14/2013  22:00:00      -54.947       29.876      -13.378       24.282       27.775       17.529      589.610      771.439      307.283        0.288        0.083       62.544       14.392        0.053      343.550       19.741      859.970
06/14/2013  22:01:00      -36.567        5.797      -10.152       16.722       19.126        7.373      279.631      365.812       54.357        0.109        0.035       37.024        5.783        0.024      343.540       19.724      859.974
06/14/2013  22:02:00      -58.309       28.468       -7.402       25.947       21.086       13.685      673.223      444.624      187.280        0.278        0.065       64.888        7.754        0.014      343.524       19.697      859.979
06/14/2013  22:03:00      -44.399       14.982       -6.037       19.137       14.983       12.362      366.233      224.504      152.812        0.149        0.037       46.859       10.589        0.051      343.501       19.658      859.992
06/14/2013  22:04:00      -55.740       -0.672      -11.168       30.654       22.375       17.614      939.650      500.626      310.247        0.249        0.088       55.744       10.596        0.036      343.481       19.625      859.993
06/14/2013  22:05:00      -34.611       12.190       -1.631       12.750       13.879       13.732      162.574      192.613      188.561        0.095        0.027       36.695        8.062        0.048      343.437       19.546      860.003
06/14/2013  22:06:00      -50.466      -13.709       -6.277       19.560       16.702       11.812      382.611      278.952      139.530        0.179        0.040       52.295       10.787        0.043      343.410       19.504      860.026
06/14/2013  22:07:00      -74.716      -34.477       -2.256       18.539       19.551       11.227      343.701      382.250      126.051        0.381        0.043       82.287        9.198        0.012      343.376       19.444      860.041
06/14/2013  22:08:00      -52.400       -3.569       -3.450       49.675       32.090       18.161     2467.631     1029.760      329.825        0.330        0.191       52.522       19.357        0.136      343.315       19.341      860.052
06/14/2013  22:09:00       33.883       42.565       20.319       26.269       18.623       15.992      690.036      346.819      255.751        0.233        0.065       54.404       13.549        0.062      343.318       19.345      860.059
06/14/2013  22:10:00      -25.338       35.006       -1.449       23.373       31.346       18.928      546.275      982.560      358.262        0.188        0.094       43.214       13.401        0.096      343.197       19.139      860.085
06/14/2013  22:11:00       -9.093       -5.458        0.196       21.090       13.020        9.184      444.807      169.523       84.354        0.041        0.035       10.606        7.544        0.506      343.183       19.116      860.091
06/14/2013  22:12:00      -18.106      -15.691       -4.626       15.190       11.704        9.625      230.744      136.993       92.635        0.053        0.023       23.959        5.550        0.054      343.256       19.239      860.089
06/14/2013  22:13:00       18.995       11.086        2.718       18.210       21.887       16.160      331.609      479.059      261.140        0.078        0.054       21.993       11.129        0.256      343.176       19.104      860.082
06/14/2013  22:14:00       -0.086       51.670       -3.444       24.971       27.675       17.269      623.558      765.892      298.216        0.218        0.084       51.670       12.605        0.060      343.115       19.000      860.090
06/14/2013  22:15:00        0.468       64.690       -6.018       21.592       23.333       10.803      466.203      544.415      116.711        0.267        0.056       64.692        3.287        0.003      343.124       19.015      860.093
06/14/2013  22:16:00       27.625       19.332       -3.448       23.922       23.226       15.045      572.284      539.450      226.354        0.124        0.067       33.718       10.128        0.090      343.219       19.177      860.088
06/14/2013  22:17:00      -36.323       -1.072       -2.303       18.919       19.585       11.851      357.946      383.569      140.440        0.110        0.044       36.338        8.454        0.054      343.234       19.202      860.102
06/14/2013  22:18:00      -16.697       31.433        6.432       32.823       19.353       17.270     1077.319      374.551      298.241        0.153        0.088       35.592       18.293        0.264      343.192       19.131      860.114
06/14/2013  22:19:00      -53.871       66.305      -15.622       44.313       27.128       21.642     1963.651      735.945      468.370        0.535        0.158       85.430       23.118        0.073      343.225       19.188      860.128
06/14/2013  22:20:00       -8.206       91.232       -9.695       41.813       50.188       19.990     1748.366     2518.786      399.582        0.657        0.233       91.600       17.868        0.038      343.139       19.041      860.129
06/14/2013  22:21:00      -12.318       27.645       -0.185       41.582       29.614       25.674     1729.051      876.964      659.171        0.209        0.163       30.265       11.663        0.149      343.127       19.019      860.136
06/14/2013  22:22:00      -11.780       30.782       -5.552       32.484       18.678       18.797     1055.203      348.852      353.316        0.144        0.088       32.959       10.799        0.107      343.112       18.995      860.137
06/14/2013  22:23:00      -19.293       36.825       -0.851       44.932       23.986       12.115     2018.890      575.329      146.764        0.223        0.137       41.573       12.405        0.089      343.125       19.016      860.131
06/14/2013  22:24:00      -37.872       66.722       -3.371       21.970       54.395       17.487      482.675     2958.863      305.794        0.482        0.187       76.721       15.104        0.039      343.063       18.910      860.120
06/14/2013  22:25:00      -23.419       36.959       -3.195       22.323       26.330       11.166      498.327      693.278      124.682        0.162        0.066       43.754       12.228        0.078      342.998       18.801      860.123
06/14/2013  22:26:00      -28.382       20.556       -6.999       13.230       27.371       10.995      175.042      749.171      120.900        0.116        0.052       35.044        5.415        0.024      343.031       18.857      860.113
06/14/2013  22:27:00      -56.212       78.100      -24.458       30.824       68.593       22.895      950.119     4704.996      524.202        0.802        0.309       96.225       30.294        0.099      343.196       19.137      860.104
06/14/2013  22:28:00      -75.724       71.793      -19.719       25.266       34.613       22.479      638.392     1198.076      505.294        0.681        0.117      104.347       16.460        0.025      343.138       19.039      860.117
06/14/2013  22:29:00      -38.185       16.611       -4.506       23.306       17.051        9.538      543.163      290.751       90.982        0.134        0.046       41.641        5.897        0.020      343.008       18.818      860.120
06/14/2013  22:30:00      -55.949       14.396      -11.528       25.114       17.512       14.700      630.691      306.668      216.095        0.231        0.058       57.771       16.075        0.077      343.058       18.902      860.128
06/14/2013  22:31:00      -48.464       30.071      -15.886       19.340       23.368       14.255      374.040      546.067      203.203        0.231        0.056       57.036       11.564        0.041      343.071       18.922      860.135
06/14/2013  22:32:00      -70.109      -10.145       -5.046       30.066       21.754       13.633      903.973      473.250      185.866        0.330        0.078       70.839       14.616        0.043      342.931       18.688      860.144
06/14/2013  22:33:00      -59.269        6.448       -6.817       27.124       23.166       10.317      735.687      536.682      106.431        0.249        0.069       59.618        5.581        0.009      342.855       18.556      860.144
06/14/2013  22:34:00      -72.547        9.406      -10.460       25.499       34.728       14.586      650.213     1206.020      212.756        0.376        0.103       73.154       17.966        0.060      343.018       18.834      860.142
06/14/2013  22:35:00      -83.079       90.724      -25.029       24.919       25.808       14.356      620.975      666.051      206.083        0.863        0.075      123.016       11.264        0.008      343.196       19.136      860.142
06/14/2013  22:36:00     -100.809       28.464      -12.534       23.931       20.855       16.671      572.701      434.925      277.928        0.621        0.064      104.750       11.639        0.012      343.060       18.908      860.135
06/14/2013  22:37:00      -81.527        5.799       -4.989       19.072       22.792       16.003      363.723      519.453      256.111        0.392        0.057       81.733       12.628        0.024      343.045       18.880      860.121
06/14/2013  22:38:00      -92.640       20.553       -6.518       28.703       21.019       15.175      823.854      441.808      230.286        0.527        0.075       94.892       14.429        0.023      342.963       18.741      860.124
06/14/2013  22:39:00     -102.813       42.226      -18.272       29.213       20.395       16.643      853.411      415.941      277.005        0.712        0.077      111.146       12.129        0.012      343.051       18.891      860.128
06/14/2013  22:40:00      -85.952       35.080      -14.295       30.177       24.041       20.131      910.646      577.964      405.260        0.536        0.095       92.835       17.459        0.035      342.900       18.633      860.124
06/14/2013  22:41:00      -85.900       84.729      -23.719       21.495       41.599       16.114      462.019     1730.494      259.665        0.879        0.123      120.656       12.324        0.010      343.089       18.956      860.134
06/14/2013  22:42:00      -20.769       40.542       -2.878       43.439       26.978       14.395     1886.915      727.787      207.214        0.245        0.141       45.552       18.509        0.165      342.999       18.801      860.142
06/14/2013  22:43:00      -29.605       -2.541       -3.823       35.377       16.647        6.246     1251.506      277.115       39.013        0.123        0.078       29.714        4.382        0.022      343.074       18.930      860.133
06/14/2013  22:44:00     -100.530      -13.772      -12.325       18.486       24.247       11.090      341.737      587.913      122.992        0.575        0.053      101.469        9.325        0.008      342.969       18.750      860.131
06/14/2013  22:45:00      -62.513      -11.475       -4.773       46.004       35.046       16.471     2116.341     1228.249      271.282        0.384        0.181       63.558       20.179        0.101      342.809       18.478      860.137
06/14/2013  22:46:00      -39.061       16.785       -9.556       21.455       33.140       10.531      460.309     1098.256      110.908        0.178        0.083       42.515        9.821        0.053      342.885       18.610      860.131
06/14/2013  22:47:00      -48.051        7.651       -3.457       30.466       29.639       15.854      928.161      878.474      251.351        0.222        0.103       48.656        9.679        0.040      342.818       18.493      860.117
06/14/2013  22:48:00      -77.488       -1.948       -2.954       21.083       39.968       16.227      444.514     1597.409      263.319        0.416        0.115       77.512       17.009        0.048      342.692       18.278      860.102
06/14/2013  22:49:00      -96.784      104.630      -23.861       30.396       44.703       17.586      923.888     1998.397      309.276        1.206        0.162      142.529       14.585        0.010      342.815       18.488      860.105
06/14/2013  22:50:00     -121.552       94.668      -27.844       32.648       34.823       19.330     1065.917     1212.622      373.641        1.358        0.133      154.068       14.831        0.009      342.804       18.470      860.087
06/14/2013  22:51:00     -116.899      105.935      -26.194       31.988       33.792       17.931     1023.248     1141.886      321.527        1.403        0.124      157.758        8.532        0.003      342.772       18.415      860.070
06/14/2013  22:52:00      -99.765      118.669      -22.768       37.783       44.531       27.691     1427.528     1983.005      766.782        1.436        0.209      155.034       29.975        0.037      342.771       18.412      860.064
06/14/2013  22:53:00      -93.508       70.483      -21.204       35.036       44.408       23.779     1227.555     1972.087      565.450        0.896        0.188      117.097       27.297        0.054      342.773       18.415      860.071
06/14/2013  22:54:00      -93.848       87.516      -22.619       34.123       27.557       19.038     1164.370      759.369      362.444        0.963        0.114      128.322       19.827        0.024      342.792       18.450      860.058
06/14/2013  22:55:00     -118.464       75.015      -24.189       32.090       31.969       20.533     1029.750     1021.996      421.623        1.136        0.124      140.218       17.414        0.015      342.816       18.490      860.048
06/14/2013  22:56:00     -116.208       66.425      -11.795       51.284       43.134       25.619     2630.081     1860.558      656.323        1.160        0.257      133.853       19.989        0.022      342.856       18.559      860.059
06/14/2013  22:57:00      -93.558       80.756      -20.704       18.706       32.187       18.869      349.905     1036.031      356.022        0.872        0.087      123.591       13.537        0.012      342.858       18.561      860.057
06/14/2013  22:58:00      -82.675       41.407      -11.026       27.508       25.299       21.259      756.680      640.026      451.952        0.526        0.092       92.465       17.123        0.034      342.743       18.367      860.043
06/14/2013  22:59:00      -89.477       24.432       -8.673       20.140       17.656       15.341      405.621      311.750      235.354        0.482        0.048       92.753       10.491        0.013      342.823       18.503      860.043
06/14/2013  23:00:00      -87.237       19.174       -9.635       25.838       35.025       21.052      667.577     1226.771      443.173        0.520        0.117       89.320       20.036        0.050      342.774       18.418      860.038
06/14/2013  23:01:00      -57.619       21.774       -4.461       17.521       17.626       11.407      307.002      310.691      130.123        0.228        0.037       61.595        8.257        0.018      342.750       18.377      860.027
06/14/2013  23:02:00      -46.717       28.950       -9.753       16.244       20.310       13.625      263.872      412.504      185.652        0.199        0.043       54.960       11.195        0.041      342.732       18.347      860.023
06/14/2013  23:03:00      -83.598       69.792      -21.168       31.162       22.068       18.637      971.079      487.005      347.331        0.706        0.090      108.902       16.904        0.024      342.862       18.568      860.022
06/14/2013  23:04:00      -74.280       45.883      -11.073       23.612       26.722       17.870      557.532      714.086      319.325        0.467        0.080       87.308       14.863        0.029      342.715       18.317      860.009
06/14/2013  23:05:00      -64.706       65.464      -13.480       25.506       40.710       16.413      650.548     1657.331      269.374        0.562        0.129       92.046       11.886        0.017      342.766       18.405      860.006
06/14/2013  23:06:00     -100.061       27.607      -15.774       22.478       21.920       20.378      505.254      480.500      415.251        0.621        0.070      103.800       15.606        0.023      342.758       18.393      860.016
06/14/2013  23:07:00      -67.322        4.750       -6.660       32.889       27.361       18.533     1081.683      748.625      343.487        0.339        0.109       67.490       16.282        0.058      342.667       18.237      860.012
06/14/2013  23:08:00      -69.733       32.619       -3.270       45.168       25.577       18.378     2040.123      654.208      337.743        0.448        0.152       76.985       11.543        0.022      342.741       18.362      860.015
06/14/2013  23:09:00     -103.373       74.304      -18.964       43.815       39.422       21.100     1919.757     1554.130      445.212        1.024        0.196      127.307       20.023        0.025      342.742       18.365      860.027
06/14/2013  23:10:00      -93.763      122.391      -20.219       45.766       38.887       26.393     2094.566     1512.173      696.585        1.424        0.215      154.179       23.382        0.023      342.722       18.330      860.023
06/14/2013  23:11:00      -85.522       31.462      -10.974       53.040       21.671       20.778     2813.277      469.644      431.736        0.607        0.186       91.126       15.293        0.028      342.771       18.414      860.017
06/14/2013  23:12:00      -52.078       36.598       -3.755       30.369       26.608       21.136      922.253      708.007      446.729        0.307        0.104       63.651       17.573        0.076      342.708       18.306      860.010
06/14/2013  23:13:00      -24.210       56.444       -4.101       18.678       22.443       15.205      348.876      503.709      231.177        0.244        0.054       61.418       11.741        0.037      342.725       18.334      860.007
06/14/2013  23:14:00      -62.439       14.254       -9.034       24.956       26.111       12.196      622.783      681.794      148.745        0.282        0.073       64.045        8.949        0.020      342.615       18.148      860.011
06/14/2013  23:15:00        5.645       27.150        4.512       17.828       22.200       19.755      317.832      492.833      390.260        0.099        0.060       27.731       10.790        0.151      342.573       18.077      860.007
06/14/2013  23:16:00      -33.412       -8.127       -0.220       14.903       17.056       11.667      222.108      290.913      136.109        0.092        0.032       34.386       12.289        0.128      342.471       17.903      860.001
06/14/2013  23:17:00      -34.669      -18.550       -6.762       12.954       10.637        8.300      167.800      113.147       68.886        0.097        0.017       39.320        4.606        0.014      342.486       17.931      859.989
06/14/2013  23:18:00      -37.375      -20.588       -8.892       14.326       10.177        8.290      205.223      103.570       68.731        0.114        0.019       42.670        5.884        0.019      342.423       17.823      859.973
06/14/2013  23:19:00      -61.601      -22.770       -7.319       12.883       14.738        9.836      165.977      217.206       96.754        0.242        0.024       65.674        6.777        0.011      342.341       17.683      859.956
06/14/2013  23:20:00      -66.692      -34.830       -0.177       42.628       19.225       14.314     1817.155      369.617      204.892        0.403        0.120       75.239       14.422        0.037      342.238       17.509      859.955
06/14/2013  23:21:00      -42.724      -40.113       -0.170       32.279       28.003       15.810     1041.929      784.189      249.959        0.275        0.104       58.604       14.979        0.065      342.118       17.306      859.947
06/14/2013  23:22:00      -30.672      -32.270        3.268       38.247       26.160       18.581     1462.808      684.370      345.272        0.224        0.125       44.521       19.237        0.187      342.079       17.237      859.936
06/14/2013  23:23:00      -26.036      -45.598        3.146       31.178       28.712       24.084      972.055      824.372      580.053        0.257        0.119       52.507       19.049        0.132      342.135       17.333      859.935
06/14/2013  23:24:00      -75.589      -93.492       -4.405       21.213       21.874        9.857      449.981      478.458       97.152        0.775        0.051      120.227        8.477        0.005      342.221       17.480      859.934
06/14/2013  23:25:00      -53.814      -78.147        0.591       29.680       40.569       16.772      880.928     1645.862      281.292        0.591        0.140       94.884       14.171        0.022      342.138       17.337      859.929
06/14/2013  23:26:00      -27.605      -28.975       -5.808       26.942       20.400       19.804      725.887      416.165      392.207        0.158        0.077       40.020       10.064        0.063      342.051       17.190      859.926
06/14/2013  23:27:00      -73.951      -73.392       -4.794       37.269       27.422       19.744     1389.002      751.977      389.815        0.670        0.127      104.188       16.838        0.026      342.047       17.183      859.928
06/14/2013  23:28:00      -47.033      -42.164        0.457       34.089       25.099       18.259     1162.043      629.950      333.398        0.306        0.106       63.166       14.309        0.051      341.921       16.970      859.926
06/14/2013  23:29:00      -34.785      -61.015        0.876       33.321       27.373       19.305     1110.294      749.254      372.697        0.358        0.112       70.234       19.101        0.074      341.881       16.902      859.923
06/14/2013  23:30:00      -46.672      -41.826        1.335       33.579       22.310       15.478     1127.569      497.716      239.562        0.290        0.093       62.672        9.971        0.025      341.877       16.894      859.929
06/14/2013  23:31:00      -41.026      -37.555        7.017       37.121       22.027       17.778     1377.935      485.200      316.040        0.266        0.109       55.619       19.559        0.124      341.801       16.765      859.924
06/14/2013  23:32:00      -79.594      -39.180        4.530       28.278       28.076       18.488      799.651      788.248      341.815        0.491        0.096       88.714       12.246        0.019      341.864       16.873      859.909
06/14/2013  23:33:00      -88.461      -76.651        5.032       48.569       31.402       26.678     2358.948      986.057      711.708        0.889        0.203      117.050       27.721        0.056      341.759       16.695      859.902
06/14/2013  23:34:00      -53.040      -41.090        6.966       35.020       27.101       15.974     1226.379      734.480      255.158        0.338        0.111       67.094       16.468        0.060      341.661       16.530      859.897
06/14/2013  23:35:00      -76.594      -50.129        5.051       30.169       21.253       17.442      910.164      451.670      304.214        0.504        0.083       91.540       17.577        0.037      341.687       16.573      859.889
06/14/2013  23:36:00      -68.129      -42.621        6.080       45.547       25.381       18.039     2074.526      644.205      325.394        0.477        0.152       80.362       23.946        0.089      341.669       16.543      859.887
06/14/2013  23:37:00      -62.750      -46.573        4.035       41.468       26.052       17.290     1719.636      678.723      298.960        0.441        0.135       78.145       18.704        0.057      341.664       16.533      859.889
06/14/2013  23:38:00      -77.736      -48.087        5.077       45.237       21.913       21.256     2046.398      480.177      451.820        0.568        0.149       91.407       19.841        0.047      341.625       16.468      859.887
06/14/2013  23:39:00      -79.700      -51.576        3.637       28.710       25.616       18.257      824.243      656.175      333.308        0.542        0.091       94.932       15.983        0.028      341.647       16.505      859.892
06/14/2013  23:40:00      -29.365      -40.499       11.348       35.168       26.092       21.713     1236.756      680.791      471.471        0.251        0.119       50.025       19.267        0.148      341.574       16.381      859.901
06/14/2013  23:41:00      -26.446      -32.177       21.721       33.711       32.175       22.087     1136.457     1035.215      487.849        0.243        0.133       41.650       20.302        0.238      341.520       16.290      859.896
06/14/2013  23:42:00      -47.185      -51.751        7.016       47.049       44.105       25.894     2213.583     1945.267      670.501        0.489        0.241       70.033       28.904        0.170      341.579       16.389      859.887
06/14/2013  23:43:00      -80.414      -71.559        0.188       50.931       37.629       25.398     2593.991     1415.952      645.052        0.812        0.233      107.643       27.249        0.064      341.603       16.430      859.881
06/14/2013  23:44:00     -114.246      -84.735        3.197       39.170       41.922       22.977     1534.289     1757.436      527.948        1.203        0.191      142.240       22.957        0.026      341.585       16.399      859.862
06/14/2013  23:45:00      -71.212      -63.379       -0.389       48.756       46.826       25.280     2377.153     2192.637      639.098        0.715        0.260       95.331       25.533        0.072      341.601       16.426      859.850
06/14/2013  23:46:00      -90.873      -84.244        7.028       42.246       36.245       22.449     1784.694     1313.674      503.959        0.950        0.180      123.916       20.027        0.026      341.617       16.454      859.848
06/14/2013  23:47:00     -113.885      -74.943       -5.625       40.356       36.079       20.934     1628.574     1301.716      438.219        1.099        0.168      136.331       17.942        0.017      341.708       16.607      859.828
06/14/2013  23:48:00     -107.884      -56.526       -1.969       35.942       25.296       21.967     1291.825      639.890      482.540        0.863        0.121      121.796       22.263        0.033      341.712       16.616      859.810
06/14/2013  23:49:00      -74.964      -59.314        1.108       35.085       25.417       18.231     1230.989      646.027      332.372        0.567        0.110       95.592       16.605        0.030      341.650       16.511      859.807
06/14/2013  23:50:00      -88.720      -52.790       -5.763       24.913       16.178       12.923      620.661      261.727      166.993        0.587        0.052      103.237       10.026        0.009      341.658       16.524      859.800
06/14/2013  23:51:00     -100.395      -49.306       -4.945       23.882       17.190       16.944      570.364      295.479      287.099        0.684        0.058      111.849       16.975        0.023      341.645       16.502      859.791
06/14/2013  23:52:00      -99.989      -52.568        0.200       28.511       29.207       18.581      812.872      853.075      345.253        0.739        0.101      112.965       17.544        0.024      341.667       16.538      859.802
06/14/2013  23:53:00     -116.037      -51.162      -10.393       22.301       25.929       11.187      497.336      672.300      125.160        0.874        0.065      126.816       12.601        0.010      341.642       16.497      859.803
06/14/2013  23:54:00      -96.754      -29.891       -7.144       19.460       20.656       15.658      378.704      426.662      245.182        0.568        0.053      101.266        9.847        0.009      341.621       16.461      859.800
06/14/2013  23:55:00      -78.929      -19.860       -1.603       35.036       20.543       17.667     1227.502      422.006      312.114        0.429        0.098       81.390       19.270        0.056      341.519       16.287      859.808
06/14/2013  23:56:00     -100.902      -23.535       -3.788       27.689       20.232       19.594      766.692      409.350      383.933        0.615        0.078      103.611       18.584        0.032      341.571       16.375      859.798
06/14/2013  23:57:00     -110.217      -23.231       -7.243       26.561       18.112       16.351      705.474      328.035      267.362        0.702        0.065      112.639       15.482        0.019      341.617       16.452      859.775
06/14/2013  23:58:00     -132.292      -30.729       -4.248       31.266       27.783       18.273      977.579      771.911      333.912        1.027        0.104      135.814       17.425        0.016      341.650       16.510      859.769
06/14/2013  23:59:00     -118.812      -22.514        0.218       28.613       23.308       16.107      818.688      543.266      259.435        0.812        0.081      120.926       16.462        0.019      341.522       16.291      859.762
